<?xml version="1.0" encoding="UTF-8" standalone="no" ?>
 
<gpx xmlns="http://www.topografix.com/GPX/1/1" creator="bikehike.co.uk" version="1.1" 
    xmlns:xsi="http://www.w3.org/2001/XMLSchema-instance" 
    xsi:schemaLocation="http://www.topografix.com/GPX/1/1 http://www.topografix.com/GPX/1/1/gpx.xsd">


  <trk>
    <name>tourett-menton</name>
    <trkseg>
      <trkpt lat="43.610040" lon="6.720760">
       <ele>212.96</ele>
       <time>2014-11-03T19:49:10Z</time>
      </trkpt>
      <trkpt lat="43.610100" lon="6.721330">
       <ele>215.15</ele>
       <time>2014-11-03T19:49:18Z</time>
      </trkpt>
      <trkpt lat="43.610300" lon="6.722730">
       <ele>216.43</ele>
       <time>2014-11-03T19:49:40Z</time>
      </trkpt>
      <trkpt lat="43.610420" lon="6.724670">
       <ele>217.92</ele>
       <time>2014-11-03T19:50:09Z</time>
      </trkpt>
      <trkpt lat="43.610590" lon="6.725440">
       <ele>219.88</ele>
       <time>2014-11-03T19:50:21Z</time>
      </trkpt>
      <trkpt lat="43.610640" lon="6.725960">
       <ele>221.5</ele>
       <time>2014-11-03T19:50:29Z</time>
      </trkpt>
      <trkpt lat="43.610640" lon="6.726220">
       <ele>222.85</ele>
       <time>2014-11-03T19:50:33Z</time>
      </trkpt>
      <trkpt lat="43.610600" lon="6.726980">
       <ele>226.32</ele>
       <time>2014-11-03T19:50:44Z</time>
      </trkpt>
      <trkpt lat="43.610480" lon="6.728020">
       <ele>225.29</ele>
       <time>2014-11-03T19:51:00Z</time>
      </trkpt>
      <trkpt lat="43.610320" lon="6.729850">
       <ele>218.69</ele>
       <time>2014-11-03T19:51:28Z</time>
      </trkpt>
      <trkpt lat="43.610170" lon="6.730810">
       <ele>216.04</ele>
       <time>2014-11-03T19:51:42Z</time>
      </trkpt>
      <trkpt lat="43.610180" lon="6.730880">
       <ele>216.11</ele>
       <time>2014-11-03T19:51:43Z</time>
      </trkpt>
      <trkpt lat="43.610130" lon="6.731270">
       <ele>216.14</ele>
       <time>2014-11-03T19:51:49Z</time>
      </trkpt>
      <trkpt lat="43.610140" lon="6.731390">
       <ele>216.29</ele>
       <time>2014-11-03T19:51:51Z</time>
      </trkpt>
      <trkpt lat="43.610210" lon="6.731560">
       <ele>216.69</ele>
       <time>2014-11-03T19:51:54Z</time>
      </trkpt>
      <trkpt lat="43.610280" lon="6.731640">
       <ele>216.99</ele>
       <time>2014-11-03T19:51:56Z</time>
      </trkpt>
      <trkpt lat="43.610370" lon="6.731680">
       <ele>217.32</ele>
       <time>2014-11-03T19:51:58Z</time>
      </trkpt>
      <trkpt lat="43.610420" lon="6.731740">
       <ele>217.42</ele>
       <time>2014-11-03T19:51:59Z</time>
      </trkpt>
      <trkpt lat="43.610460" lon="6.731850">
       <ele>217.41</ele>
       <time>2014-11-03T19:52:01Z</time>
      </trkpt>
      <trkpt lat="43.610460" lon="6.731990">
       <ele>217.22</ele>
       <time>2014-11-03T19:52:03Z</time>
      </trkpt>
      <trkpt lat="43.610390" lon="6.732150">
       <ele>216.86</ele>
       <time>2014-11-03T19:52:06Z</time>
      </trkpt>
      <trkpt lat="43.610300" lon="6.732210">
       <ele>216.61</ele>
       <time>2014-11-03T19:52:08Z</time>
      </trkpt>
      <trkpt lat="43.610230" lon="6.732430">
       <ele>216.32</ele>
       <time>2014-11-03T19:52:12Z</time>
      </trkpt>
      <trkpt lat="43.610010" lon="6.733590">
       <ele>215.44</ele>
       <time>2014-11-03T19:52:30Z</time>
      </trkpt>
      <trkpt lat="43.609950" lon="6.733750">
       <ele>214.47</ele>
       <time>2014-11-03T19:52:32Z</time>
      </trkpt>
      <trkpt lat="43.609740" lon="6.734620">
       <ele>209.89</ele>
       <time>2014-11-03T19:52:46Z</time>
      </trkpt>
      <trkpt lat="43.609070" lon="6.737470">
       <ele>202.77</ele>
       <time>2014-11-03T19:53:31Z</time>
      </trkpt>
      <trkpt lat="43.608320" lon="6.740770">
       <ele>197.95</ele>
       <time>2014-11-03T19:54:23Z</time>
      </trkpt>
      <trkpt lat="43.608230" lon="6.741110">
       <ele>197.38</ele>
       <time>2014-11-03T19:54:29Z</time>
      </trkpt>
      <trkpt lat="43.608220" lon="6.741250">
       <ele>197.23</ele>
       <time>2014-11-03T19:54:31Z</time>
      </trkpt>
      <trkpt lat="43.608130" lon="6.741650">
       <ele>196.77</ele>
       <time>2014-11-03T19:54:37Z</time>
      </trkpt>
      <trkpt lat="43.608090" lon="6.742020">
       <ele>195.56</ele>
       <time>2014-11-03T19:54:43Z</time>
      </trkpt>
      <trkpt lat="43.608100" lon="6.742300">
       <ele>194.65</ele>
       <time>2014-11-03T19:54:47Z</time>
      </trkpt>
      <trkpt lat="43.608190" lon="6.742510">
       <ele>193.99</ele>
       <time>2014-11-03T19:54:50Z</time>
      </trkpt>
      <trkpt lat="43.608200" lon="6.742650">
       <ele>193.85</ele>
       <time>2014-11-03T19:54:53Z</time>
      </trkpt>
      <trkpt lat="43.608170" lon="6.742760">
       <ele>193.75</ele>
       <time>2014-11-03T19:54:54Z</time>
      </trkpt>
      <trkpt lat="43.608030" lon="6.742970">
       <ele>193.64</ele>
       <time>2014-11-03T19:54:59Z</time>
      </trkpt>
      <trkpt lat="43.608000" lon="6.743070">
       <ele>193.59</ele>
       <time>2014-11-03T19:55:00Z</time>
      </trkpt>
      <trkpt lat="43.607880" lon="6.743800">
       <ele>193.8</ele>
       <time>2014-11-03T19:55:11Z</time>
      </trkpt>
      <trkpt lat="43.607830" lon="6.743980">
       <ele>193.91</ele>
       <time>2014-11-03T19:55:14Z</time>
      </trkpt>
      <trkpt lat="43.607790" lon="6.744410">
       <ele>193.33</ele>
       <time>2014-11-03T19:55:21Z</time>
      </trkpt>
      <trkpt lat="43.607720" lon="6.745580">
       <ele>191.01</ele>
       <time>2014-11-03T19:55:39Z</time>
      </trkpt>
      <trkpt lat="43.607660" lon="6.746130">
       <ele>191.21</ele>
       <time>2014-11-03T19:55:47Z</time>
      </trkpt>
      <trkpt lat="43.607550" lon="6.746650">
       <ele>192.09</ele>
       <time>2014-11-03T19:55:55Z</time>
      </trkpt>
      <trkpt lat="43.607000" lon="6.748770">
       <ele>190.35</ele>
       <time>2014-11-03T19:56:29Z</time>
      </trkpt>
      <trkpt lat="43.606630" lon="6.750010">
       <ele>188.86</ele>
       <time>2014-11-03T19:56:49Z</time>
      </trkpt>
      <trkpt lat="43.606260" lon="6.751970">
       <ele>186.33</ele>
       <time>2014-11-03T19:57:19Z</time>
      </trkpt>
      <trkpt lat="43.606050" lon="6.752950">
       <ele>185.24</ele>
       <time>2014-11-03T19:57:35Z</time>
      </trkpt>
      <trkpt lat="43.606020" lon="6.753160">
       <ele>185.09</ele>
       <time>2014-11-03T19:57:38Z</time>
      </trkpt>
      <trkpt lat="43.605920" lon="6.754140">
       <ele>184.13</ele>
       <time>2014-11-03T19:57:53Z</time>
      </trkpt>
      <trkpt lat="43.605830" lon="6.754650">
       <ele>183.99</ele>
       <time>2014-11-03T19:58:01Z</time>
      </trkpt>
      <trkpt lat="43.605820" lon="6.755070">
       <ele>183.88</ele>
       <time>2014-11-03T19:58:07Z</time>
      </trkpt>
      <trkpt lat="43.605850" lon="6.755100">
       <ele>183.92</ele>
       <time>2014-11-03T19:58:08Z</time>
      </trkpt>
      <trkpt lat="43.605880" lon="6.755180">
       <ele>183.9</ele>
       <time>2014-11-03T19:58:09Z</time>
      </trkpt>
      <trkpt lat="43.605880" lon="6.755280">
       <ele>183.78</ele>
       <time>2014-11-03T19:58:11Z</time>
      </trkpt>
      <trkpt lat="43.605850" lon="6.755370">
       <ele>183.6</ele>
       <time>2014-11-03T19:58:12Z</time>
      </trkpt>
      <trkpt lat="43.605790" lon="6.755420">
       <ele>183.42</ele>
       <time>2014-11-03T19:58:14Z</time>
      </trkpt>
      <trkpt lat="43.605710" lon="6.755820">
       <ele>182.86</ele>
       <time>2014-11-03T19:58:20Z</time>
      </trkpt>
      <trkpt lat="43.605690" lon="6.756610">
       <ele>183.6</ele>
       <time>2014-11-03T19:58:32Z</time>
      </trkpt>
      <trkpt lat="43.605640" lon="6.757010">
       <ele>183.22</ele>
       <time>2014-11-03T19:58:38Z</time>
      </trkpt>
      <trkpt lat="43.605500" lon="6.757810">
       <ele>182.23</ele>
       <time>2014-11-03T19:58:50Z</time>
      </trkpt>
      <trkpt lat="43.605480" lon="6.758170">
       <ele>181.77</ele>
       <time>2014-11-03T19:58:55Z</time>
      </trkpt>
      <trkpt lat="43.605500" lon="6.759200">
       <ele>181.2</ele>
       <time>2014-11-03T19:59:11Z</time>
      </trkpt>
      <trkpt lat="43.605530" lon="6.759750">
       <ele>181.27</ele>
       <time>2014-11-03T19:59:19Z</time>
      </trkpt>
      <trkpt lat="43.605560" lon="6.760000">
       <ele>181.34</ele>
       <time>2014-11-03T19:59:23Z</time>
      </trkpt>
      <trkpt lat="43.605610" lon="6.760760">
       <ele>181.04</ele>
       <time>2014-11-03T19:59:35Z</time>
      </trkpt>
      <trkpt lat="43.605650" lon="6.761020">
       <ele>180.73</ele>
       <time>2014-11-03T19:59:39Z</time>
      </trkpt>
      <trkpt lat="43.605700" lon="6.761560">
       <ele>179.99</ele>
       <time>2014-11-03T19:59:47Z</time>
      </trkpt>
      <trkpt lat="43.605730" lon="6.762030">
       <ele>180.25</ele>
       <time>2014-11-03T19:59:54Z</time>
      </trkpt>
      <trkpt lat="43.605760" lon="6.762040">
       <ele>180.32</ele>
       <time>2014-11-03T19:59:54Z</time>
      </trkpt>
      <trkpt lat="43.605780" lon="6.762080">
       <ele>180.4</ele>
       <time>2014-11-03T19:59:55Z</time>
      </trkpt>
      <trkpt lat="43.605780" lon="6.762150">
       <ele>180.48</ele>
       <time>2014-11-03T19:59:56Z</time>
      </trkpt>
      <trkpt lat="43.605750" lon="6.762190">
       <ele>180.47</ele>
       <time>2014-11-03T19:59:57Z</time>
      </trkpt>
      <trkpt lat="43.605740" lon="6.762360">
       <ele>180.63</ele>
       <time>2014-11-03T20:00:00Z</time>
      </trkpt>
      <trkpt lat="43.605710" lon="6.763980">
       <ele>180.85</ele>
       <time>2014-11-03T20:00:24Z</time>
      </trkpt>
      <trkpt lat="43.605770" lon="6.764920">
       <ele>180.99</ele>
       <time>2014-11-03T20:00:38Z</time>
      </trkpt>
      <trkpt lat="43.605790" lon="6.766360">
       <ele>179.77</ele>
       <time>2014-11-03T20:01:00Z</time>
      </trkpt>
      <trkpt lat="43.605730" lon="6.767210">
       <ele>179.04</ele>
       <time>2014-11-03T20:01:13Z</time>
      </trkpt>
      <trkpt lat="43.605690" lon="6.767490">
       <ele>179</ele>
       <time>2014-11-03T20:01:17Z</time>
      </trkpt>
      <trkpt lat="43.605650" lon="6.767700">
       <ele>179.27</ele>
       <time>2014-11-03T20:01:20Z</time>
      </trkpt>
      <trkpt lat="43.605520" lon="6.768160">
       <ele>179.39</ele>
       <time>2014-11-03T20:01:28Z</time>
      </trkpt>
      <trkpt lat="43.604580" lon="6.771070">
       <ele>179</ele>
       <time>2014-11-03T20:02:15Z</time>
      </trkpt>
      <trkpt lat="43.602990" lon="6.775530">
       <ele>183.21</ele>
       <time>2014-11-03T20:03:30Z</time>
      </trkpt>
      <trkpt lat="43.602590" lon="6.776700">
       <ele>183.22</ele>
       <time>2014-11-03T20:03:49Z</time>
      </trkpt>
      <trkpt lat="43.602010" lon="6.778290">
       <ele>181.99</ele>
       <time>2014-11-03T20:04:16Z</time>
      </trkpt>
      <trkpt lat="43.602030" lon="6.778290">
       <ele>181.99</ele>
       <time>2014-11-03T20:04:17Z</time>
      </trkpt>
      <trkpt lat="43.602110" lon="6.778390">
       <ele>182.2</ele>
       <time>2014-11-03T20:04:19Z</time>
      </trkpt>
      <trkpt lat="43.602130" lon="6.778450">
       <ele>182.42</ele>
       <time>2014-11-03T20:04:20Z</time>
      </trkpt>
      <trkpt lat="43.602120" lon="6.778610">
       <ele>183</ele>
       <time>2014-11-03T20:04:22Z</time>
      </trkpt>
      <trkpt lat="43.602090" lon="6.778670">
       <ele>183.21</ele>
       <time>2014-11-03T20:04:23Z</time>
      </trkpt>
      <trkpt lat="43.602010" lon="6.778730">
       <ele>183.43</ele>
       <time>2014-11-03T20:04:25Z</time>
      </trkpt>
      <trkpt lat="43.601950" lon="6.778740">
       <ele>183.46</ele>
       <time>2014-11-03T20:04:26Z</time>
      </trkpt>
      <trkpt lat="43.601880" lon="6.778710">
       <ele>183.36</ele>
       <time>2014-11-03T20:04:28Z</time>
      </trkpt>
      <trkpt lat="43.599520" lon="6.784990">
       <ele>195.83</ele>
       <time>2014-11-03T20:06:14Z</time>
      </trkpt>
      <trkpt lat="43.599490" lon="6.785150">
       <ele>196.54</ele>
       <time>2014-11-03T20:06:17Z</time>
      </trkpt>
      <trkpt lat="43.599380" lon="6.785460">
       <ele>197.99</ele>
       <time>2014-11-03T20:06:22Z</time>
      </trkpt>
      <trkpt lat="43.599340" lon="6.785680">
       <ele>199.15</ele>
       <time>2014-11-03T20:06:25Z</time>
      </trkpt>
      <trkpt lat="43.599340" lon="6.785760">
       <ele>199.6</ele>
       <time>2014-11-03T20:06:26Z</time>
      </trkpt>
      <trkpt lat="43.599400" lon="6.785910">
       <ele>200.69</ele>
       <time>2014-11-03T20:06:29Z</time>
      </trkpt>
      <trkpt lat="43.599400" lon="6.786080">
       <ele>202.2</ele>
       <time>2014-11-03T20:06:32Z</time>
      </trkpt>
      <trkpt lat="43.599370" lon="6.786180">
       <ele>203.13</ele>
       <time>2014-11-03T20:06:33Z</time>
      </trkpt>
      <trkpt lat="43.599330" lon="6.786260">
       <ele>203.9</ele>
       <time>2014-11-03T20:06:35Z</time>
      </trkpt>
      <trkpt lat="43.599260" lon="6.786320">
       <ele>204.55</ele>
       <time>2014-11-03T20:06:36Z</time>
      </trkpt>
      <trkpt lat="43.599180" lon="6.786360">
       <ele>205.04</ele>
       <time>2014-11-03T20:06:38Z</time>
      </trkpt>
      <trkpt lat="43.599120" lon="6.786360">
       <ele>205.09</ele>
       <time>2014-11-03T20:06:39Z</time>
      </trkpt>
      <trkpt lat="43.598990" lon="6.786560">
       <ele>207.16</ele>
       <time>2014-11-03T20:06:43Z</time>
      </trkpt>
      <trkpt lat="43.598400" lon="6.788230">
       <ele>225.08</ele>
       <time>2014-11-03T20:07:11Z</time>
      </trkpt>
      <trkpt lat="43.598340" lon="6.788370">
       <ele>226.16</ele>
       <time>2014-11-03T20:07:14Z</time>
      </trkpt>
      <trkpt lat="43.598250" lon="6.788510">
       <ele>226.67</ele>
       <time>2014-11-03T20:07:17Z</time>
      </trkpt>
      <trkpt lat="43.597790" lon="6.789400">
       <ele>230.02</ele>
       <time>2014-11-03T20:07:33Z</time>
      </trkpt>
      <trkpt lat="43.597510" lon="6.790110">
       <ele>230.87</ele>
       <time>2014-11-03T20:07:45Z</time>
      </trkpt>
      <trkpt lat="43.597160" lon="6.791370">
       <ele>234.16</ele>
       <time>2014-11-03T20:08:05Z</time>
      </trkpt>
      <trkpt lat="43.597140" lon="6.791590">
       <ele>234.97</ele>
       <time>2014-11-03T20:08:09Z</time>
      </trkpt>
      <trkpt lat="43.597170" lon="6.793270">
       <ele>243.23</ele>
       <time>2014-11-03T20:08:34Z</time>
      </trkpt>
      <trkpt lat="43.597160" lon="6.793630">
       <ele>246.46</ele>
       <time>2014-11-03T20:08:39Z</time>
      </trkpt>
      <trkpt lat="43.597070" lon="6.794140">
       <ele>249.88</ele>
       <time>2014-11-03T20:08:47Z</time>
      </trkpt>
      <trkpt lat="43.597020" lon="6.794330">
       <ele>251.39</ele>
       <time>2014-11-03T20:08:50Z</time>
      </trkpt>
      <trkpt lat="43.596690" lon="6.795070">
       <ele>254.07</ele>
       <time>2014-11-03T20:09:03Z</time>
      </trkpt>
      <trkpt lat="43.596640" lon="6.795240">
       <ele>254.43</ele>
       <time>2014-11-03T20:09:06Z</time>
      </trkpt>
      <trkpt lat="43.596510" lon="6.795880">
       <ele>256.78</ele>
       <time>2014-11-03T20:09:16Z</time>
      </trkpt>
      <trkpt lat="43.596490" lon="6.796250">
       <ele>256.55</ele>
       <time>2014-11-03T20:09:22Z</time>
      </trkpt>
      <trkpt lat="43.596510" lon="6.796490">
       <ele>256.92</ele>
       <time>2014-11-03T20:09:25Z</time>
      </trkpt>
      <trkpt lat="43.596580" lon="6.796790">
       <ele>257.4</ele>
       <time>2014-11-03T20:09:30Z</time>
      </trkpt>
      <trkpt lat="43.597390" lon="6.799100">
       <ele>259.95</ele>
       <time>2014-11-03T20:10:09Z</time>
      </trkpt>
      <trkpt lat="43.597570" lon="6.799680">
       <ele>258.69</ele>
       <time>2014-11-03T20:10:18Z</time>
      </trkpt>
      <trkpt lat="43.597750" lon="6.800100">
       <ele>257.46</ele>
       <time>2014-11-03T20:10:25Z</time>
      </trkpt>
      <trkpt lat="43.598720" lon="6.801710">
       <ele>257.58</ele>
       <time>2014-11-03T20:10:57Z</time>
      </trkpt>
      <trkpt lat="43.598900" lon="6.801930">
       <ele>257.92</ele>
       <time>2014-11-03T20:11:02Z</time>
      </trkpt>
      <trkpt lat="43.599510" lon="6.802490">
       <ele>258.24</ele>
       <time>2014-11-03T20:11:17Z</time>
      </trkpt>
      <trkpt lat="43.599840" lon="6.802850">
       <ele>257.85</ele>
       <time>2014-11-03T20:11:26Z</time>
      </trkpt>
      <trkpt lat="43.600000" lon="6.803090">
       <ele>256.2</ele>
       <time>2014-11-03T20:11:31Z</time>
      </trkpt>
      <trkpt lat="43.600580" lon="6.804100">
       <ele>253.68</ele>
       <time>2014-11-03T20:11:50Z</time>
      </trkpt>
      <trkpt lat="43.600760" lon="6.804360">
       <ele>253.14</ele>
       <time>2014-11-03T20:11:55Z</time>
      </trkpt>
      <trkpt lat="43.601010" lon="6.804660">
       <ele>252.65</ele>
       <time>2014-11-03T20:12:02Z</time>
      </trkpt>
      <trkpt lat="43.601650" lon="6.805320">
       <ele>249.87</ele>
       <time>2014-11-03T20:12:19Z</time>
      </trkpt>
      <trkpt lat="43.601770" lon="6.805410">
       <ele>249.65</ele>
       <time>2014-11-03T20:12:22Z</time>
      </trkpt>
      <trkpt lat="43.602330" lon="6.805750">
       <ele>248.47</ele>
       <time>2014-11-03T20:12:34Z</time>
      </trkpt>
      <trkpt lat="43.602560" lon="6.805910">
       <ele>247.5</ele>
       <time>2014-11-03T20:12:40Z</time>
      </trkpt>
      <trkpt lat="43.603200" lon="6.806600">
       <ele>243.83</ele>
       <time>2014-11-03T20:12:56Z</time>
      </trkpt>
      <trkpt lat="43.603350" lon="6.806700">
       <ele>243.58</ele>
       <time>2014-11-03T20:13:00Z</time>
      </trkpt>
      <trkpt lat="43.603570" lon="6.806820">
       <ele>242.26</ele>
       <time>2014-11-03T20:13:05Z</time>
      </trkpt>
      <trkpt lat="43.604840" lon="6.807290">
       <ele>241.82</ele>
       <time>2014-11-03T20:13:32Z</time>
      </trkpt>
      <trkpt lat="43.605200" lon="6.807450">
       <ele>242.49</ele>
       <time>2014-11-03T20:13:40Z</time>
      </trkpt>
      <trkpt lat="43.605410" lon="6.807570">
       <ele>242.89</ele>
       <time>2014-11-03T20:13:45Z</time>
      </trkpt>
      <trkpt lat="43.605570" lon="6.807700">
       <ele>242.72</ele>
       <time>2014-11-03T20:13:48Z</time>
      </trkpt>
      <trkpt lat="43.605830" lon="6.807950">
       <ele>241.42</ele>
       <time>2014-11-03T20:13:55Z</time>
      </trkpt>
      <trkpt lat="43.606020" lon="6.808220">
       <ele>239.97</ele>
       <time>2014-11-03T20:14:01Z</time>
      </trkpt>
      <trkpt lat="43.606260" lon="6.808640">
       <ele>237.21</ele>
       <time>2014-11-03T20:14:09Z</time>
      </trkpt>
      <trkpt lat="43.606420" lon="6.808870">
       <ele>236.14</ele>
       <time>2014-11-03T20:14:14Z</time>
      </trkpt>
      <trkpt lat="43.606590" lon="6.809070">
       <ele>235.48</ele>
       <time>2014-11-03T20:14:18Z</time>
      </trkpt>
      <trkpt lat="43.606930" lon="6.809390">
       <ele>232.43</ele>
       <time>2014-11-03T20:14:27Z</time>
      </trkpt>
      <trkpt lat="43.607170" lon="6.809580">
       <ele>230.18</ele>
       <time>2014-11-03T20:14:32Z</time>
      </trkpt>
      <trkpt lat="43.607450" lon="6.809760">
       <ele>228.12</ele>
       <time>2014-11-03T20:14:39Z</time>
      </trkpt>
      <trkpt lat="43.608540" lon="6.810250">
       <ele>228.03</ele>
       <time>2014-11-03T20:15:03Z</time>
      </trkpt>
      <trkpt lat="43.608740" lon="6.810390">
       <ele>227.86</ele>
       <time>2014-11-03T20:15:07Z</time>
      </trkpt>
      <trkpt lat="43.608880" lon="6.810540">
       <ele>226.82</ele>
       <time>2014-11-03T20:15:11Z</time>
      </trkpt>
      <trkpt lat="43.609010" lon="6.810750">
       <ele>224.69</ele>
       <time>2014-11-03T20:15:15Z</time>
      </trkpt>
      <trkpt lat="43.609080" lon="6.810940">
       <ele>222.84</ele>
       <time>2014-11-03T20:15:18Z</time>
      </trkpt>
      <trkpt lat="43.609170" lon="6.811300">
       <ele>220.02</ele>
       <time>2014-11-03T20:15:24Z</time>
      </trkpt>
      <trkpt lat="43.609190" lon="6.811430">
       <ele>219.2</ele>
       <time>2014-11-03T20:15:26Z</time>
      </trkpt>
      <trkpt lat="43.609200" lon="6.811740">
       <ele>216.68</ele>
       <time>2014-11-03T20:15:31Z</time>
      </trkpt>
      <trkpt lat="43.609120" lon="6.812540">
       <ele>212.39</ele>
       <time>2014-11-03T20:15:43Z</time>
      </trkpt>
      <trkpt lat="43.609140" lon="6.812710">
       <ele>211.07</ele>
       <time>2014-11-03T20:15:45Z</time>
      </trkpt>
      <trkpt lat="43.609180" lon="6.812860">
       <ele>210.4</ele>
       <time>2014-11-03T20:15:48Z</time>
      </trkpt>
      <trkpt lat="43.609320" lon="6.813160">
       <ele>209.82</ele>
       <time>2014-11-03T20:15:53Z</time>
      </trkpt>
      <trkpt lat="43.609520" lon="6.813470">
       <ele>209.3</ele>
       <time>2014-11-03T20:15:59Z</time>
      </trkpt>
      <trkpt lat="43.609690" lon="6.813680">
       <ele>208.71</ele>
       <time>2014-11-03T20:16:04Z</time>
      </trkpt>
      <trkpt lat="43.611210" lon="6.815140">
       <ele>196.24</ele>
       <time>2014-11-03T20:16:42Z</time>
      </trkpt>
      <trkpt lat="43.611390" lon="6.815330">
       <ele>196.09</ele>
       <time>2014-11-03T20:16:47Z</time>
      </trkpt>
      <trkpt lat="43.611540" lon="6.815550">
       <ele>195.75</ele>
       <time>2014-11-03T20:16:52Z</time>
      </trkpt>
      <trkpt lat="43.611710" lon="6.815870">
       <ele>194.97</ele>
       <time>2014-11-03T20:16:58Z</time>
      </trkpt>
      <trkpt lat="43.611830" lon="6.816200">
       <ele>194.08</ele>
       <time>2014-11-03T20:17:03Z</time>
      </trkpt>
      <trkpt lat="43.611930" lon="6.816610">
       <ele>192.84</ele>
       <time>2014-11-03T20:17:10Z</time>
      </trkpt>
      <trkpt lat="43.612100" lon="6.817730">
       <ele>184.87</ele>
       <time>2014-11-03T20:17:27Z</time>
      </trkpt>
      <trkpt lat="43.612200" lon="6.818180">
       <ele>184</ele>
       <time>2014-11-03T20:17:34Z</time>
      </trkpt>
      <trkpt lat="43.612300" lon="6.818480">
       <ele>183.73</ele>
       <time>2014-11-03T20:17:39Z</time>
      </trkpt>
      <trkpt lat="43.612440" lon="6.818820">
       <ele>183.58</ele>
       <time>2014-11-03T20:17:45Z</time>
      </trkpt>
      <trkpt lat="43.612620" lon="6.819150">
       <ele>182.32</ele>
       <time>2014-11-03T20:17:51Z</time>
      </trkpt>
      <trkpt lat="43.612800" lon="6.819420">
       <ele>181.2</ele>
       <time>2014-11-03T20:17:56Z</time>
      </trkpt>
      <trkpt lat="43.612970" lon="6.819610">
       <ele>180.19</ele>
       <time>2014-11-03T20:18:01Z</time>
      </trkpt>
      <trkpt lat="43.613580" lon="6.820190">
       <ele>177.08</ele>
       <time>2014-11-03T20:18:16Z</time>
      </trkpt>
      <trkpt lat="43.613680" lon="6.820300">
       <ele>176.69</ele>
       <time>2014-11-03T20:18:19Z</time>
      </trkpt>
      <trkpt lat="43.614020" lon="6.820760">
       <ele>175.1</ele>
       <time>2014-11-03T20:18:29Z</time>
      </trkpt>
      <trkpt lat="43.614140" lon="6.820860">
       <ele>174.51</ele>
       <time>2014-11-03T20:18:32Z</time>
      </trkpt>
      <trkpt lat="43.614260" lon="6.820910">
       <ele>174.62</ele>
       <time>2014-11-03T20:18:34Z</time>
      </trkpt>
      <trkpt lat="43.614630" lon="6.821020">
       <ele>174.33</ele>
       <time>2014-11-03T20:18:42Z</time>
      </trkpt>
      <trkpt lat="43.616020" lon="6.821520">
       <ele>169.54</ele>
       <time>2014-11-03T20:19:12Z</time>
      </trkpt>
      <trkpt lat="43.616220" lon="6.821640">
       <ele>169.19</ele>
       <time>2014-11-03T20:19:17Z</time>
      </trkpt>
      <trkpt lat="43.616780" lon="6.822230">
       <ele>165.05</ele>
       <time>2014-11-03T20:19:31Z</time>
      </trkpt>
      <trkpt lat="43.616960" lon="6.822340">
       <ele>164</ele>
       <time>2014-11-03T20:19:35Z</time>
      </trkpt>
      <trkpt lat="43.617450" lon="6.822460">
       <ele>162.83</ele>
       <time>2014-11-03T20:19:46Z</time>
      </trkpt>
      <trkpt lat="43.617550" lon="6.822510">
       <ele>162.61</ele>
       <time>2014-11-03T20:19:48Z</time>
      </trkpt>
      <trkpt lat="43.617710" lon="6.822640">
       <ele>162.67</ele>
       <time>2014-11-03T20:19:52Z</time>
      </trkpt>
      <trkpt lat="43.618150" lon="6.823130">
       <ele>158</ele>
       <time>2014-11-03T20:20:03Z</time>
      </trkpt>
      <trkpt lat="43.618710" lon="6.823560">
       <ele>152.86</ele>
       <time>2014-11-03T20:20:17Z</time>
      </trkpt>
      <trkpt lat="43.619060" lon="6.823770">
       <ele>150.02</ele>
       <time>2014-11-03T20:20:25Z</time>
      </trkpt>
      <trkpt lat="43.619210" lon="6.823820">
       <ele>149.6</ele>
       <time>2014-11-03T20:20:28Z</time>
      </trkpt>
      <trkpt lat="43.619500" lon="6.823830">
       <ele>151.31</ele>
       <time>2014-11-03T20:20:34Z</time>
      </trkpt>
      <trkpt lat="43.619750" lon="6.823860">
       <ele>152.31</ele>
       <time>2014-11-03T20:20:39Z</time>
      </trkpt>
      <trkpt lat="43.619940" lon="6.823950">
       <ele>151.54</ele>
       <time>2014-11-03T20:20:43Z</time>
      </trkpt>
      <trkpt lat="43.620120" lon="6.824070">
       <ele>148.99</ele>
       <time>2014-11-03T20:20:47Z</time>
      </trkpt>
      <trkpt lat="43.620350" lon="6.824170">
       <ele>146.48</ele>
       <time>2014-11-03T20:20:52Z</time>
      </trkpt>
      <trkpt lat="43.620620" lon="6.824200">
       <ele>145.27</ele>
       <time>2014-11-03T20:20:58Z</time>
      </trkpt>
      <trkpt lat="43.620870" lon="6.824180">
       <ele>145.22</ele>
       <time>2014-11-03T20:21:03Z</time>
      </trkpt>
      <trkpt lat="43.621190" lon="6.824130">
       <ele>142.76</ele>
       <time>2014-11-03T20:21:10Z</time>
      </trkpt>
      <trkpt lat="43.621340" lon="6.824080">
       <ele>141.88</ele>
       <time>2014-11-03T20:21:13Z</time>
      </trkpt>
      <trkpt lat="43.621590" lon="6.823960">
       <ele>140.88</ele>
       <time>2014-11-03T20:21:18Z</time>
      </trkpt>
      <trkpt lat="43.621840" lon="6.823830">
       <ele>138.87</ele>
       <time>2014-11-03T20:21:24Z</time>
      </trkpt>
      <trkpt lat="43.621990" lon="6.823720">
       <ele>138.29</ele>
       <time>2014-11-03T20:21:27Z</time>
      </trkpt>
      <trkpt lat="43.622500" lon="6.823230">
       <ele>141.57</ele>
       <time>2014-11-03T20:21:40Z</time>
      </trkpt>
      <trkpt lat="43.623210" lon="6.822770">
       <ele>134.7</ele>
       <time>2014-11-03T20:21:57Z</time>
      </trkpt>
      <trkpt lat="43.623340" lon="6.822670">
       <ele>133.77</ele>
       <time>2014-11-03T20:22:00Z</time>
      </trkpt>
      <trkpt lat="43.623730" lon="6.822230">
       <ele>137.56</ele>
       <time>2014-11-03T20:22:10Z</time>
      </trkpt>
      <trkpt lat="43.623850" lon="6.822120">
       <ele>137.97</ele>
       <time>2014-11-03T20:22:13Z</time>
      </trkpt>
      <trkpt lat="43.623990" lon="6.822100">
       <ele>135.48</ele>
       <time>2014-11-03T20:22:16Z</time>
      </trkpt>
      <trkpt lat="43.624250" lon="6.822120">
       <ele>128.6</ele>
       <time>2014-11-03T20:22:21Z</time>
      </trkpt>
      <trkpt lat="43.624340" lon="6.822080">
       <ele>126.77</ele>
       <time>2014-11-03T20:22:23Z</time>
      </trkpt>
      <trkpt lat="43.624420" lon="6.821940">
       <ele>127.14</ele>
       <time>2014-11-03T20:22:26Z</time>
      </trkpt>
      <trkpt lat="43.624830" lon="6.820980">
       <ele>132.99</ele>
       <time>2014-11-03T20:22:43Z</time>
      </trkpt>
      <trkpt lat="43.624990" lon="6.820800">
       <ele>130.35</ele>
       <time>2014-11-03T20:22:47Z</time>
      </trkpt>
      <trkpt lat="43.625400" lon="6.820520">
       <ele>124.52</ele>
       <time>2014-11-03T20:22:57Z</time>
      </trkpt>
      <trkpt lat="43.625550" lon="6.820400">
       <ele>121.99</ele>
       <time>2014-11-03T20:23:00Z</time>
      </trkpt>
      <trkpt lat="43.625630" lon="6.820300">
       <ele>120.99</ele>
       <time>2014-11-03T20:23:02Z</time>
      </trkpt>
      <trkpt lat="43.625700" lon="6.820140">
       <ele>120.94</ele>
       <time>2014-11-03T20:23:05Z</time>
      </trkpt>
      <trkpt lat="43.625910" lon="6.819460">
       <ele>126.1</ele>
       <time>2014-11-03T20:23:16Z</time>
      </trkpt>
      <trkpt lat="43.625980" lon="6.819280">
       <ele>127.04</ele>
       <time>2014-11-03T20:23:19Z</time>
      </trkpt>
      <trkpt lat="43.626050" lon="6.819160">
       <ele>126.59</ele>
       <time>2014-11-03T20:23:22Z</time>
      </trkpt>
      <trkpt lat="43.626240" lon="6.818940">
       <ele>122.99</ele>
       <time>2014-11-03T20:23:27Z</time>
      </trkpt>
      <trkpt lat="43.626580" lon="6.818650">
       <ele>114.44</ele>
       <time>2014-11-03T20:23:35Z</time>
      </trkpt>
      <trkpt lat="43.627650" lon="6.817330">
       <ele>110.62</ele>
       <time>2014-11-03T20:24:05Z</time>
      </trkpt>
      <trkpt lat="43.627770" lon="6.817280">
       <ele>109.69</ele>
       <time>2014-11-03T20:24:07Z</time>
      </trkpt>
      <trkpt lat="43.627850" lon="6.817300">
       <ele>108.32</ele>
       <time>2014-11-03T20:24:09Z</time>
      </trkpt>
      <trkpt lat="43.627900" lon="6.817340">
       <ele>107.16</ele>
       <time>2014-11-03T20:24:10Z</time>
      </trkpt>
      <trkpt lat="43.628240" lon="6.817940">
       <ele>105.28</ele>
       <time>2014-11-03T20:24:22Z</time>
      </trkpt>
      <trkpt lat="43.628270" lon="6.818140">
       <ele>107.33</ele>
       <time>2014-11-03T20:24:25Z</time>
      </trkpt>
      <trkpt lat="43.628240" lon="6.818300">
       <ele>108.66</ele>
       <time>2014-11-03T20:24:27Z</time>
      </trkpt>
      <trkpt lat="43.628170" lon="6.818420">
       <ele>110.22</ele>
       <time>2014-11-03T20:24:30Z</time>
      </trkpt>
      <trkpt lat="43.627800" lon="6.818790">
       <ele>111.03</ele>
       <time>2014-11-03T20:24:39Z</time>
      </trkpt>
      <trkpt lat="43.627550" lon="6.819090">
       <ele>108.66</ele>
       <time>2014-11-03T20:24:46Z</time>
      </trkpt>
      <trkpt lat="43.627430" lon="6.819320">
       <ele>111.09</ele>
       <time>2014-11-03T20:24:50Z</time>
      </trkpt>
      <trkpt lat="43.627290" lon="6.819650">
       <ele>115.61</ele>
       <time>2014-11-03T20:24:56Z</time>
      </trkpt>
      <trkpt lat="43.627130" lon="6.820210">
       <ele>121.2</ele>
       <time>2014-11-03T20:25:05Z</time>
      </trkpt>
      <trkpt lat="43.626960" lon="6.820460">
       <ele>120.88</ele>
       <time>2014-11-03T20:25:10Z</time>
      </trkpt>
      <trkpt lat="43.626760" lon="6.820640">
       <ele>117.62</ele>
       <time>2014-11-03T20:25:15Z</time>
      </trkpt>
      <trkpt lat="43.626680" lon="6.820750">
       <ele>116.91</ele>
       <time>2014-11-03T20:25:17Z</time>
      </trkpt>
      <trkpt lat="43.626580" lon="6.821010">
       <ele>120.12</ele>
       <time>2014-11-03T20:25:22Z</time>
      </trkpt>
      <trkpt lat="43.626540" lon="6.821290">
       <ele>124.42</ele>
       <time>2014-11-03T20:25:26Z</time>
      </trkpt>
      <trkpt lat="43.626480" lon="6.821430">
       <ele>125.31</ele>
       <time>2014-11-03T20:25:29Z</time>
      </trkpt>
      <trkpt lat="43.626230" lon="6.821800">
       <ele>123.41</ele>
       <time>2014-11-03T20:25:36Z</time>
      </trkpt>
      <trkpt lat="43.626120" lon="6.822000">
       <ele>123.19</ele>
       <time>2014-11-03T20:25:40Z</time>
      </trkpt>
      <trkpt lat="43.625940" lon="6.822520">
       <ele>125.61</ele>
       <time>2014-11-03T20:25:49Z</time>
      </trkpt>
      <trkpt lat="43.625540" lon="6.823780">
       <ele>131.77</ele>
       <time>2014-11-03T20:26:09Z</time>
      </trkpt>
      <trkpt lat="43.625330" lon="6.824460">
       <ele>133.49</ele>
       <time>2014-11-03T20:26:20Z</time>
      </trkpt>
      <trkpt lat="43.625230" lon="6.824870">
       <ele>135.63</ele>
       <time>2014-11-03T20:26:27Z</time>
      </trkpt>
      <trkpt lat="43.625200" lon="6.825120">
       <ele>137.48</ele>
       <time>2014-11-03T20:26:31Z</time>
      </trkpt>
      <trkpt lat="43.625180" lon="6.825570">
       <ele>140.84</ele>
       <time>2014-11-03T20:26:37Z</time>
      </trkpt>
      <trkpt lat="43.625140" lon="6.825820">
       <ele>141.94</ele>
       <time>2014-11-03T20:26:41Z</time>
      </trkpt>
      <trkpt lat="43.624900" lon="6.826580">
       <ele>147.26</ele>
       <time>2014-11-03T20:26:54Z</time>
      </trkpt>
      <trkpt lat="43.624850" lon="6.826800">
       <ele>147.77</ele>
       <time>2014-11-03T20:26:57Z</time>
      </trkpt>
      <trkpt lat="43.624830" lon="6.827030">
       <ele>148.32</ele>
       <time>2014-11-03T20:27:01Z</time>
      </trkpt>
      <trkpt lat="43.624830" lon="6.827330">
       <ele>150.05</ele>
       <time>2014-11-03T20:27:05Z</time>
      </trkpt>
      <trkpt lat="43.624850" lon="6.828040">
       <ele>152.47</ele>
       <time>2014-11-03T20:27:16Z</time>
      </trkpt>
      <trkpt lat="43.624890" lon="6.828510">
       <ele>153.94</ele>
       <time>2014-11-03T20:27:23Z</time>
      </trkpt>
      <trkpt lat="43.624990" lon="6.829450">
       <ele>156.28</ele>
       <time>2014-11-03T20:27:37Z</time>
      </trkpt>
      <trkpt lat="43.625190" lon="6.831660">
       <ele>164.8</ele>
       <time>2014-11-03T20:28:11Z</time>
      </trkpt>
      <trkpt lat="43.625260" lon="6.832040">
       <ele>165.5</ele>
       <time>2014-11-03T20:28:16Z</time>
      </trkpt>
      <trkpt lat="43.625420" lon="6.832400">
       <ele>168.37</ele>
       <time>2014-11-03T20:28:23Z</time>
      </trkpt>
      <trkpt lat="43.625500" lon="6.832640">
       <ele>169.52</ele>
       <time>2014-11-03T20:28:27Z</time>
      </trkpt>
      <trkpt lat="43.625590" lon="6.833150">
       <ele>169.75</ele>
       <time>2014-11-03T20:28:35Z</time>
      </trkpt>
      <trkpt lat="43.625670" lon="6.833440">
       <ele>169.83</ele>
       <time>2014-11-03T20:28:39Z</time>
      </trkpt>
      <trkpt lat="43.626710" lon="6.835090">
       <ele>179.08</ele>
       <time>2014-11-03T20:29:12Z</time>
      </trkpt>
      <trkpt lat="43.627100" lon="6.835580">
       <ele>181.9</ele>
       <time>2014-11-03T20:29:23Z</time>
      </trkpt>
      <trkpt lat="43.627740" lon="6.836320">
       <ele>185.76</ele>
       <time>2014-11-03T20:29:40Z</time>
      </trkpt>
      <trkpt lat="43.627970" lon="6.836460">
       <ele>188.56</ele>
       <time>2014-11-03T20:29:46Z</time>
      </trkpt>
      <trkpt lat="43.628210" lon="6.836520">
       <ele>192.23</ele>
       <time>2014-11-03T20:29:51Z</time>
      </trkpt>
      <trkpt lat="43.628470" lon="6.836620">
       <ele>194.83</ele>
       <time>2014-11-03T20:29:56Z</time>
      </trkpt>
      <trkpt lat="43.628550" lon="6.836680">
       <ele>195</ele>
       <time>2014-11-03T20:29:58Z</time>
      </trkpt>
      <trkpt lat="43.628700" lon="6.836840">
       <ele>195.5</ele>
       <time>2014-11-03T20:30:02Z</time>
      </trkpt>
      <trkpt lat="43.629070" lon="6.837370">
       <ele>195.76</ele>
       <time>2014-11-03T20:30:13Z</time>
      </trkpt>
      <trkpt lat="43.629130" lon="6.837510">
       <ele>195.42</ele>
       <time>2014-11-03T20:30:16Z</time>
      </trkpt>
      <trkpt lat="43.629200" lon="6.837830">
       <ele>195.76</ele>
       <time>2014-11-03T20:30:21Z</time>
      </trkpt>
      <trkpt lat="43.629270" lon="6.838010">
       <ele>196.39</ele>
       <time>2014-11-03T20:30:24Z</time>
      </trkpt>
      <trkpt lat="43.629430" lon="6.838280">
       <ele>197.96</ele>
       <time>2014-11-03T20:30:29Z</time>
      </trkpt>
      <trkpt lat="43.629520" lon="6.838380">
       <ele>198.7</ele>
       <time>2014-11-03T20:30:31Z</time>
      </trkpt>
      <trkpt lat="43.629630" lon="6.838450">
       <ele>199.71</ele>
       <time>2014-11-03T20:30:34Z</time>
      </trkpt>
      <trkpt lat="43.629730" lon="6.838480">
       <ele>200.88</ele>
       <time>2014-11-03T20:30:36Z</time>
      </trkpt>
      <trkpt lat="43.630100" lon="6.838450">
       <ele>205.83</ele>
       <time>2014-11-03T20:30:44Z</time>
      </trkpt>
      <trkpt lat="43.630320" lon="6.838460">
       <ele>207.52</ele>
       <time>2014-11-03T20:30:48Z</time>
      </trkpt>
      <trkpt lat="43.630530" lon="6.838510">
       <ele>208.71</ele>
       <time>2014-11-03T20:30:53Z</time>
      </trkpt>
      <trkpt lat="43.630610" lon="6.838550">
       <ele>208.93</ele>
       <time>2014-11-03T20:30:54Z</time>
      </trkpt>
      <trkpt lat="43.630730" lon="6.838620">
       <ele>209.12</ele>
       <time>2014-11-03T20:30:57Z</time>
      </trkpt>
      <trkpt lat="43.631620" lon="6.839310">
       <ele>213.33</ele>
       <time>2014-11-03T20:31:18Z</time>
      </trkpt>
      <trkpt lat="43.632080" lon="6.839690">
       <ele>220.6</ele>
       <time>2014-11-03T20:31:29Z</time>
      </trkpt>
      <trkpt lat="43.632170" lon="6.839860">
       <ele>221.82</ele>
       <time>2014-11-03T20:31:32Z</time>
      </trkpt>
      <trkpt lat="43.632190" lon="6.840050">
       <ele>221.67</ele>
       <time>2014-11-03T20:31:35Z</time>
      </trkpt>
      <trkpt lat="43.632140" lon="6.840490">
       <ele>221.4</ele>
       <time>2014-11-03T20:31:42Z</time>
      </trkpt>
      <trkpt lat="43.632170" lon="6.840730">
       <ele>222.5</ele>
       <time>2014-11-03T20:31:46Z</time>
      </trkpt>
      <trkpt lat="43.632240" lon="6.840920">
       <ele>224.86</ele>
       <time>2014-11-03T20:31:49Z</time>
      </trkpt>
      <trkpt lat="43.632340" lon="6.841050">
       <ele>227.72</ele>
       <time>2014-11-03T20:31:52Z</time>
      </trkpt>
      <trkpt lat="43.632530" lon="6.841200">
       <ele>231.77</ele>
       <time>2014-11-03T20:31:56Z</time>
      </trkpt>
      <trkpt lat="43.632830" lon="6.841360">
       <ele>237.5</ele>
       <time>2014-11-03T20:32:03Z</time>
      </trkpt>
      <trkpt lat="43.632890" lon="6.841490">
       <ele>238.33</ele>
       <time>2014-11-03T20:32:05Z</time>
      </trkpt>
      <trkpt lat="43.632880" lon="6.841660">
       <ele>238.12</ele>
       <time>2014-11-03T20:32:08Z</time>
      </trkpt>
      <trkpt lat="43.632800" lon="6.841780">
       <ele>239.29</ele>
       <time>2014-11-03T20:32:10Z</time>
      </trkpt>
      <trkpt lat="43.632720" lon="6.841790">
       <ele>238.61</ele>
       <time>2014-11-03T20:32:12Z</time>
      </trkpt>
      <trkpt lat="43.632500" lon="6.841710">
       <ele>234.78</ele>
       <time>2014-11-03T20:32:17Z</time>
      </trkpt>
      <trkpt lat="43.632340" lon="6.841690">
       <ele>233.27</ele>
       <time>2014-11-03T20:32:20Z</time>
      </trkpt>
      <trkpt lat="43.632250" lon="6.841700">
       <ele>232.83</ele>
       <time>2014-11-03T20:32:22Z</time>
      </trkpt>
      <trkpt lat="43.632140" lon="6.841740">
       <ele>232.78</ele>
       <time>2014-11-03T20:32:24Z</time>
      </trkpt>
      <trkpt lat="43.631980" lon="6.841830">
       <ele>233.32</ele>
       <time>2014-11-03T20:32:28Z</time>
      </trkpt>
      <trkpt lat="43.631830" lon="6.841950">
       <ele>234.54</ele>
       <time>2014-11-03T20:32:31Z</time>
      </trkpt>
      <trkpt lat="43.631700" lon="6.842070">
       <ele>235.96</ele>
       <time>2014-11-03T20:32:35Z</time>
      </trkpt>
      <trkpt lat="43.631560" lon="6.842250">
       <ele>238.89</ele>
       <time>2014-11-03T20:32:39Z</time>
      </trkpt>
      <trkpt lat="43.631530" lon="6.842330">
       <ele>240.31</ele>
       <time>2014-11-03T20:32:40Z</time>
      </trkpt>
      <trkpt lat="43.631490" lon="6.842660">
       <ele>243.94</ele>
       <time>2014-11-03T20:32:45Z</time>
      </trkpt>
      <trkpt lat="43.631550" lon="6.843060">
       <ele>245.6</ele>
       <time>2014-11-03T20:32:51Z</time>
      </trkpt>
      <trkpt lat="43.631670" lon="6.843430">
       <ele>246.62</ele>
       <time>2014-11-03T20:32:57Z</time>
      </trkpt>
      <trkpt lat="43.631670" lon="6.843510">
       <ele>246.23</ele>
       <time>2014-11-03T20:32:58Z</time>
      </trkpt>
      <trkpt lat="43.631620" lon="6.843600">
       <ele>245.53</ele>
       <time>2014-11-03T20:33:00Z</time>
      </trkpt>
      <trkpt lat="43.631610" lon="6.843720">
       <ele>244.91</ele>
       <time>2014-11-03T20:33:02Z</time>
      </trkpt>
      <trkpt lat="43.631610" lon="6.843810">
       <ele>244.47</ele>
       <time>2014-11-03T20:33:03Z</time>
      </trkpt>
      <trkpt lat="43.631650" lon="6.844060">
       <ele>243.43</ele>
       <time>2014-11-03T20:33:07Z</time>
      </trkpt>
      <trkpt lat="43.631750" lon="6.844350">
       <ele>242.31</ele>
       <time>2014-11-03T20:33:12Z</time>
      </trkpt>
      <trkpt lat="43.631820" lon="6.844480">
       <ele>241.86</ele>
       <time>2014-11-03T20:33:14Z</time>
      </trkpt>
      <trkpt lat="43.631890" lon="6.844570">
       <ele>241.69</ele>
       <time>2014-11-03T20:33:16Z</time>
      </trkpt>
      <trkpt lat="43.632490" lon="6.845030">
       <ele>241.69</ele>
       <time>2014-11-03T20:33:31Z</time>
      </trkpt>
      <trkpt lat="43.632670" lon="6.845210">
       <ele>242.19</ele>
       <time>2014-11-03T20:33:35Z</time>
      </trkpt>
      <trkpt lat="43.632800" lon="6.845380">
       <ele>242.62</ele>
       <time>2014-11-03T20:33:39Z</time>
      </trkpt>
      <trkpt lat="43.632910" lon="6.845640">
       <ele>242.75</ele>
       <time>2014-11-03T20:33:43Z</time>
      </trkpt>
      <trkpt lat="43.632970" lon="6.845870">
       <ele>242.83</ele>
       <time>2014-11-03T20:33:47Z</time>
      </trkpt>
      <trkpt lat="43.632990" lon="6.846080">
       <ele>243.61</ele>
       <time>2014-11-03T20:33:50Z</time>
      </trkpt>
      <trkpt lat="43.632990" lon="6.846390">
       <ele>244.26</ele>
       <time>2014-11-03T20:33:55Z</time>
      </trkpt>
      <trkpt lat="43.632920" lon="6.847610">
       <ele>246.13</ele>
       <time>2014-11-03T20:34:13Z</time>
      </trkpt>
      <trkpt lat="43.632970" lon="6.848050">
       <ele>245.17</ele>
       <time>2014-11-03T20:34:20Z</time>
      </trkpt>
      <trkpt lat="43.633120" lon="6.848470">
       <ele>245.1</ele>
       <time>2014-11-03T20:34:27Z</time>
      </trkpt>
      <trkpt lat="43.633890" lon="6.850330">
       <ele>241.34</ele>
       <time>2014-11-03T20:34:59Z</time>
      </trkpt>
      <trkpt lat="43.634170" lon="6.850890">
       <ele>240.92</ele>
       <time>2014-11-03T20:35:09Z</time>
      </trkpt>
      <trkpt lat="43.634230" lon="6.850980">
       <ele>241.56</ele>
       <time>2014-11-03T20:35:11Z</time>
      </trkpt>
      <trkpt lat="43.634380" lon="6.851430">
       <ele>242.28</ele>
       <time>2014-11-03T20:35:19Z</time>
      </trkpt>
      <trkpt lat="43.634450" lon="6.851850">
       <ele>242.38</ele>
       <time>2014-11-03T20:35:25Z</time>
      </trkpt>
      <trkpt lat="43.634570" lon="6.853080">
       <ele>243.78</ele>
       <time>2014-11-03T20:35:44Z</time>
      </trkpt>
      <trkpt lat="43.635350" lon="6.856530">
       <ele>241.33</ele>
       <time>2014-11-03T20:36:38Z</time>
      </trkpt>
      <trkpt lat="43.635620" lon="6.857420">
       <ele>241.17</ele>
       <time>2014-11-03T20:36:52Z</time>
      </trkpt>
      <trkpt lat="43.635670" lon="6.857480">
       <ele>241.05</ele>
       <time>2014-11-03T20:36:54Z</time>
      </trkpt>
      <trkpt lat="43.635750" lon="6.857650">
       <ele>240.5</ele>
       <time>2014-11-03T20:36:57Z</time>
      </trkpt>
      <trkpt lat="43.635920" lon="6.858100">
       <ele>239.29</ele>
       <time>2014-11-03T20:37:04Z</time>
      </trkpt>
      <trkpt lat="43.635970" lon="6.858120">
       <ele>239.47</ele>
       <time>2014-11-03T20:37:06Z</time>
      </trkpt>
      <trkpt lat="43.636020" lon="6.858210">
       <ele>239.38</ele>
       <time>2014-11-03T20:37:07Z</time>
      </trkpt>
      <trkpt lat="43.636020" lon="6.858310">
       <ele>238.99</ele>
       <time>2014-11-03T20:37:09Z</time>
      </trkpt>
      <trkpt lat="43.636000" lon="6.858350">
       <ele>238.78</ele>
       <time>2014-11-03T20:37:09Z</time>
      </trkpt>
      <trkpt lat="43.636070" lon="6.858590">
       <ele>238.57</ele>
       <time>2014-11-03T20:37:13Z</time>
      </trkpt>
      <trkpt lat="43.636220" lon="6.858970">
       <ele>238.03</ele>
       <time>2014-11-03T20:37:20Z</time>
      </trkpt>
      <trkpt lat="43.636230" lon="6.859060">
       <ele>237.79</ele>
       <time>2014-11-03T20:37:21Z</time>
      </trkpt>
      <trkpt lat="43.636260" lon="6.859100">
       <ele>237.72</ele>
       <time>2014-11-03T20:37:22Z</time>
      </trkpt>
      <trkpt lat="43.636790" lon="6.860290">
       <ele>234.01</ele>
       <time>2014-11-03T20:37:43Z</time>
      </trkpt>
      <trkpt lat="43.637300" lon="6.861380">
       <ele>227.04</ele>
       <time>2014-11-03T20:38:03Z</time>
      </trkpt>
      <trkpt lat="43.637450" lon="6.861790">
       <ele>224.24</ele>
       <time>2014-11-03T20:38:09Z</time>
      </trkpt>
      <trkpt lat="43.637460" lon="6.861910">
       <ele>223.36</ele>
       <time>2014-11-03T20:38:11Z</time>
      </trkpt>
      <trkpt lat="43.637450" lon="6.862020">
       <ele>222.6</ele>
       <time>2014-11-03T20:38:13Z</time>
      </trkpt>
      <trkpt lat="43.637370" lon="6.862330">
       <ele>220.66</ele>
       <time>2014-11-03T20:38:18Z</time>
      </trkpt>
      <trkpt lat="43.636480" lon="6.863900">
       <ele>214.77</ele>
       <time>2014-11-03T20:38:48Z</time>
      </trkpt>
      <trkpt lat="43.636350" lon="6.864160">
       <ele>213.35</ele>
       <time>2014-11-03T20:38:53Z</time>
      </trkpt>
      <trkpt lat="43.636330" lon="6.864310">
       <ele>212.6</ele>
       <time>2014-11-03T20:38:55Z</time>
      </trkpt>
      <trkpt lat="43.636380" lon="6.864570">
       <ele>210.8</ele>
       <time>2014-11-03T20:38:59Z</time>
      </trkpt>
      <trkpt lat="43.636440" lon="6.864680">
       <ele>209.83</ele>
       <time>2014-11-03T20:39:01Z</time>
      </trkpt>
      <trkpt lat="43.636500" lon="6.864730">
       <ele>209.22</ele>
       <time>2014-11-03T20:39:02Z</time>
      </trkpt>
      <trkpt lat="43.636610" lon="6.864770">
       <ele>208.42</ele>
       <time>2014-11-03T20:39:05Z</time>
      </trkpt>
      <trkpt lat="43.637800" lon="6.864850">
       <ele>201.01</ele>
       <time>2014-11-03T20:39:29Z</time>
      </trkpt>
      <trkpt lat="43.638040" lon="6.864870">
       <ele>199.66</ele>
       <time>2014-11-03T20:39:34Z</time>
      </trkpt>
      <trkpt lat="43.638170" lon="6.864900">
       <ele>198.75</ele>
       <time>2014-11-03T20:39:37Z</time>
      </trkpt>
      <trkpt lat="43.638300" lon="6.864980">
       <ele>197.34</ele>
       <time>2014-11-03T20:39:40Z</time>
      </trkpt>
      <trkpt lat="43.638400" lon="6.865100">
       <ele>196.47</ele>
       <time>2014-11-03T20:39:43Z</time>
      </trkpt>
      <trkpt lat="43.638440" lon="6.865170">
       <ele>196.11</ele>
       <time>2014-11-03T20:39:44Z</time>
      </trkpt>
      <trkpt lat="43.638510" lon="6.865400">
       <ele>195.03</ele>
       <time>2014-11-03T20:39:48Z</time>
      </trkpt>
      <trkpt lat="43.638810" lon="6.866960">
       <ele>187.4</ele>
       <time>2014-11-03T20:40:12Z</time>
      </trkpt>
      <trkpt lat="43.638880" lon="6.867420">
       <ele>186.76</ele>
       <time>2014-11-03T20:40:19Z</time>
      </trkpt>
      <trkpt lat="43.639010" lon="6.868690">
       <ele>186.22</ele>
       <time>2014-11-03T20:40:38Z</time>
      </trkpt>
      <trkpt lat="43.639060" lon="6.869450">
       <ele>188.72</ele>
       <time>2014-11-03T20:40:50Z</time>
      </trkpt>
      <trkpt lat="43.639050" lon="6.869710">
       <ele>189.77</ele>
       <time>2014-11-03T20:40:54Z</time>
      </trkpt>
      <trkpt lat="43.638940" lon="6.870440">
       <ele>189.94</ele>
       <time>2014-11-03T20:41:05Z</time>
      </trkpt>
      <trkpt lat="43.638900" lon="6.870820">
       <ele>189.45</ele>
       <time>2014-11-03T20:41:11Z</time>
      </trkpt>
      <trkpt lat="43.638900" lon="6.871350">
       <ele>188.01</ele>
       <time>2014-11-03T20:41:19Z</time>
      </trkpt>
      <trkpt lat="43.638950" lon="6.871540">
       <ele>188.01</ele>
       <time>2014-11-03T20:41:22Z</time>
      </trkpt>
      <trkpt lat="43.638950" lon="6.871590">
       <ele>187.87</ele>
       <time>2014-11-03T20:41:22Z</time>
      </trkpt>
      <trkpt lat="43.638930" lon="6.871630">
       <ele>187.56</ele>
       <time>2014-11-03T20:41:23Z</time>
      </trkpt>
      <trkpt lat="43.638980" lon="6.872010">
       <ele>188.31</ele>
       <time>2014-11-03T20:41:29Z</time>
      </trkpt>
      <trkpt lat="43.639030" lon="6.872600">
       <ele>189.97</ele>
       <time>2014-11-03T20:41:38Z</time>
      </trkpt>
      <trkpt lat="43.639010" lon="6.872750">
       <ele>190.6</ele>
       <time>2014-11-03T20:41:40Z</time>
      </trkpt>
      <trkpt lat="43.638900" lon="6.874920">
       <ele>194.23</ele>
       <time>2014-11-03T20:42:13Z</time>
      </trkpt>
      <trkpt lat="43.638940" lon="6.875480">
       <ele>194.3</ele>
       <time>2014-11-03T20:42:21Z</time>
      </trkpt>
      <trkpt lat="43.639010" lon="6.875820">
       <ele>194.79</ele>
       <time>2014-11-03T20:42:27Z</time>
      </trkpt>
      <trkpt lat="43.639080" lon="6.876030">
       <ele>195.04</ele>
       <time>2014-11-03T20:42:30Z</time>
      </trkpt>
      <trkpt lat="43.639250" lon="6.876380">
       <ele>195.55</ele>
       <time>2014-11-03T20:42:36Z</time>
      </trkpt>
      <trkpt lat="43.639440" lon="6.876630">
       <ele>194.92</ele>
       <time>2014-11-03T20:42:42Z</time>
      </trkpt>
      <trkpt lat="43.639840" lon="6.876980">
       <ele>193.89</ele>
       <time>2014-11-03T20:42:52Z</time>
      </trkpt>
      <trkpt lat="43.640310" lon="6.877290">
       <ele>193.29</ele>
       <time>2014-11-03T20:43:02Z</time>
      </trkpt>
      <trkpt lat="43.640640" lon="6.877670">
       <ele>192.17</ele>
       <time>2014-11-03T20:43:11Z</time>
      </trkpt>
      <trkpt lat="43.642470" lon="6.880270">
       <ele>183.39</ele>
       <time>2014-11-03T20:44:06Z</time>
      </trkpt>
      <trkpt lat="43.642610" lon="6.880500">
       <ele>183.35</ele>
       <time>2014-11-03T20:44:10Z</time>
      </trkpt>
      <trkpt lat="43.643700" lon="6.882790">
       <ele>188</ele>
       <time>2014-11-03T20:44:51Z</time>
      </trkpt>
      <trkpt lat="43.643760" lon="6.882860">
       <ele>188.35</ele>
       <time>2014-11-03T20:44:53Z</time>
      </trkpt>
      <trkpt lat="43.643870" lon="6.883080">
       <ele>188.98</ele>
       <time>2014-11-03T20:44:57Z</time>
      </trkpt>
      <trkpt lat="43.643930" lon="6.883080">
       <ele>189.37</ele>
       <time>2014-11-03T20:44:58Z</time>
      </trkpt>
      <trkpt lat="43.643990" lon="6.883160">
       <ele>189.77</ele>
       <time>2014-11-03T20:45:00Z</time>
      </trkpt>
      <trkpt lat="43.643980" lon="6.883270">
       <ele>189.66</ele>
       <time>2014-11-03T20:45:02Z</time>
      </trkpt>
      <trkpt lat="43.644120" lon="6.883560">
       <ele>190.66</ele>
       <time>2014-11-03T20:45:07Z</time>
      </trkpt>
      <trkpt lat="43.644170" lon="6.883740">
       <ele>191.02</ele>
       <time>2014-11-03T20:45:10Z</time>
      </trkpt>
      <trkpt lat="43.644240" lon="6.883910">
       <ele>191.6</ele>
       <time>2014-11-03T20:45:13Z</time>
      </trkpt>
      <trkpt lat="43.644430" lon="6.884280">
       <ele>193.2</ele>
       <time>2014-11-03T20:45:20Z</time>
      </trkpt>
      <trkpt lat="43.645680" lon="6.886900">
       <ele>200.7</ele>
       <time>2014-11-03T20:46:07Z</time>
      </trkpt>
      <trkpt lat="43.645790" lon="6.887280">
       <ele>202.24</ele>
       <time>2014-11-03T20:46:13Z</time>
      </trkpt>
      <trkpt lat="43.645830" lon="6.887600">
       <ele>203.54</ele>
       <time>2014-11-03T20:46:18Z</time>
      </trkpt>
      <trkpt lat="43.645830" lon="6.887890">
       <ele>205.27</ele>
       <time>2014-11-03T20:46:22Z</time>
      </trkpt>
      <trkpt lat="43.645770" lon="6.888300">
       <ele>206.98</ele>
       <time>2014-11-03T20:46:28Z</time>
      </trkpt>
      <trkpt lat="43.645680" lon="6.888570">
       <ele>206.93</ele>
       <time>2014-11-03T20:46:33Z</time>
      </trkpt>
      <trkpt lat="43.644790" lon="6.890800">
       <ele>211.35</ele>
       <time>2014-11-03T20:47:11Z</time>
      </trkpt>
      <trkpt lat="43.644710" lon="6.891090">
       <ele>212.82</ele>
       <time>2014-11-03T20:47:16Z</time>
      </trkpt>
      <trkpt lat="43.644640" lon="6.891470">
       <ele>214.59</ele>
       <time>2014-11-03T20:47:22Z</time>
      </trkpt>
      <trkpt lat="43.644650" lon="6.891770">
       <ele>215.72</ele>
       <time>2014-11-03T20:47:26Z</time>
      </trkpt>
      <trkpt lat="43.644700" lon="6.892030">
       <ele>216.39</ele>
       <time>2014-11-03T20:47:30Z</time>
      </trkpt>
      <trkpt lat="43.644740" lon="6.892100">
       <ele>216.51</ele>
       <time>2014-11-03T20:47:31Z</time>
      </trkpt>
      <trkpt lat="43.644820" lon="6.892180">
       <ele>216.58</ele>
       <time>2014-11-03T20:47:33Z</time>
      </trkpt>
      <trkpt lat="43.644850" lon="6.892170">
       <ele>216.49</ele>
       <time>2014-11-03T20:47:34Z</time>
      </trkpt>
      <trkpt lat="43.644900" lon="6.892180">
       <ele>216.42</ele>
       <time>2014-11-03T20:47:35Z</time>
      </trkpt>
      <trkpt lat="43.644980" lon="6.892230">
       <ele>216.39</ele>
       <time>2014-11-03T20:47:37Z</time>
      </trkpt>
      <trkpt lat="43.645060" lon="6.892370">
       <ele>217.52</ele>
       <time>2014-11-03T20:47:40Z</time>
      </trkpt>
      <trkpt lat="43.645070" lon="6.892490">
       <ele>217.97</ele>
       <time>2014-11-03T20:47:41Z</time>
      </trkpt>
      <trkpt lat="43.645040" lon="6.892640">
       <ele>217.24</ele>
       <time>2014-11-03T20:47:44Z</time>
      </trkpt>
      <trkpt lat="43.644950" lon="6.892760">
       <ele>216.55</ele>
       <time>2014-11-03T20:47:46Z</time>
      </trkpt>
      <trkpt lat="43.644860" lon="6.892800">
       <ele>216.8</ele>
       <time>2014-11-03T20:47:48Z</time>
      </trkpt>
      <trkpt lat="43.644820" lon="6.892880">
       <ele>216.81</ele>
       <time>2014-11-03T20:47:50Z</time>
      </trkpt>
      <trkpt lat="43.644770" lon="6.893000">
       <ele>216.84</ele>
       <time>2014-11-03T20:47:52Z</time>
      </trkpt>
      <trkpt lat="43.644760" lon="6.893220">
       <ele>216.59</ele>
       <time>2014-11-03T20:47:55Z</time>
      </trkpt>
      <trkpt lat="43.644890" lon="6.893630">
       <ele>214.78</ele>
       <time>2014-11-03T20:48:02Z</time>
      </trkpt>
      <trkpt lat="43.645020" lon="6.894240">
       <ele>211.77</ele>
       <time>2014-11-03T20:48:11Z</time>
      </trkpt>
      <trkpt lat="43.645240" lon="6.894630">
       <ele>213.86</ele>
       <time>2014-11-03T20:48:19Z</time>
      </trkpt>
      <trkpt lat="43.645270" lon="6.894750">
       <ele>213.9</ele>
       <time>2014-11-03T20:48:21Z</time>
      </trkpt>
      <trkpt lat="43.645260" lon="6.894910">
       <ele>212.69</ele>
       <time>2014-11-03T20:48:23Z</time>
      </trkpt>
      <trkpt lat="43.645110" lon="6.895500">
       <ele>208.39</ele>
       <time>2014-11-03T20:48:33Z</time>
      </trkpt>
      <trkpt lat="43.645000" lon="6.896040">
       <ele>205.26</ele>
       <time>2014-11-03T20:48:41Z</time>
      </trkpt>
      <trkpt lat="43.644900" lon="6.896350">
       <ele>204.35</ele>
       <time>2014-11-03T20:48:46Z</time>
      </trkpt>
      <trkpt lat="43.644330" lon="6.897720">
       <ele>194.11</ele>
       <time>2014-11-03T20:49:10Z</time>
      </trkpt>
      <trkpt lat="43.644240" lon="6.897990">
       <ele>192.31</ele>
       <time>2014-11-03T20:49:14Z</time>
      </trkpt>
      <trkpt lat="43.644200" lon="6.898340">
       <ele>191.48</ele>
       <time>2014-11-03T20:49:20Z</time>
      </trkpt>
      <trkpt lat="43.644230" lon="6.899210">
       <ele>188.75</ele>
       <time>2014-11-03T20:49:33Z</time>
      </trkpt>
      <trkpt lat="43.644200" lon="6.899560">
       <ele>188.37</ele>
       <time>2014-11-03T20:49:38Z</time>
      </trkpt>
      <trkpt lat="43.644190" lon="6.899940">
       <ele>188.27</ele>
       <time>2014-11-03T20:49:44Z</time>
      </trkpt>
      <trkpt lat="43.644240" lon="6.900150">
       <ele>187.17</ele>
       <time>2014-11-03T20:49:47Z</time>
      </trkpt>
      <trkpt lat="43.644270" lon="6.900220">
       <ele>186.73</ele>
       <time>2014-11-03T20:49:48Z</time>
      </trkpt>
      <trkpt lat="43.644410" lon="6.900400">
       <ele>186.16</ele>
       <time>2014-11-03T20:49:52Z</time>
      </trkpt>
      <trkpt lat="43.645240" lon="6.901350">
       <ele>183.62</ele>
       <time>2014-11-03T20:50:14Z</time>
      </trkpt>
      <trkpt lat="43.645390" lon="6.901580">
       <ele>182.35</ele>
       <time>2014-11-03T20:50:19Z</time>
      </trkpt>
      <trkpt lat="43.645470" lon="6.901740">
       <ele>181.77</ele>
       <time>2014-11-03T20:50:22Z</time>
      </trkpt>
      <trkpt lat="43.645530" lon="6.901980">
       <ele>181.3</ele>
       <time>2014-11-03T20:50:26Z</time>
      </trkpt>
      <trkpt lat="43.645530" lon="6.902140">
       <ele>180.56</ele>
       <time>2014-11-03T20:50:28Z</time>
      </trkpt>
      <trkpt lat="43.645490" lon="6.902400">
       <ele>179.18</ele>
       <time>2014-11-03T20:50:32Z</time>
      </trkpt>
      <trkpt lat="43.645440" lon="6.902560">
       <ele>179.22</ele>
       <time>2014-11-03T20:50:35Z</time>
      </trkpt>
      <trkpt lat="43.645330" lon="6.902770">
       <ele>181.37</ele>
       <time>2014-11-03T20:50:39Z</time>
      </trkpt>
      <trkpt lat="43.645240" lon="6.902880">
       <ele>182.74</ele>
       <time>2014-11-03T20:50:41Z</time>
      </trkpt>
      <trkpt lat="43.645110" lon="6.902960">
       <ele>183.98</ele>
       <time>2014-11-03T20:50:44Z</time>
      </trkpt>
      <trkpt lat="43.644970" lon="6.902930">
       <ele>183.83</ele>
       <time>2014-11-03T20:50:47Z</time>
      </trkpt>
      <trkpt lat="43.644670" lon="6.902810">
       <ele>183.18</ele>
       <time>2014-11-03T20:50:54Z</time>
      </trkpt>
      <trkpt lat="43.644550" lon="6.902810">
       <ele>183.66</ele>
       <time>2014-11-03T20:50:56Z</time>
      </trkpt>
      <trkpt lat="43.644260" lon="6.902930">
       <ele>186.82</ele>
       <time>2014-11-03T20:51:02Z</time>
      </trkpt>
      <trkpt lat="43.644140" lon="6.902940">
       <ele>187.28</ele>
       <time>2014-11-03T20:51:05Z</time>
      </trkpt>
      <trkpt lat="43.643680" lon="6.902850">
       <ele>184.23</ele>
       <time>2014-11-03T20:51:14Z</time>
      </trkpt>
      <trkpt lat="43.643540" lon="6.902880">
       <ele>184.19</ele>
       <time>2014-11-03T20:51:17Z</time>
      </trkpt>
      <trkpt lat="43.643370" lon="6.903010">
       <ele>185.49</ele>
       <time>2014-11-03T20:51:21Z</time>
      </trkpt>
      <trkpt lat="43.643330" lon="6.903060">
       <ele>186.04</ele>
       <time>2014-11-03T20:51:23Z</time>
      </trkpt>
      <trkpt lat="43.643240" lon="6.903210">
       <ele>187.6</ele>
       <time>2014-11-03T20:51:25Z</time>
      </trkpt>
      <trkpt lat="43.643200" lon="6.903320">
       <ele>188.85</ele>
       <time>2014-11-03T20:51:27Z</time>
      </trkpt>
      <trkpt lat="43.643170" lon="6.903550">
       <ele>191</ele>
       <time>2014-11-03T20:51:31Z</time>
      </trkpt>
      <trkpt lat="43.643170" lon="6.904210">
       <ele>197.5</ele>
       <time>2014-11-03T20:51:41Z</time>
      </trkpt>
      <trkpt lat="43.643180" lon="6.904360">
       <ele>198.55</ele>
       <time>2014-11-03T20:51:43Z</time>
      </trkpt>
      <trkpt lat="43.643270" lon="6.904920">
       <ele>202.42</ele>
       <time>2014-11-03T20:51:52Z</time>
      </trkpt>
      <trkpt lat="43.643280" lon="6.905160">
       <ele>204.06</ele>
       <time>2014-11-03T20:51:55Z</time>
      </trkpt>
      <trkpt lat="43.643270" lon="6.905240">
       <ele>204.61</ele>
       <time>2014-11-03T20:51:56Z</time>
      </trkpt>
      <trkpt lat="43.643200" lon="6.905440">
       <ele>205.84</ele>
       <time>2014-11-03T20:52:00Z</time>
      </trkpt>
      <trkpt lat="43.643130" lon="6.905530">
       <ele>206.26</ele>
       <time>2014-11-03T20:52:02Z</time>
      </trkpt>
      <trkpt lat="43.642990" lon="6.905780">
       <ele>207.43</ele>
       <time>2014-11-03T20:52:06Z</time>
      </trkpt>
      <trkpt lat="43.642590" lon="6.907110">
       <ele>213.22</ele>
       <time>2014-11-03T20:52:28Z</time>
      </trkpt>
      <trkpt lat="43.642550" lon="6.907350">
       <ele>213.98</ele>
       <time>2014-11-03T20:52:32Z</time>
      </trkpt>
      <trkpt lat="43.642560" lon="6.907530">
       <ele>215.02</ele>
       <time>2014-11-03T20:52:34Z</time>
      </trkpt>
      <trkpt lat="43.642620" lon="6.907750">
       <ele>217.01</ele>
       <time>2014-11-03T20:52:38Z</time>
      </trkpt>
      <trkpt lat="43.642880" lon="6.908190">
       <ele>221.72</ele>
       <time>2014-11-03T20:52:47Z</time>
      </trkpt>
      <trkpt lat="43.642980" lon="6.908430">
       <ele>223.6</ele>
       <time>2014-11-03T20:52:51Z</time>
      </trkpt>
      <trkpt lat="43.642950" lon="6.908610">
       <ele>224.5</ele>
       <time>2014-11-03T20:52:53Z</time>
      </trkpt>
      <trkpt lat="43.642890" lon="6.908670">
       <ele>224.59</ele>
       <time>2014-11-03T20:52:55Z</time>
      </trkpt>
      <trkpt lat="43.642840" lon="6.908690">
       <ele>224.49</ele>
       <time>2014-11-03T20:52:56Z</time>
      </trkpt>
      <trkpt lat="43.642770" lon="6.908680">
       <ele>224.06</ele>
       <time>2014-11-03T20:52:58Z</time>
      </trkpt>
      <trkpt lat="43.642710" lon="6.908640">
       <ele>223.43</ele>
       <time>2014-11-03T20:52:59Z</time>
      </trkpt>
      <trkpt lat="43.642040" lon="6.908010">
       <ele>220.37</ele>
       <time>2014-11-03T20:53:16Z</time>
      </trkpt>
      <trkpt lat="43.641900" lon="6.907920">
       <ele>220.85</ele>
       <time>2014-11-03T20:53:19Z</time>
      </trkpt>
      <trkpt lat="43.641790" lon="6.907890">
       <ele>221.46</ele>
       <time>2014-11-03T20:53:21Z</time>
      </trkpt>
      <trkpt lat="43.641630" lon="6.907910">
       <ele>222.53</ele>
       <time>2014-11-03T20:53:25Z</time>
      </trkpt>
      <trkpt lat="43.641370" lon="6.908020">
       <ele>223.43</ele>
       <time>2014-11-03T20:53:30Z</time>
      </trkpt>
      <trkpt lat="43.641240" lon="6.908160">
       <ele>223.98</ele>
       <time>2014-11-03T20:53:34Z</time>
      </trkpt>
      <trkpt lat="43.641040" lon="6.908520">
       <ele>225.26</ele>
       <time>2014-11-03T20:53:40Z</time>
      </trkpt>
      <trkpt lat="43.640890" lon="6.908820">
       <ele>226.05</ele>
       <time>2014-11-03T20:53:46Z</time>
      </trkpt>
      <trkpt lat="43.640810" lon="6.909030">
       <ele>226.39</ele>
       <time>2014-11-03T20:53:49Z</time>
      </trkpt>
      <trkpt lat="43.640760" lon="6.909220">
       <ele>226.76</ele>
       <time>2014-11-03T20:53:53Z</time>
      </trkpt>
      <trkpt lat="43.640730" lon="6.909490">
       <ele>227.24</ele>
       <time>2014-11-03T20:53:57Z</time>
      </trkpt>
      <trkpt lat="43.640750" lon="6.909790">
       <ele>228.03</ele>
       <time>2014-11-03T20:54:01Z</time>
      </trkpt>
      <trkpt lat="43.640790" lon="6.910060">
       <ele>228.8</ele>
       <time>2014-11-03T20:54:05Z</time>
      </trkpt>
      <trkpt lat="43.640900" lon="6.910340">
       <ele>229.93</ele>
       <time>2014-11-03T20:54:10Z</time>
      </trkpt>
      <trkpt lat="43.640980" lon="6.910480">
       <ele>230.7</ele>
       <time>2014-11-03T20:54:13Z</time>
      </trkpt>
      <trkpt lat="43.641250" lon="6.910890">
       <ele>232.94</ele>
       <time>2014-11-03T20:54:21Z</time>
      </trkpt>
      <trkpt lat="43.641360" lon="6.911030">
       <ele>233.63</ele>
       <time>2014-11-03T20:54:24Z</time>
      </trkpt>
      <trkpt lat="43.641450" lon="6.911120">
       <ele>234.25</ele>
       <time>2014-11-03T20:54:26Z</time>
      </trkpt>
      <trkpt lat="43.641580" lon="6.911160">
       <ele>235.28</ele>
       <time>2014-11-03T20:54:29Z</time>
      </trkpt>
      <trkpt lat="43.641670" lon="6.911130">
       <ele>236.03</ele>
       <time>2014-11-03T20:54:31Z</time>
      </trkpt>
      <trkpt lat="43.641780" lon="6.911180">
       <ele>237.07</ele>
       <time>2014-11-03T20:54:34Z</time>
      </trkpt>
      <trkpt lat="43.641840" lon="6.911270">
       <ele>237.69</ele>
       <time>2014-11-03T20:54:35Z</time>
      </trkpt>
      <trkpt lat="43.641870" lon="6.911350">
       <ele>238</ele>
       <time>2014-11-03T20:54:37Z</time>
      </trkpt>
      <trkpt lat="43.641870" lon="6.911520">
       <ele>238.1</ele>
       <time>2014-11-03T20:54:39Z</time>
      </trkpt>
      <trkpt lat="43.641820" lon="6.911630">
       <ele>237.63</ele>
       <time>2014-11-03T20:54:41Z</time>
      </trkpt>
      <trkpt lat="43.641670" lon="6.911720">
       <ele>236.1</ele>
       <time>2014-11-03T20:54:45Z</time>
      </trkpt>
      <trkpt lat="43.641530" lon="6.911950">
       <ele>235.02</ele>
       <time>2014-11-03T20:54:49Z</time>
      </trkpt>
      <trkpt lat="43.641510" lon="6.912050">
       <ele>234.96</ele>
       <time>2014-11-03T20:54:51Z</time>
      </trkpt>
      <trkpt lat="43.641520" lon="6.912320">
       <ele>235.39</ele>
       <time>2014-11-03T20:54:55Z</time>
      </trkpt>
      <trkpt lat="43.641570" lon="6.912600">
       <ele>236.31</ele>
       <time>2014-11-03T20:54:59Z</time>
      </trkpt>
      <trkpt lat="43.641660" lon="6.912870">
       <ele>237.81</ele>
       <time>2014-11-03T20:55:04Z</time>
      </trkpt>
      <trkpt lat="43.641790" lon="6.913130">
       <ele>239.2</ele>
       <time>2014-11-03T20:55:08Z</time>
      </trkpt>
      <trkpt lat="43.641960" lon="6.913380">
       <ele>240.2</ele>
       <time>2014-11-03T20:55:13Z</time>
      </trkpt>
      <trkpt lat="43.642240" lon="6.913640">
       <ele>240.53</ele>
       <time>2014-11-03T20:55:20Z</time>
      </trkpt>
      <trkpt lat="43.642510" lon="6.913810">
       <ele>241.36</ele>
       <time>2014-11-03T20:55:27Z</time>
      </trkpt>
      <trkpt lat="43.642850" lon="6.914070">
       <ele>243.28</ele>
       <time>2014-11-03T20:55:35Z</time>
      </trkpt>
      <trkpt lat="43.643080" lon="6.914320">
       <ele>244.09</ele>
       <time>2014-11-03T20:55:41Z</time>
      </trkpt>
      <trkpt lat="43.643600" lon="6.915000">
       <ele>246.21</ele>
       <time>2014-11-03T20:55:56Z</time>
      </trkpt>
      <trkpt lat="43.643830" lon="6.915220">
       <ele>245.32</ele>
       <time>2014-11-03T20:56:01Z</time>
      </trkpt>
      <trkpt lat="43.644070" lon="6.915350">
       <ele>245.09</ele>
       <time>2014-11-03T20:56:07Z</time>
      </trkpt>
      <trkpt lat="43.644230" lon="6.915390">
       <ele>245.37</ele>
       <time>2014-11-03T20:56:10Z</time>
      </trkpt>
      <trkpt lat="43.644370" lon="6.915390">
       <ele>246.11</ele>
       <time>2014-11-03T20:56:13Z</time>
      </trkpt>
      <trkpt lat="43.644760" lon="6.915440">
       <ele>247.33</ele>
       <time>2014-11-03T20:56:21Z</time>
      </trkpt>
      <trkpt lat="43.645110" lon="6.915510">
       <ele>249.05</ele>
       <time>2014-11-03T20:56:28Z</time>
      </trkpt>
      <trkpt lat="43.645270" lon="6.915580">
       <ele>250.32</ele>
       <time>2014-11-03T20:56:32Z</time>
      </trkpt>
      <trkpt lat="43.645470" lon="6.915720">
       <ele>251.83</ele>
       <time>2014-11-03T20:56:37Z</time>
      </trkpt>
      <trkpt lat="43.645580" lon="6.915830">
       <ele>252.77</ele>
       <time>2014-11-03T20:56:39Z</time>
      </trkpt>
      <trkpt lat="43.645830" lon="6.916190">
       <ele>256.91</ele>
       <time>2014-11-03T20:56:47Z</time>
      </trkpt>
      <trkpt lat="43.645980" lon="6.916560">
       <ele>258.9</ele>
       <time>2014-11-03T20:56:53Z</time>
      </trkpt>
      <trkpt lat="43.646060" lon="6.916800">
       <ele>260.43</ele>
       <time>2014-11-03T20:56:57Z</time>
      </trkpt>
      <trkpt lat="43.646190" lon="6.917510">
       <ele>263.51</ele>
       <time>2014-11-03T20:57:08Z</time>
      </trkpt>
      <trkpt lat="43.646320" lon="6.917840">
       <ele>262.4</ele>
       <time>2014-11-03T20:57:14Z</time>
      </trkpt>
      <trkpt lat="43.646440" lon="6.918000">
       <ele>262.09</ele>
       <time>2014-11-03T20:57:17Z</time>
      </trkpt>
      <trkpt lat="43.646500" lon="6.918110">
       <ele>261.7</ele>
       <time>2014-11-03T20:57:19Z</time>
      </trkpt>
      <trkpt lat="43.646690" lon="6.918340">
       <ele>261.01</ele>
       <time>2014-11-03T20:57:25Z</time>
      </trkpt>
      <trkpt lat="43.646880" lon="6.918460">
       <ele>260.05</ele>
       <time>2014-11-03T20:57:29Z</time>
      </trkpt>
      <trkpt lat="43.647140" lon="6.918560">
       <ele>258.87</ele>
       <time>2014-11-03T20:57:34Z</time>
      </trkpt>
      <trkpt lat="43.647370" lon="6.918580">
       <ele>258.62</ele>
       <time>2014-11-03T20:57:39Z</time>
      </trkpt>
      <trkpt lat="43.647740" lon="6.918570">
       <ele>260.65</ele>
       <time>2014-11-03T20:57:47Z</time>
      </trkpt>
      <trkpt lat="43.648110" lon="6.918590">
       <ele>263.01</ele>
       <time>2014-11-03T20:57:55Z</time>
      </trkpt>
      <trkpt lat="43.648360" lon="6.918630">
       <ele>264.43</ele>
       <time>2014-11-03T20:58:00Z</time>
      </trkpt>
      <trkpt lat="43.648690" lon="6.918780">
       <ele>266.85</ele>
       <time>2014-11-03T20:58:07Z</time>
      </trkpt>
      <trkpt lat="43.648800" lon="6.918860">
       <ele>267.22</ele>
       <time>2014-11-03T20:58:10Z</time>
      </trkpt>
      <trkpt lat="43.648930" lon="6.919010">
       <ele>266.8</ele>
       <time>2014-11-03T20:58:13Z</time>
      </trkpt>
      <trkpt lat="43.649080" lon="6.919250">
       <ele>265.99</ele>
       <time>2014-11-03T20:58:18Z</time>
      </trkpt>
      <trkpt lat="43.649180" lon="6.919470">
       <ele>266.18</ele>
       <time>2014-11-03T20:58:22Z</time>
      </trkpt>
      <trkpt lat="43.649300" lon="6.919800">
       <ele>266.67</ele>
       <time>2014-11-03T20:58:27Z</time>
      </trkpt>
      <trkpt lat="43.649820" lon="6.921510">
       <ele>266.01</ele>
       <time>2014-11-03T20:58:55Z</time>
      </trkpt>
      <trkpt lat="43.649970" lon="6.921930">
       <ele>268.7</ele>
       <time>2014-11-03T20:59:02Z</time>
      </trkpt>
      <trkpt lat="43.650050" lon="6.922030">
       <ele>270.16</ele>
       <time>2014-11-03T20:59:04Z</time>
      </trkpt>
      <trkpt lat="43.650170" lon="6.922090">
       <ele>271.84</ele>
       <time>2014-11-03T20:59:07Z</time>
      </trkpt>
      <trkpt lat="43.650280" lon="6.922120">
       <ele>273.33</ele>
       <time>2014-11-03T20:59:09Z</time>
      </trkpt>
      <trkpt lat="43.650360" lon="6.922120">
       <ele>274.42</ele>
       <time>2014-11-03T20:59:11Z</time>
      </trkpt>
      <trkpt lat="43.650580" lon="6.922070">
       <ele>277.56</ele>
       <time>2014-11-03T20:59:16Z</time>
      </trkpt>
      <trkpt lat="43.650650" lon="6.922080">
       <ele>278.48</ele>
       <time>2014-11-03T20:59:17Z</time>
      </trkpt>
      <trkpt lat="43.650700" lon="6.922110">
       <ele>279.05</ele>
       <time>2014-11-03T20:59:18Z</time>
      </trkpt>
      <trkpt lat="43.650750" lon="6.922220">
       <ele>279.26</ele>
       <time>2014-11-03T20:59:20Z</time>
      </trkpt>
      <trkpt lat="43.650760" lon="6.922320">
       <ele>278.99</ele>
       <time>2014-11-03T20:59:22Z</time>
      </trkpt>
      <trkpt lat="43.650740" lon="6.922390">
       <ele>278.46</ele>
       <time>2014-11-03T20:59:23Z</time>
      </trkpt>
      <trkpt lat="43.650690" lon="6.922480">
       <ele>277.51</ele>
       <time>2014-11-03T20:59:25Z</time>
      </trkpt>
      <trkpt lat="43.650650" lon="6.922520">
       <ele>277.07</ele>
       <time>2014-11-03T20:59:26Z</time>
      </trkpt>
      <trkpt lat="43.650600" lon="6.922540">
       <ele>276.6</ele>
       <time>2014-11-03T20:59:27Z</time>
      </trkpt>
      <trkpt lat="43.650520" lon="6.922540">
       <ele>275.76</ele>
       <time>2014-11-03T20:59:28Z</time>
      </trkpt>
      <trkpt lat="43.650440" lon="6.922510">
       <ele>274.8</ele>
       <time>2014-11-03T20:59:30Z</time>
      </trkpt>
      <trkpt lat="43.650360" lon="6.922530">
       <ele>274.03</ele>
       <time>2014-11-03T20:59:32Z</time>
      </trkpt>
      <trkpt lat="43.650110" lon="6.922670">
       <ele>272.26</ele>
       <time>2014-11-03T20:59:37Z</time>
      </trkpt>
      <trkpt lat="43.649200" lon="6.923630">
       <ele>264.06</ele>
       <time>2014-11-03T21:00:01Z</time>
      </trkpt>
      <trkpt lat="43.649070" lon="6.923830">
       <ele>263.17</ele>
       <time>2014-11-03T21:00:05Z</time>
      </trkpt>
      <trkpt lat="43.648970" lon="6.924220">
       <ele>263.68</ele>
       <time>2014-11-03T21:00:11Z</time>
      </trkpt>
      <trkpt lat="43.648540" lon="6.926140">
       <ele>257.02</ele>
       <time>2014-11-03T21:00:41Z</time>
      </trkpt>
      <trkpt lat="43.648430" lon="6.926500">
       <ele>255.39</ele>
       <time>2014-11-03T21:00:47Z</time>
      </trkpt>
      <trkpt lat="43.648320" lon="6.926740">
       <ele>253.56</ele>
       <time>2014-11-03T21:00:52Z</time>
      </trkpt>
      <trkpt lat="43.647900" lon="6.927480">
       <ele>247.28</ele>
       <time>2014-11-03T21:01:06Z</time>
      </trkpt>
      <trkpt lat="43.647810" lon="6.927730">
       <ele>246.4</ele>
       <time>2014-11-03T21:01:10Z</time>
      </trkpt>
      <trkpt lat="43.647780" lon="6.928070">
       <ele>246.25</ele>
       <time>2014-11-03T21:01:15Z</time>
      </trkpt>
      <trkpt lat="43.647850" lon="6.928360">
       <ele>246.42</ele>
       <time>2014-11-03T21:01:20Z</time>
      </trkpt>
      <trkpt lat="43.647930" lon="6.928520">
       <ele>245.28</ele>
       <time>2014-11-03T21:01:22Z</time>
      </trkpt>
      <trkpt lat="43.648450" lon="6.929340">
       <ele>242.02</ele>
       <time>2014-11-03T21:01:39Z</time>
      </trkpt>
      <trkpt lat="43.648540" lon="6.929560">
       <ele>241.53</ele>
       <time>2014-11-03T21:01:43Z</time>
      </trkpt>
      <trkpt lat="43.648590" lon="6.929830">
       <ele>240.24</ele>
       <time>2014-11-03T21:01:47Z</time>
      </trkpt>
      <trkpt lat="43.648610" lon="6.930040">
       <ele>239</ele>
       <time>2014-11-03T21:01:50Z</time>
      </trkpt>
      <trkpt lat="43.648610" lon="6.930770">
       <ele>233.45</ele>
       <time>2014-11-03T21:02:01Z</time>
      </trkpt>
      <trkpt lat="43.648660" lon="6.931020">
       <ele>232.44</ele>
       <time>2014-11-03T21:02:05Z</time>
      </trkpt>
      <trkpt lat="43.648760" lon="6.931260">
       <ele>232.07</ele>
       <time>2014-11-03T21:02:09Z</time>
      </trkpt>
      <trkpt lat="43.649020" lon="6.931640">
       <ele>231.84</ele>
       <time>2014-11-03T21:02:17Z</time>
      </trkpt>
      <trkpt lat="43.649090" lon="6.931800">
       <ele>231.74</ele>
       <time>2014-11-03T21:02:20Z</time>
      </trkpt>
      <trkpt lat="43.649440" lon="6.931790">
       <ele>234.25</ele>
       <time>2014-11-03T21:02:27Z</time>
      </trkpt>
      <trkpt lat="43.649560" lon="6.931740">
       <ele>235.13</ele>
       <time>2014-11-03T21:02:30Z</time>
      </trkpt>
      <trkpt lat="43.649610" lon="6.931690">
       <ele>235.58</ele>
       <time>2014-11-03T21:02:31Z</time>
      </trkpt>
      <trkpt lat="43.649750" lon="6.931610">
       <ele>236.85</ele>
       <time>2014-11-03T21:02:34Z</time>
      </trkpt>
      <trkpt lat="43.649760" lon="6.931550">
       <ele>237.29</ele>
       <time>2014-11-03T21:02:35Z</time>
      </trkpt>
      <trkpt lat="43.649790" lon="6.931530">
       <ele>237.57</ele>
       <time>2014-11-03T21:02:36Z</time>
      </trkpt>
      <trkpt lat="43.649830" lon="6.931530">
       <ele>237.77</ele>
       <time>2014-11-03T21:02:36Z</time>
      </trkpt>
      <trkpt lat="43.649860" lon="6.931570">
       <ele>237.7</ele>
       <time>2014-11-03T21:02:37Z</time>
      </trkpt>
      <trkpt lat="43.649950" lon="6.931470">
       <ele>238.69</ele>
       <time>2014-11-03T21:02:40Z</time>
      </trkpt>
      <trkpt lat="43.650040" lon="6.931420">
       <ele>239.16</ele>
       <time>2014-11-03T21:02:42Z</time>
      </trkpt>
      <trkpt lat="43.650490" lon="6.931040">
       <ele>239.39</ele>
       <time>2014-11-03T21:02:53Z</time>
      </trkpt>
      <trkpt lat="43.650600" lon="6.930930">
       <ele>239.07</ele>
       <time>2014-11-03T21:02:55Z</time>
      </trkpt>
      <trkpt lat="43.650850" lon="6.930530">
       <ele>238.35</ele>
       <time>2014-11-03T21:03:03Z</time>
      </trkpt>
      <trkpt lat="43.650910" lon="6.930460">
       <ele>238.36</ele>
       <time>2014-11-03T21:03:05Z</time>
      </trkpt>
      <trkpt lat="43.651110" lon="6.930330">
       <ele>238.27</ele>
       <time>2014-11-03T21:03:10Z</time>
      </trkpt>
      <trkpt lat="43.651230" lon="6.930300">
       <ele>238.16</ele>
       <time>2014-11-03T21:03:12Z</time>
      </trkpt>
      <trkpt lat="43.651500" lon="6.930190">
       <ele>237.97</ele>
       <time>2014-11-03T21:03:18Z</time>
      </trkpt>
      <trkpt lat="43.652120" lon="6.929880">
       <ele>237.87</ele>
       <time>2014-11-03T21:03:32Z</time>
      </trkpt>
      <trkpt lat="43.652260" lon="6.929850">
       <ele>237.86</ele>
       <time>2014-11-03T21:03:35Z</time>
      </trkpt>
      <trkpt lat="43.652510" lon="6.929890">
       <ele>236.88</ele>
       <time>2014-11-03T21:03:40Z</time>
      </trkpt>
      <trkpt lat="43.652630" lon="6.929930">
       <ele>234.75</ele>
       <time>2014-11-03T21:03:42Z</time>
      </trkpt>
      <trkpt lat="43.652740" lon="6.929890">
       <ele>233.44</ele>
       <time>2014-11-03T21:03:45Z</time>
      </trkpt>
      <trkpt lat="43.652870" lon="6.929770">
       <ele>232.39</ele>
       <time>2014-11-03T21:03:48Z</time>
      </trkpt>
      <trkpt lat="43.653400" lon="6.928770">
       <ele>225.59</ele>
       <time>2014-11-03T21:04:06Z</time>
      </trkpt>
      <trkpt lat="43.653420" lon="6.928600">
       <ele>224.85</ele>
       <time>2014-11-03T21:04:09Z</time>
      </trkpt>
      <trkpt lat="43.653330" lon="6.927660">
       <ele>224.43</ele>
       <time>2014-11-03T21:04:23Z</time>
      </trkpt>
      <trkpt lat="43.653340" lon="6.927450">
       <ele>223.87</ele>
       <time>2014-11-03T21:04:26Z</time>
      </trkpt>
      <trkpt lat="43.653360" lon="6.927360">
       <ele>223.56</ele>
       <time>2014-11-03T21:04:28Z</time>
      </trkpt>
      <trkpt lat="43.653390" lon="6.927320">
       <ele>223.19</ele>
       <time>2014-11-03T21:04:29Z</time>
      </trkpt>
      <trkpt lat="43.653440" lon="6.927310">
       <ele>222.65</ele>
       <time>2014-11-03T21:04:30Z</time>
      </trkpt>
      <trkpt lat="43.653500" lon="6.927330">
       <ele>222</ele>
       <time>2014-11-03T21:04:31Z</time>
      </trkpt>
      <trkpt lat="43.653530" lon="6.927350">
       <ele>221.67</ele>
       <time>2014-11-03T21:04:32Z</time>
      </trkpt>
      <trkpt lat="43.653580" lon="6.927430">
       <ele>221.08</ele>
       <time>2014-11-03T21:04:33Z</time>
      </trkpt>
      <trkpt lat="43.653600" lon="6.927530">
       <ele>220.82</ele>
       <time>2014-11-03T21:04:35Z</time>
      </trkpt>
      <trkpt lat="43.653580" lon="6.927680">
       <ele>221.09</ele>
       <time>2014-11-03T21:04:37Z</time>
      </trkpt>
      <trkpt lat="43.653600" lon="6.927790">
       <ele>220.85</ele>
       <time>2014-11-03T21:04:39Z</time>
      </trkpt>
      <trkpt lat="43.653670" lon="6.927920">
       <ele>219.73</ele>
       <time>2014-11-03T21:04:41Z</time>
      </trkpt>
      <trkpt lat="43.653740" lon="6.927990">
       <ele>218.58</ele>
       <time>2014-11-03T21:04:43Z</time>
      </trkpt>
      <trkpt lat="43.653820" lon="6.928020">
       <ele>217.22</ele>
       <time>2014-11-03T21:04:45Z</time>
      </trkpt>
      <trkpt lat="43.653850" lon="6.927940">
       <ele>216.88</ele>
       <time>2014-11-03T21:04:46Z</time>
      </trkpt>
      <trkpt lat="43.653900" lon="6.927920">
       <ele>216.15</ele>
       <time>2014-11-03T21:04:47Z</time>
      </trkpt>
      <trkpt lat="43.653940" lon="6.927930">
       <ele>215.53</ele>
       <time>2014-11-03T21:04:48Z</time>
      </trkpt>
      <trkpt lat="43.653970" lon="6.927970">
       <ele>214.92</ele>
       <time>2014-11-03T21:04:49Z</time>
      </trkpt>
      <trkpt lat="43.653980" lon="6.928070">
       <ele>214.42</ele>
       <time>2014-11-03T21:04:50Z</time>
      </trkpt>
      <trkpt lat="43.653960" lon="6.928130">
       <ele>214.56</ele>
       <time>2014-11-03T21:04:51Z</time>
      </trkpt>
      <trkpt lat="43.653900" lon="6.928160">
       <ele>215.55</ele>
       <time>2014-11-03T21:04:53Z</time>
      </trkpt>
      <trkpt lat="43.653900" lon="6.928240">
       <ele>215.35</ele>
       <time>2014-11-03T21:04:54Z</time>
      </trkpt>
      <trkpt lat="43.654100" lon="6.930360">
       <ele>206.57</ele>
       <time>2014-11-03T21:05:26Z</time>
      </trkpt>
      <trkpt lat="43.654160" lon="6.930660">
       <ele>204.56</ele>
       <time>2014-11-03T21:05:31Z</time>
      </trkpt>
      <trkpt lat="43.654220" lon="6.931110">
       <ele>202.83</ele>
       <time>2014-11-03T21:05:38Z</time>
      </trkpt>
      <trkpt lat="43.654290" lon="6.931870">
       <ele>199.68</ele>
       <time>2014-11-03T21:05:49Z</time>
      </trkpt>
      <trkpt lat="43.654330" lon="6.932320">
       <ele>197.86</ele>
       <time>2014-11-03T21:05:56Z</time>
      </trkpt>
      <trkpt lat="43.654320" lon="6.932860">
       <ele>195.7</ele>
       <time>2014-11-03T21:06:04Z</time>
      </trkpt>
      <trkpt lat="43.654300" lon="6.933350">
       <ele>193.58</ele>
       <time>2014-11-03T21:06:11Z</time>
      </trkpt>
      <trkpt lat="43.654250" lon="6.933670">
       <ele>191.86</ele>
       <time>2014-11-03T21:06:16Z</time>
      </trkpt>
      <trkpt lat="43.653970" lon="6.934410">
       <ele>190.18</ele>
       <time>2014-11-03T21:06:29Z</time>
      </trkpt>
      <trkpt lat="43.653910" lon="6.934620">
       <ele>189.45</ele>
       <time>2014-11-03T21:06:32Z</time>
      </trkpt>
      <trkpt lat="43.653670" lon="6.935710">
       <ele>189</ele>
       <time>2014-11-03T21:06:49Z</time>
      </trkpt>
      <trkpt lat="43.653660" lon="6.935930">
       <ele>189.15</ele>
       <time>2014-11-03T21:06:53Z</time>
      </trkpt>
      <trkpt lat="43.653680" lon="6.936100">
       <ele>189.04</ele>
       <time>2014-11-03T21:06:55Z</time>
      </trkpt>
      <trkpt lat="43.653750" lon="6.936250">
       <ele>188.23</ele>
       <time>2014-11-03T21:06:58Z</time>
      </trkpt>
      <trkpt lat="43.653830" lon="6.936360">
       <ele>187.28</ele>
       <time>2014-11-03T21:07:00Z</time>
      </trkpt>
      <trkpt lat="43.654150" lon="6.936670">
       <ele>183.25</ele>
       <time>2014-11-03T21:07:08Z</time>
      </trkpt>
      <trkpt lat="43.654220" lon="6.936810">
       <ele>183.41</ele>
       <time>2014-11-03T21:07:11Z</time>
      </trkpt>
      <trkpt lat="43.654260" lon="6.936990">
       <ele>183.74</ele>
       <time>2014-11-03T21:07:14Z</time>
      </trkpt>
      <trkpt lat="43.654240" lon="6.937440">
       <ele>184.54</ele>
       <time>2014-11-03T21:07:20Z</time>
      </trkpt>
      <trkpt lat="43.654250" lon="6.937570">
       <ele>184.57</ele>
       <time>2014-11-03T21:07:22Z</time>
      </trkpt>
      <trkpt lat="43.654340" lon="6.937840">
       <ele>183.92</ele>
       <time>2014-11-03T21:07:27Z</time>
      </trkpt>
      <trkpt lat="43.654690" lon="6.938420">
       <ele>180.68</ele>
       <time>2014-11-03T21:07:38Z</time>
      </trkpt>
      <trkpt lat="43.654800" lon="6.938630">
       <ele>179.85</ele>
       <time>2014-11-03T21:07:42Z</time>
      </trkpt>
      <trkpt lat="43.654950" lon="6.938980">
       <ele>178.52</ele>
       <time>2014-11-03T21:07:48Z</time>
      </trkpt>
      <trkpt lat="43.655080" lon="6.939190">
       <ele>177.6</ele>
       <time>2014-11-03T21:07:52Z</time>
      </trkpt>
      <trkpt lat="43.655110" lon="6.939180">
       <ele>177.46</ele>
       <time>2014-11-03T21:07:53Z</time>
      </trkpt>
      <trkpt lat="43.655200" lon="6.939250">
       <ele>176.98</ele>
       <time>2014-11-03T21:07:55Z</time>
      </trkpt>
      <trkpt lat="43.655220" lon="6.939380">
       <ele>176.82</ele>
       <time>2014-11-03T21:07:57Z</time>
      </trkpt>
      <trkpt lat="43.655200" lon="6.939450">
       <ele>176.86</ele>
       <time>2014-11-03T21:07:58Z</time>
      </trkpt>
      <trkpt lat="43.655170" lon="6.939490">
       <ele>176.95</ele>
       <time>2014-11-03T21:07:59Z</time>
      </trkpt>
      <trkpt lat="43.655110" lon="6.939500">
       <ele>177.18</ele>
       <time>2014-11-03T21:08:00Z</time>
      </trkpt>
      <trkpt lat="43.655080" lon="6.939720">
       <ele>177.08</ele>
       <time>2014-11-03T21:08:04Z</time>
      </trkpt>
      <trkpt lat="43.655080" lon="6.939860">
       <ele>176.95</ele>
       <time>2014-11-03T21:08:06Z</time>
      </trkpt>
      <trkpt lat="43.655350" lon="6.941120">
       <ele>172.13</ele>
       <time>2014-11-03T21:08:26Z</time>
      </trkpt>
      <trkpt lat="43.655320" lon="6.941450">
       <ele>171.01</ele>
       <time>2014-11-03T21:08:30Z</time>
      </trkpt>
      <trkpt lat="43.655260" lon="6.941640">
       <ele>170.48</ele>
       <time>2014-11-03T21:08:34Z</time>
      </trkpt>
      <trkpt lat="43.655170" lon="6.941830">
       <ele>169.53</ele>
       <time>2014-11-03T21:08:37Z</time>
      </trkpt>
      <trkpt lat="43.654900" lon="6.942280">
       <ele>167.13</ele>
       <time>2014-11-03T21:08:46Z</time>
      </trkpt>
      <trkpt lat="43.654580" lon="6.942880">
       <ele>164.73</ele>
       <time>2014-11-03T21:08:57Z</time>
      </trkpt>
      <trkpt lat="43.654120" lon="6.943560">
       <ele>161.34</ele>
       <time>2014-11-03T21:09:11Z</time>
      </trkpt>
      <trkpt lat="43.654070" lon="6.943660">
       <ele>161.1</ele>
       <time>2014-11-03T21:09:13Z</time>
      </trkpt>
      <trkpt lat="43.654040" lon="6.943700">
       <ele>161.02</ele>
       <time>2014-11-03T21:09:14Z</time>
      </trkpt>
      <trkpt lat="43.653950" lon="6.944080">
       <ele>159.42</ele>
       <time>2014-11-03T21:09:20Z</time>
      </trkpt>
      <trkpt lat="43.653920" lon="6.944330">
       <ele>158.8</ele>
       <time>2014-11-03T21:09:23Z</time>
      </trkpt>
      <trkpt lat="43.653960" lon="6.944360">
       <ele>158.77</ele>
       <time>2014-11-03T21:09:24Z</time>
      </trkpt>
      <trkpt lat="43.654010" lon="6.944440">
       <ele>158.67</ele>
       <time>2014-11-03T21:09:26Z</time>
      </trkpt>
      <trkpt lat="43.654030" lon="6.944560">
       <ele>158.53</ele>
       <time>2014-11-03T21:09:28Z</time>
      </trkpt>
      <trkpt lat="43.654000" lon="6.944670">
       <ele>158.4</ele>
       <time>2014-11-03T21:09:30Z</time>
      </trkpt>
      <trkpt lat="43.653850" lon="6.944870">
       <ele>158.16</ele>
       <time>2014-11-03T21:09:34Z</time>
      </trkpt>
      <trkpt lat="43.653830" lon="6.944930">
       <ele>158.08</ele>
       <time>2014-11-03T21:09:35Z</time>
      </trkpt>
      <trkpt lat="43.653820" lon="6.945050">
       <ele>158.05</ele>
       <time>2014-11-03T21:09:37Z</time>
      </trkpt>
      <trkpt lat="43.653870" lon="6.945410">
       <ele>158.6</ele>
       <time>2014-11-03T21:09:42Z</time>
      </trkpt>
      <trkpt lat="43.653860" lon="6.945490">
       <ele>158.68</ele>
       <time>2014-11-03T21:09:43Z</time>
      </trkpt>
      <trkpt lat="43.653650" lon="6.946240">
       <ele>157.96</ele>
       <time>2014-11-03T21:09:55Z</time>
      </trkpt>
      <trkpt lat="43.653580" lon="6.946660">
       <ele>157.37</ele>
       <time>2014-11-03T21:10:02Z</time>
      </trkpt>
      <trkpt lat="43.653340" lon="6.947760">
       <ele>154.14</ele>
       <time>2014-11-03T21:10:19Z</time>
      </trkpt>
      <trkpt lat="43.653330" lon="6.948540">
       <ele>152.74</ele>
       <time>2014-11-03T21:10:31Z</time>
      </trkpt>
      <trkpt lat="43.653310" lon="6.948670">
       <ele>153.15</ele>
       <time>2014-11-03T21:10:33Z</time>
      </trkpt>
      <trkpt lat="43.653230" lon="6.948810">
       <ele>153.38</ele>
       <time>2014-11-03T21:10:36Z</time>
      </trkpt>
      <trkpt lat="43.652630" lon="6.949570">
       <ele>151.85</ele>
       <time>2014-11-03T21:10:52Z</time>
      </trkpt>
      <trkpt lat="43.652500" lon="6.949780">
       <ele>151</ele>
       <time>2014-11-03T21:10:57Z</time>
      </trkpt>
      <trkpt lat="43.652420" lon="6.949930">
       <ele>150.72</ele>
       <time>2014-11-03T21:10:59Z</time>
      </trkpt>
      <trkpt lat="43.652340" lon="6.950180">
       <ele>150.21</ele>
       <time>2014-11-03T21:11:03Z</time>
      </trkpt>
      <trkpt lat="43.652290" lon="6.950360">
       <ele>149.81</ele>
       <time>2014-11-03T21:11:06Z</time>
      </trkpt>
      <trkpt lat="43.652250" lon="6.950600">
       <ele>149.37</ele>
       <time>2014-11-03T21:11:10Z</time>
      </trkpt>
      <trkpt lat="43.652250" lon="6.950870">
       <ele>149.01</ele>
       <time>2014-11-03T21:11:14Z</time>
      </trkpt>
      <trkpt lat="43.652290" lon="6.951160">
       <ele>148.46</ele>
       <time>2014-11-03T21:11:19Z</time>
      </trkpt>
      <trkpt lat="43.652370" lon="6.951540">
       <ele>147.84</ele>
       <time>2014-11-03T21:11:24Z</time>
      </trkpt>
      <trkpt lat="43.652530" lon="6.952070">
       <ele>147.7</ele>
       <time>2014-11-03T21:11:33Z</time>
      </trkpt>
      <trkpt lat="43.652570" lon="6.952190">
       <ele>147.78</ele>
       <time>2014-11-03T21:11:35Z</time>
      </trkpt>
      <trkpt lat="43.652690" lon="6.952440">
       <ele>148.22</ele>
       <time>2014-11-03T21:11:40Z</time>
      </trkpt>
      <trkpt lat="43.652970" lon="6.952850">
       <ele>148.56</ele>
       <time>2014-11-03T21:11:48Z</time>
      </trkpt>
      <trkpt lat="43.653020" lon="6.952980">
       <ele>148.39</ele>
       <time>2014-11-03T21:11:50Z</time>
      </trkpt>
      <trkpt lat="43.653050" lon="6.953190">
       <ele>147.81</ele>
       <time>2014-11-03T21:11:53Z</time>
      </trkpt>
      <trkpt lat="43.653030" lon="6.953430">
       <ele>147.65</ele>
       <time>2014-11-03T21:11:57Z</time>
      </trkpt>
      <trkpt lat="43.652920" lon="6.953680">
       <ele>148.18</ele>
       <time>2014-11-03T21:12:01Z</time>
      </trkpt>
      <trkpt lat="43.652670" lon="6.954160">
       <ele>149</ele>
       <time>2014-11-03T21:12:10Z</time>
      </trkpt>
      <trkpt lat="43.652620" lon="6.954300">
       <ele>149.72</ele>
       <time>2014-11-03T21:12:13Z</time>
      </trkpt>
      <trkpt lat="43.652460" lon="6.955110">
       <ele>153.96</ele>
       <time>2014-11-03T21:12:25Z</time>
      </trkpt>
      <trkpt lat="43.652480" lon="6.955330">
       <ele>154.34</ele>
       <time>2014-11-03T21:12:29Z</time>
      </trkpt>
      <trkpt lat="43.652580" lon="6.955710">
       <ele>155.28</ele>
       <time>2014-11-03T21:12:35Z</time>
      </trkpt>
      <trkpt lat="43.652650" lon="6.955910">
       <ele>156.03</ele>
       <time>2014-11-03T21:12:38Z</time>
      </trkpt>
      <trkpt lat="43.652660" lon="6.956090">
       <ele>156.82</ele>
       <time>2014-11-03T21:12:41Z</time>
      </trkpt>
      <trkpt lat="43.652640" lon="6.956250">
       <ele>157.42</ele>
       <time>2014-11-03T21:12:43Z</time>
      </trkpt>
      <trkpt lat="43.652540" lon="6.956450">
       <ele>158.04</ele>
       <time>2014-11-03T21:12:47Z</time>
      </trkpt>
      <trkpt lat="43.652160" lon="6.957080">
       <ele>160.76</ele>
       <time>2014-11-03T21:12:59Z</time>
      </trkpt>
      <trkpt lat="43.652090" lon="6.957330">
       <ele>162</ele>
       <time>2014-11-03T21:13:03Z</time>
      </trkpt>
      <trkpt lat="43.652070" lon="6.957570">
       <ele>163.09</ele>
       <time>2014-11-03T21:13:07Z</time>
      </trkpt>
      <trkpt lat="43.652080" lon="6.957890">
       <ele>163.91</ele>
       <time>2014-11-03T21:13:12Z</time>
      </trkpt>
      <trkpt lat="43.652020" lon="6.958700">
       <ele>166.74</ele>
       <time>2014-11-03T21:13:24Z</time>
      </trkpt>
      <trkpt lat="43.651980" lon="6.959620">
       <ele>172.82</ele>
       <time>2014-11-03T21:13:38Z</time>
      </trkpt>
      <trkpt lat="43.651990" lon="6.959910">
       <ele>175.17</ele>
       <time>2014-11-03T21:13:42Z</time>
      </trkpt>
      <trkpt lat="43.652090" lon="6.960440">
       <ele>179.69</ele>
       <time>2014-11-03T21:13:50Z</time>
      </trkpt>
      <trkpt lat="43.652100" lon="6.960590">
       <ele>180.71</ele>
       <time>2014-11-03T21:13:52Z</time>
      </trkpt>
      <trkpt lat="43.652070" lon="6.961180">
       <ele>184.59</ele>
       <time>2014-11-03T21:14:01Z</time>
      </trkpt>
      <trkpt lat="43.652020" lon="6.961260">
       <ele>184.83</ele>
       <time>2014-11-03T21:14:03Z</time>
      </trkpt>
      <trkpt lat="43.651930" lon="6.961310">
       <ele>184.57</ele>
       <time>2014-11-03T21:14:05Z</time>
      </trkpt>
      <trkpt lat="43.651820" lon="6.961310">
       <ele>183.74</ele>
       <time>2014-11-03T21:14:07Z</time>
      </trkpt>
      <trkpt lat="43.651790" lon="6.961280">
       <ele>183.24</ele>
       <time>2014-11-03T21:14:08Z</time>
      </trkpt>
      <trkpt lat="43.651740" lon="6.961200">
       <ele>182.12</ele>
       <time>2014-11-03T21:14:10Z</time>
      </trkpt>
      <trkpt lat="43.651590" lon="6.960740">
       <ele>177.7</ele>
       <time>2014-11-03T21:14:17Z</time>
      </trkpt>
      <trkpt lat="43.651450" lon="6.960470">
       <ele>176.42</ele>
       <time>2014-11-03T21:14:22Z</time>
      </trkpt>
      <trkpt lat="43.651160" lon="6.960150">
       <ele>175.5</ele>
       <time>2014-11-03T21:14:30Z</time>
      </trkpt>
      <trkpt lat="43.651000" lon="6.960030">
       <ele>175.41</ele>
       <time>2014-11-03T21:14:34Z</time>
      </trkpt>
      <trkpt lat="43.650840" lon="6.960020">
       <ele>176.11</ele>
       <time>2014-11-03T21:14:37Z</time>
      </trkpt>
      <trkpt lat="43.650400" lon="6.960200">
       <ele>179.67</ele>
       <time>2014-11-03T21:14:46Z</time>
      </trkpt>
      <trkpt lat="43.650300" lon="6.960210">
       <ele>180.23</ele>
       <time>2014-11-03T21:14:48Z</time>
      </trkpt>
      <trkpt lat="43.650000" lon="6.960180">
       <ele>181.64</ele>
       <time>2014-11-03T21:14:55Z</time>
      </trkpt>
      <trkpt lat="43.649730" lon="6.960110">
       <ele>182.09</ele>
       <time>2014-11-03T21:15:00Z</time>
      </trkpt>
      <trkpt lat="43.649440" lon="6.960060">
       <ele>182.61</ele>
       <time>2014-11-03T21:15:06Z</time>
      </trkpt>
      <trkpt lat="43.649290" lon="6.960070">
       <ele>183.03</ele>
       <time>2014-11-03T21:15:10Z</time>
      </trkpt>
      <trkpt lat="43.649160" lon="6.960250">
       <ele>184.12</ele>
       <time>2014-11-03T21:15:13Z</time>
      </trkpt>
      <trkpt lat="43.649120" lon="6.960350">
       <ele>184.26</ele>
       <time>2014-11-03T21:15:15Z</time>
      </trkpt>
      <trkpt lat="43.649010" lon="6.960800">
       <ele>185.51</ele>
       <time>2014-11-03T21:15:22Z</time>
      </trkpt>
      <trkpt lat="43.648890" lon="6.960980">
       <ele>185.74</ele>
       <time>2014-11-03T21:15:26Z</time>
      </trkpt>
      <trkpt lat="43.648540" lon="6.961290">
       <ele>185.71</ele>
       <time>2014-11-03T21:15:35Z</time>
      </trkpt>
      <trkpt lat="43.647830" lon="6.962310">
       <ele>191.19</ele>
       <time>2014-11-03T21:15:56Z</time>
      </trkpt>
      <trkpt lat="43.647680" lon="6.962490">
       <ele>192.17</ele>
       <time>2014-11-03T21:16:00Z</time>
      </trkpt>
      <trkpt lat="43.647450" lon="6.962710">
       <ele>193.38</ele>
       <time>2014-11-03T21:16:06Z</time>
      </trkpt>
      <trkpt lat="43.647110" lon="6.962800">
       <ele>193.7</ele>
       <time>2014-11-03T21:16:13Z</time>
      </trkpt>
      <trkpt lat="43.646510" lon="6.962920">
       <ele>194</ele>
       <time>2014-11-03T21:16:25Z</time>
      </trkpt>
      <trkpt lat="43.646390" lon="6.962960">
       <ele>194.21</ele>
       <time>2014-11-03T21:16:28Z</time>
      </trkpt>
      <trkpt lat="43.646220" lon="6.963030">
       <ele>194.81</ele>
       <time>2014-11-03T21:16:32Z</time>
      </trkpt>
      <trkpt lat="43.645830" lon="6.963260">
       <ele>197.69</ele>
       <time>2014-11-03T21:16:40Z</time>
      </trkpt>
      <trkpt lat="43.645690" lon="6.963310">
       <ele>198.89</ele>
       <time>2014-11-03T21:16:43Z</time>
      </trkpt>
      <trkpt lat="43.645410" lon="6.963300">
       <ele>199.3</ele>
       <time>2014-11-03T21:16:49Z</time>
      </trkpt>
      <trkpt lat="43.645100" lon="6.963320">
       <ele>200.43</ele>
       <time>2014-11-03T21:16:56Z</time>
      </trkpt>
      <trkpt lat="43.644400" lon="6.963520">
       <ele>200.25</ele>
       <time>2014-11-03T21:17:10Z</time>
      </trkpt>
      <trkpt lat="43.644290" lon="6.963570">
       <ele>200.13</ele>
       <time>2014-11-03T21:17:13Z</time>
      </trkpt>
      <trkpt lat="43.644210" lon="6.963650">
       <ele>200.57</ele>
       <time>2014-11-03T21:17:15Z</time>
      </trkpt>
      <trkpt lat="43.644130" lon="6.963840">
       <ele>202.33</ele>
       <time>2014-11-03T21:17:18Z</time>
      </trkpt>
      <trkpt lat="43.644070" lon="6.964230">
       <ele>206.7</ele>
       <time>2014-11-03T21:17:24Z</time>
      </trkpt>
      <trkpt lat="43.644030" lon="6.964390">
       <ele>208.13</ele>
       <time>2014-11-03T21:17:27Z</time>
      </trkpt>
      <trkpt lat="43.643960" lon="6.964550">
       <ele>209.13</ele>
       <time>2014-11-03T21:17:30Z</time>
      </trkpt>
      <trkpt lat="43.643610" lon="6.964860">
       <ele>208.17</ele>
       <time>2014-11-03T21:17:38Z</time>
      </trkpt>
      <trkpt lat="43.643520" lon="6.964960">
       <ele>208.06</ele>
       <time>2014-11-03T21:17:41Z</time>
      </trkpt>
      <trkpt lat="43.643390" lon="6.965140">
       <ele>208.96</ele>
       <time>2014-11-03T21:17:44Z</time>
      </trkpt>
      <trkpt lat="43.643080" lon="6.965700">
       <ele>213.79</ele>
       <time>2014-11-03T21:17:55Z</time>
      </trkpt>
      <trkpt lat="43.642950" lon="6.965870">
       <ele>214.05</ele>
       <time>2014-11-03T21:17:59Z</time>
      </trkpt>
      <trkpt lat="43.642820" lon="6.965950">
       <ele>212.62</ele>
       <time>2014-11-03T21:18:02Z</time>
      </trkpt>
      <trkpt lat="43.642620" lon="6.965990">
       <ele>210.15</ele>
       <time>2014-11-03T21:18:06Z</time>
      </trkpt>
      <trkpt lat="43.642430" lon="6.966050">
       <ele>208.25</ele>
       <time>2014-11-03T21:18:10Z</time>
      </trkpt>
      <trkpt lat="43.642370" lon="6.966110">
       <ele>207.94</ele>
       <time>2014-11-03T21:18:11Z</time>
      </trkpt>
      <trkpt lat="43.642310" lon="6.966210">
       <ele>207.71</ele>
       <time>2014-11-03T21:18:13Z</time>
      </trkpt>
      <trkpt lat="43.642280" lon="6.966330">
       <ele>207.69</ele>
       <time>2014-11-03T21:18:15Z</time>
      </trkpt>
      <trkpt lat="43.642280" lon="6.966510">
       <ele>208.05</ele>
       <time>2014-11-03T21:18:18Z</time>
      </trkpt>
      <trkpt lat="43.642300" lon="6.966620">
       <ele>208.5</ele>
       <time>2014-11-03T21:18:20Z</time>
      </trkpt>
      <trkpt lat="43.642350" lon="6.966760">
       <ele>209.13</ele>
       <time>2014-11-03T21:18:22Z</time>
      </trkpt>
      <trkpt lat="43.642410" lon="6.966830">
       <ele>209.86</ele>
       <time>2014-11-03T21:18:24Z</time>
      </trkpt>
      <trkpt lat="43.642500" lon="6.966900">
       <ele>211.02</ele>
       <time>2014-11-03T21:18:26Z</time>
      </trkpt>
      <trkpt lat="43.642640" lon="6.966910">
       <ele>212.84</ele>
       <time>2014-11-03T21:18:29Z</time>
      </trkpt>
      <trkpt lat="43.642950" lon="6.966860">
       <ele>216.92</ele>
       <time>2014-11-03T21:18:35Z</time>
      </trkpt>
      <trkpt lat="43.643160" lon="6.966880">
       <ele>219.74</ele>
       <time>2014-11-03T21:18:40Z</time>
      </trkpt>
      <trkpt lat="43.643230" lon="6.966910">
       <ele>220.64</ele>
       <time>2014-11-03T21:18:41Z</time>
      </trkpt>
      <trkpt lat="43.643280" lon="6.966970">
       <ele>221.3</ele>
       <time>2014-11-03T21:18:42Z</time>
      </trkpt>
      <trkpt lat="43.643320" lon="6.967060">
       <ele>221.8</ele>
       <time>2014-11-03T21:18:44Z</time>
      </trkpt>
      <trkpt lat="43.643310" lon="6.967190">
       <ele>221.7</ele>
       <time>2014-11-03T21:18:46Z</time>
      </trkpt>
      <trkpt lat="43.643280" lon="6.967270">
       <ele>221.3</ele>
       <time>2014-11-03T21:18:47Z</time>
      </trkpt>
      <trkpt lat="43.642900" lon="6.967850">
       <ele>221.76</ele>
       <time>2014-11-03T21:18:59Z</time>
      </trkpt>
      <trkpt lat="43.642830" lon="6.967930">
       <ele>222.28</ele>
       <time>2014-11-03T21:19:01Z</time>
      </trkpt>
      <trkpt lat="43.642280" lon="6.968260">
       <ele>220.77</ele>
       <time>2014-11-03T21:19:13Z</time>
      </trkpt>
      <trkpt lat="43.642150" lon="6.968370">
       <ele>220.43</ele>
       <time>2014-11-03T21:19:17Z</time>
      </trkpt>
      <trkpt lat="43.641940" lon="6.968600">
       <ele>220.95</ele>
       <time>2014-11-03T21:19:22Z</time>
      </trkpt>
      <trkpt lat="43.641700" lon="6.968790">
       <ele>219.88</ele>
       <time>2014-11-03T21:19:28Z</time>
      </trkpt>
      <trkpt lat="43.641360" lon="6.969190">
       <ele>219.3</ele>
       <time>2014-11-03T21:19:37Z</time>
      </trkpt>
      <trkpt lat="43.641300" lon="6.969360">
       <ele>219.83</ele>
       <time>2014-11-03T21:19:40Z</time>
      </trkpt>
      <trkpt lat="43.641290" lon="6.969440">
       <ele>220.48</ele>
       <time>2014-11-03T21:19:41Z</time>
      </trkpt>
      <trkpt lat="43.641290" lon="6.969580">
       <ele>222.07</ele>
       <time>2014-11-03T21:19:43Z</time>
      </trkpt>
      <trkpt lat="43.641330" lon="6.969980">
       <ele>227.52</ele>
       <time>2014-11-03T21:19:49Z</time>
      </trkpt>
      <trkpt lat="43.641320" lon="6.970140">
       <ele>229.01</ele>
       <time>2014-11-03T21:19:52Z</time>
      </trkpt>
      <trkpt lat="43.641170" lon="6.970700">
       <ele>231.84</ele>
       <time>2014-11-03T21:20:01Z</time>
      </trkpt>
      <trkpt lat="43.641100" lon="6.970890">
       <ele>232.67</ele>
       <time>2014-11-03T21:20:04Z</time>
      </trkpt>
      <trkpt lat="43.641050" lon="6.970960">
       <ele>232.65</ele>
       <time>2014-11-03T21:20:05Z</time>
      </trkpt>
      <trkpt lat="43.640930" lon="6.971050">
       <ele>231.78</ele>
       <time>2014-11-03T21:20:08Z</time>
      </trkpt>
      <trkpt lat="43.640550" lon="6.971080">
       <ele>228.49</ele>
       <time>2014-11-03T21:20:16Z</time>
      </trkpt>
      <trkpt lat="43.640370" lon="6.971120">
       <ele>228.01</ele>
       <time>2014-11-03T21:20:20Z</time>
      </trkpt>
      <trkpt lat="43.639880" lon="6.971350">
       <ele>228.37</ele>
       <time>2014-11-03T21:20:31Z</time>
      </trkpt>
      <trkpt lat="43.639790" lon="6.971410">
       <ele>228.27</ele>
       <time>2014-11-03T21:20:33Z</time>
      </trkpt>
      <trkpt lat="43.639710" lon="6.971490">
       <ele>228.64</ele>
       <time>2014-11-03T21:20:35Z</time>
      </trkpt>
      <trkpt lat="43.639390" lon="6.972000">
       <ele>232.08</ele>
       <time>2014-11-03T21:20:45Z</time>
      </trkpt>
      <trkpt lat="43.639290" lon="6.972120">
       <ele>232.6</ele>
       <time>2014-11-03T21:20:48Z</time>
      </trkpt>
      <trkpt lat="43.639140" lon="6.972230">
       <ele>232.3</ele>
       <time>2014-11-03T21:20:51Z</time>
      </trkpt>
      <trkpt lat="43.638870" lon="6.972320">
       <ele>228.45</ele>
       <time>2014-11-03T21:20:57Z</time>
      </trkpt>
      <trkpt lat="43.638770" lon="6.972440">
       <ele>228.13</ele>
       <time>2014-11-03T21:21:00Z</time>
      </trkpt>
      <trkpt lat="43.638730" lon="6.972600">
       <ele>228.55</ele>
       <time>2014-11-03T21:21:02Z</time>
      </trkpt>
      <trkpt lat="43.638690" lon="6.972870">
       <ele>229.01</ele>
       <time>2014-11-03T21:21:06Z</time>
      </trkpt>
      <trkpt lat="43.638680" lon="6.973170">
       <ele>230.14</ele>
       <time>2014-11-03T21:21:11Z</time>
      </trkpt>
      <trkpt lat="43.638700" lon="6.973310">
       <ele>231.22</ele>
       <time>2014-11-03T21:21:13Z</time>
      </trkpt>
      <trkpt lat="43.638960" lon="6.974620">
       <ele>236.73</ele>
       <time>2014-11-03T21:21:33Z</time>
      </trkpt>
      <trkpt lat="43.639080" lon="6.975120">
       <ele>236.89</ele>
       <time>2014-11-03T21:21:41Z</time>
      </trkpt>
      <trkpt lat="43.639130" lon="6.975260">
       <ele>237.23</ele>
       <time>2014-11-03T21:21:44Z</time>
      </trkpt>
      <trkpt lat="43.639250" lon="6.975490">
       <ele>237.82</ele>
       <time>2014-11-03T21:21:48Z</time>
      </trkpt>
      <trkpt lat="43.639300" lon="6.975650">
       <ele>238.05</ele>
       <time>2014-11-03T21:21:50Z</time>
      </trkpt>
      <trkpt lat="43.639360" lon="6.975680">
       <ele>238.17</ele>
       <time>2014-11-03T21:21:52Z</time>
      </trkpt>
      <trkpt lat="43.639430" lon="6.975810">
       <ele>238.32</ele>
       <time>2014-11-03T21:21:54Z</time>
      </trkpt>
      <trkpt lat="43.639430" lon="6.975940">
       <ele>238.4</ele>
       <time>2014-11-03T21:21:56Z</time>
      </trkpt>
      <trkpt lat="43.639410" lon="6.975970">
       <ele>238.41</ele>
       <time>2014-11-03T21:21:57Z</time>
      </trkpt>
      <trkpt lat="43.639440" lon="6.976110">
       <ele>238.55</ele>
       <time>2014-11-03T21:21:59Z</time>
      </trkpt>
      <trkpt lat="43.639680" lon="6.976800">
       <ele>239.02</ele>
       <time>2014-11-03T21:22:10Z</time>
      </trkpt>
      <trkpt lat="43.639880" lon="6.977590">
       <ele>238.43</ele>
       <time>2014-11-03T21:22:23Z</time>
      </trkpt>
      <trkpt lat="43.639880" lon="6.978310">
       <ele>238.43</ele>
       <time>2014-11-03T21:22:34Z</time>
      </trkpt>
      <trkpt lat="43.639910" lon="6.978600">
       <ele>237.68</ele>
       <time>2014-11-03T21:22:38Z</time>
      </trkpt>
      <trkpt lat="43.639930" lon="6.978710">
       <ele>237.35</ele>
       <time>2014-11-03T21:22:40Z</time>
      </trkpt>
      <trkpt lat="43.639980" lon="6.978850">
       <ele>236.83</ele>
       <time>2014-11-03T21:22:42Z</time>
      </trkpt>
      <trkpt lat="43.640100" lon="6.979020">
       <ele>236.85</ele>
       <time>2014-11-03T21:22:46Z</time>
      </trkpt>
      <trkpt lat="43.640140" lon="6.979120">
       <ele>236.8</ele>
       <time>2014-11-03T21:22:47Z</time>
      </trkpt>
      <trkpt lat="43.640150" lon="6.979190">
       <ele>236.68</ele>
       <time>2014-11-03T21:22:49Z</time>
      </trkpt>
      <trkpt lat="43.640140" lon="6.979310">
       <ele>236.5</ele>
       <time>2014-11-03T21:22:50Z</time>
      </trkpt>
      <trkpt lat="43.640110" lon="6.979370">
       <ele>236.28</ele>
       <time>2014-11-03T21:22:51Z</time>
      </trkpt>
      <trkpt lat="43.640060" lon="6.979420">
       <ele>235.99</ele>
       <time>2014-11-03T21:22:53Z</time>
      </trkpt>
      <trkpt lat="43.640020" lon="6.979610">
       <ele>235.56</ele>
       <time>2014-11-03T21:22:56Z</time>
      </trkpt>
      <trkpt lat="43.640080" lon="6.980130">
       <ele>235.2</ele>
       <time>2014-11-03T21:23:04Z</time>
      </trkpt>
      <trkpt lat="43.640080" lon="6.980410">
       <ele>234.8</ele>
       <time>2014-11-03T21:23:08Z</time>
      </trkpt>
      <trkpt lat="43.639960" lon="6.981070">
       <ele>233.7</ele>
       <time>2014-11-03T21:23:18Z</time>
      </trkpt>
      <trkpt lat="43.639980" lon="6.981400">
       <ele>232.81</ele>
       <time>2014-11-03T21:23:23Z</time>
      </trkpt>
      <trkpt lat="43.640050" lon="6.981650">
       <ele>232.04</ele>
       <time>2014-11-03T21:23:27Z</time>
      </trkpt>
      <trkpt lat="43.640170" lon="6.981940">
       <ele>231.34</ele>
       <time>2014-11-03T21:23:32Z</time>
      </trkpt>
      <trkpt lat="43.640200" lon="6.982060">
       <ele>231.06</ele>
       <time>2014-11-03T21:23:34Z</time>
      </trkpt>
      <trkpt lat="43.640230" lon="6.982280">
       <ele>230.53</ele>
       <time>2014-11-03T21:23:37Z</time>
      </trkpt>
      <trkpt lat="43.640240" lon="6.982560">
       <ele>229.94</ele>
       <time>2014-11-03T21:23:42Z</time>
      </trkpt>
      <trkpt lat="43.640320" lon="6.982840">
       <ele>229.53</ele>
       <time>2014-11-03T21:23:46Z</time>
      </trkpt>
      <trkpt lat="43.640360" lon="6.982920">
       <ele>229.34</ele>
       <time>2014-11-03T21:23:47Z</time>
      </trkpt>
      <trkpt lat="43.640880" lon="6.983680">
       <ele>226.94</ele>
       <time>2014-11-03T21:24:03Z</time>
      </trkpt>
      <trkpt lat="43.640950" lon="6.983840">
       <ele>227.34</ele>
       <time>2014-11-03T21:24:06Z</time>
      </trkpt>
      <trkpt lat="43.641020" lon="6.984110">
       <ele>227.83</ele>
       <time>2014-11-03T21:24:10Z</time>
      </trkpt>
      <trkpt lat="43.641110" lon="6.984730">
       <ele>229.55</ele>
       <time>2014-11-03T21:24:20Z</time>
      </trkpt>
      <trkpt lat="43.641080" lon="6.985430">
       <ele>228.58</ele>
       <time>2014-11-03T21:24:30Z</time>
      </trkpt>
      <trkpt lat="43.641140" lon="6.986310">
       <ele>227.06</ele>
       <time>2014-11-03T21:24:44Z</time>
      </trkpt>
      <trkpt lat="43.641140" lon="6.986620">
       <ele>226.55</ele>
       <time>2014-11-03T21:24:48Z</time>
      </trkpt>
      <trkpt lat="43.641110" lon="6.987110">
       <ele>226.33</ele>
       <time>2014-11-03T21:24:56Z</time>
      </trkpt>
      <trkpt lat="43.641170" lon="6.987710">
       <ele>225.23</ele>
       <time>2014-11-03T21:25:05Z</time>
      </trkpt>
      <trkpt lat="43.641230" lon="6.987950">
       <ele>223.91</ele>
       <time>2014-11-03T21:25:08Z</time>
      </trkpt>
      <trkpt lat="43.641340" lon="6.988120">
       <ele>222.65</ele>
       <time>2014-11-03T21:25:12Z</time>
      </trkpt>
      <trkpt lat="43.641580" lon="6.988340">
       <ele>220.45</ele>
       <time>2014-11-03T21:25:18Z</time>
      </trkpt>
      <trkpt lat="43.641640" lon="6.988450">
       <ele>220.79</ele>
       <time>2014-11-03T21:25:20Z</time>
      </trkpt>
      <trkpt lat="43.641650" lon="6.988620">
       <ele>221.74</ele>
       <time>2014-11-03T21:25:23Z</time>
      </trkpt>
      <trkpt lat="43.641630" lon="6.988730">
       <ele>222.37</ele>
       <time>2014-11-03T21:25:24Z</time>
      </trkpt>
      <trkpt lat="43.641350" lon="6.989440">
       <ele>225.13</ele>
       <time>2014-11-03T21:25:36Z</time>
      </trkpt>
      <trkpt lat="43.641130" lon="6.989920">
       <ele>224.97</ele>
       <time>2014-11-03T21:25:45Z</time>
      </trkpt>
      <trkpt lat="43.640960" lon="6.990140">
       <ele>222.68</ele>
       <time>2014-11-03T21:25:50Z</time>
      </trkpt>
      <trkpt lat="43.640760" lon="6.990320">
       <ele>221</ele>
       <time>2014-11-03T21:25:55Z</time>
      </trkpt>
      <trkpt lat="43.640640" lon="6.990470">
       <ele>221.34</ele>
       <time>2014-11-03T21:25:58Z</time>
      </trkpt>
      <trkpt lat="43.640460" lon="6.990800">
       <ele>220.74</ele>
       <time>2014-11-03T21:26:04Z</time>
      </trkpt>
      <trkpt lat="43.640400" lon="6.990960">
       <ele>220.42</ele>
       <time>2014-11-03T21:26:07Z</time>
      </trkpt>
      <trkpt lat="43.640100" lon="6.992240">
       <ele>216.38</ele>
       <time>2014-11-03T21:26:27Z</time>
      </trkpt>
      <trkpt lat="43.640080" lon="6.992380">
       <ele>216</ele>
       <time>2014-11-03T21:26:29Z</time>
      </trkpt>
      <trkpt lat="43.640080" lon="6.992600">
       <ele>216.28</ele>
       <time>2014-11-03T21:26:33Z</time>
      </trkpt>
      <trkpt lat="43.640090" lon="6.992820">
       <ele>217.31</ele>
       <time>2014-11-03T21:26:36Z</time>
      </trkpt>
      <trkpt lat="43.640370" lon="6.995050">
       <ele>217.89</ele>
       <time>2014-11-03T21:27:10Z</time>
      </trkpt>
      <trkpt lat="43.640450" lon="6.995410">
       <ele>216.98</ele>
       <time>2014-11-03T21:27:15Z</time>
      </trkpt>
      <trkpt lat="43.640890" lon="6.996650">
       <ele>215.53</ele>
       <time>2014-11-03T21:27:36Z</time>
      </trkpt>
      <trkpt lat="43.640980" lon="6.997160">
       <ele>215.4</ele>
       <time>2014-11-03T21:27:44Z</time>
      </trkpt>
      <trkpt lat="43.641050" lon="6.997330">
       <ele>215.45</ele>
       <time>2014-11-03T21:27:47Z</time>
      </trkpt>
      <trkpt lat="43.641080" lon="6.997400">
       <ele>215.44</ele>
       <time>2014-11-03T21:27:48Z</time>
      </trkpt>
      <trkpt lat="43.641160" lon="6.997510">
       <ele>215.5</ele>
       <time>2014-11-03T21:27:51Z</time>
      </trkpt>
      <trkpt lat="43.641370" lon="6.997740">
       <ele>214.86</ele>
       <time>2014-11-03T21:27:56Z</time>
      </trkpt>
      <trkpt lat="43.641430" lon="6.997830">
       <ele>214.43</ele>
       <time>2014-11-03T21:27:58Z</time>
      </trkpt>
      <trkpt lat="43.641500" lon="6.997960">
       <ele>213.66</ele>
       <time>2014-11-03T21:28:00Z</time>
      </trkpt>
      <trkpt lat="43.641870" lon="6.998840">
       <ele>209.47</ele>
       <time>2014-11-03T21:28:16Z</time>
      </trkpt>
      <trkpt lat="43.642370" lon="7.000580">
       <ele>207.89</ele>
       <time>2014-11-03T21:28:44Z</time>
      </trkpt>
      <trkpt lat="43.642440" lon="7.000980">
       <ele>208.59</ele>
       <time>2014-11-03T21:28:50Z</time>
      </trkpt>
      <trkpt lat="43.642430" lon="7.001230">
       <ele>208.53</ele>
       <time>2014-11-03T21:28:54Z</time>
      </trkpt>
      <trkpt lat="43.642290" lon="7.001670">
       <ele>207.73</ele>
       <time>2014-11-03T21:29:01Z</time>
      </trkpt>
      <trkpt lat="43.642260" lon="7.001970">
       <ele>207.46</ele>
       <time>2014-11-03T21:29:05Z</time>
      </trkpt>
      <trkpt lat="43.642380" lon="7.002810">
       <ele>206.75</ele>
       <time>2014-11-03T21:29:18Z</time>
      </trkpt>
      <trkpt lat="43.642500" lon="7.004210">
       <ele>200.11</ele>
       <time>2014-11-03T21:29:39Z</time>
      </trkpt>
      <trkpt lat="43.642490" lon="7.005450">
       <ele>203.57</ele>
       <time>2014-11-03T21:29:58Z</time>
      </trkpt>
      <trkpt lat="43.642380" lon="7.006460">
       <ele>205.89</ele>
       <time>2014-11-03T21:30:13Z</time>
      </trkpt>
      <trkpt lat="43.642370" lon="7.006710">
       <ele>206.4</ele>
       <time>2014-11-03T21:30:17Z</time>
      </trkpt>
      <trkpt lat="43.642390" lon="7.006920">
       <ele>206.7</ele>
       <time>2014-11-03T21:30:20Z</time>
      </trkpt>
      <trkpt lat="43.642470" lon="7.007370">
       <ele>207.65</ele>
       <time>2014-11-03T21:30:27Z</time>
      </trkpt>
      <trkpt lat="43.642520" lon="7.008130">
       <ele>212.69</ele>
       <time>2014-11-03T21:30:39Z</time>
      </trkpt>
      <trkpt lat="43.642400" lon="7.008930">
       <ele>214.67</ele>
       <time>2014-11-03T21:30:51Z</time>
      </trkpt>
      <trkpt lat="43.642420" lon="7.009040">
       <ele>215.12</ele>
       <time>2014-11-03T21:30:53Z</time>
      </trkpt>
      <trkpt lat="43.642390" lon="7.009850">
       <ele>215</ele>
       <time>2014-11-03T21:31:05Z</time>
      </trkpt>
      <trkpt lat="43.642430" lon="7.010020">
       <ele>215.45</ele>
       <time>2014-11-03T21:31:08Z</time>
      </trkpt>
      <trkpt lat="43.642500" lon="7.010120">
       <ele>216.76</ele>
       <time>2014-11-03T21:31:10Z</time>
      </trkpt>
      <trkpt lat="43.642570" lon="7.010330">
       <ele>219.27</ele>
       <time>2014-11-03T21:31:13Z</time>
      </trkpt>
      <trkpt lat="43.642580" lon="7.010460">
       <ele>220.08</ele>
       <time>2014-11-03T21:31:15Z</time>
      </trkpt>
      <trkpt lat="43.642560" lon="7.010620">
       <ele>220.63</ele>
       <time>2014-11-03T21:31:17Z</time>
      </trkpt>
      <trkpt lat="43.642500" lon="7.010700">
       <ele>220.23</ele>
       <time>2014-11-03T21:31:19Z</time>
      </trkpt>
      <trkpt lat="43.642390" lon="7.010770">
       <ele>219.94</ele>
       <time>2014-11-03T21:31:22Z</time>
      </trkpt>
      <trkpt lat="43.641920" lon="7.010980">
       <ele>219.64</ele>
       <time>2014-11-03T21:31:32Z</time>
      </trkpt>
      <trkpt lat="43.641870" lon="7.011020">
       <ele>219.96</ele>
       <time>2014-11-03T21:31:33Z</time>
      </trkpt>
      <trkpt lat="43.641860" lon="7.011140">
       <ele>221.69</ele>
       <time>2014-11-03T21:31:35Z</time>
      </trkpt>
      <trkpt lat="43.641870" lon="7.011210">
       <ele>222.76</ele>
       <time>2014-11-03T21:31:36Z</time>
      </trkpt>
      <trkpt lat="43.641920" lon="7.011260">
       <ele>223.7</ele>
       <time>2014-11-03T21:31:37Z</time>
      </trkpt>
      <trkpt lat="43.642120" lon="7.011210">
       <ele>223.86</ele>
       <time>2014-11-03T21:31:42Z</time>
      </trkpt>
      <trkpt lat="43.642310" lon="7.011140">
       <ele>223.8</ele>
       <time>2014-11-03T21:31:46Z</time>
      </trkpt>
      <trkpt lat="43.642500" lon="7.011120">
       <ele>224.45</ele>
       <time>2014-11-03T21:31:50Z</time>
      </trkpt>
      <trkpt lat="43.642690" lon="7.011160">
       <ele>226.35</ele>
       <time>2014-11-03T21:31:54Z</time>
      </trkpt>
      <trkpt lat="43.642780" lon="7.011240">
       <ele>227.61</ele>
       <time>2014-11-03T21:31:56Z</time>
      </trkpt>
      <trkpt lat="43.642850" lon="7.011340">
       <ele>228.63</ele>
       <time>2014-11-03T21:31:58Z</time>
      </trkpt>
      <trkpt lat="43.642970" lon="7.011600">
       <ele>230.18</ele>
       <time>2014-11-03T21:32:02Z</time>
      </trkpt>
      <trkpt lat="43.643140" lon="7.011860">
       <ele>230.67</ele>
       <time>2014-11-03T21:32:08Z</time>
      </trkpt>
      <trkpt lat="43.643530" lon="7.013170">
       <ele>229.28</ele>
       <time>2014-11-03T21:32:29Z</time>
      </trkpt>
      <trkpt lat="43.643560" lon="7.013220">
       <ele>229.1</ele>
       <time>2014-11-03T21:32:30Z</time>
      </trkpt>
      <trkpt lat="43.643710" lon="7.013820">
       <ele>225.27</ele>
       <time>2014-11-03T21:32:39Z</time>
      </trkpt>
      <trkpt lat="43.644130" lon="7.016060">
       <ele>216.38</ele>
       <time>2014-11-03T21:33:14Z</time>
      </trkpt>
      <trkpt lat="43.644170" lon="7.016370">
       <ele>215.08</ele>
       <time>2014-11-03T21:33:19Z</time>
      </trkpt>
      <trkpt lat="43.644120" lon="7.017040">
       <ele>214.56</ele>
       <time>2014-11-03T21:33:29Z</time>
      </trkpt>
      <trkpt lat="43.644130" lon="7.017580">
       <ele>214.76</ele>
       <time>2014-11-03T21:33:37Z</time>
      </trkpt>
      <trkpt lat="43.644210" lon="7.018380">
       <ele>216.8</ele>
       <time>2014-11-03T21:33:49Z</time>
      </trkpt>
      <trkpt lat="43.644250" lon="7.019710">
       <ele>218.17</ele>
       <time>2014-11-03T21:34:09Z</time>
      </trkpt>
      <trkpt lat="43.644300" lon="7.020100">
       <ele>216.99</ele>
       <time>2014-11-03T21:34:15Z</time>
      </trkpt>
      <trkpt lat="43.644330" lon="7.020150">
       <ele>216.7</ele>
       <time>2014-11-03T21:34:16Z</time>
      </trkpt>
      <trkpt lat="43.644350" lon="7.020240">
       <ele>216.4</ele>
       <time>2014-11-03T21:34:18Z</time>
      </trkpt>
      <trkpt lat="43.644340" lon="7.020340">
       <ele>216.23</ele>
       <time>2014-11-03T21:34:19Z</time>
      </trkpt>
      <trkpt lat="43.644290" lon="7.020460">
       <ele>216.23</ele>
       <time>2014-11-03T21:34:21Z</time>
      </trkpt>
      <trkpt lat="43.644170" lon="7.020460">
       <ele>216.88</ele>
       <time>2014-11-03T21:34:24Z</time>
      </trkpt>
      <trkpt lat="43.644000" lon="7.020690">
       <ele>216.65</ele>
       <time>2014-11-03T21:34:29Z</time>
      </trkpt>
      <trkpt lat="43.643740" lon="7.021360">
       <ele>212.09</ele>
       <time>2014-11-03T21:34:40Z</time>
      </trkpt>
      <trkpt lat="43.643440" lon="7.022290">
       <ele>206.97</ele>
       <time>2014-11-03T21:34:55Z</time>
      </trkpt>
      <trkpt lat="43.643300" lon="7.022860">
       <ele>205.61</ele>
       <time>2014-11-03T21:35:04Z</time>
      </trkpt>
      <trkpt lat="43.643240" lon="7.023240">
       <ele>205.44</ele>
       <time>2014-11-03T21:35:10Z</time>
      </trkpt>
      <trkpt lat="43.642960" lon="7.024580">
       <ele>204.63</ele>
       <time>2014-11-03T21:35:31Z</time>
      </trkpt>
      <trkpt lat="43.642820" lon="7.024990">
       <ele>203.05</ele>
       <time>2014-11-03T21:35:38Z</time>
      </trkpt>
      <trkpt lat="43.642360" lon="7.026130">
       <ele>197.76</ele>
       <time>2014-11-03T21:35:57Z</time>
      </trkpt>
      <trkpt lat="43.642290" lon="7.026380">
       <ele>196.78</ele>
       <time>2014-11-03T21:36:01Z</time>
      </trkpt>
      <trkpt lat="43.642250" lon="7.026560">
       <ele>196.08</ele>
       <time>2014-11-03T21:36:04Z</time>
      </trkpt>
      <trkpt lat="43.642050" lon="7.028470">
       <ele>193.15</ele>
       <time>2014-11-03T21:36:33Z</time>
      </trkpt>
      <trkpt lat="43.641950" lon="7.030060">
       <ele>190.16</ele>
       <time>2014-11-03T21:36:57Z</time>
      </trkpt>
      <trkpt lat="43.641940" lon="7.030470">
       <ele>189.03</ele>
       <time>2014-11-03T21:37:03Z</time>
      </trkpt>
      <trkpt lat="43.641960" lon="7.030870">
       <ele>187.96</ele>
       <time>2014-11-03T21:37:09Z</time>
      </trkpt>
      <trkpt lat="43.642060" lon="7.031390">
       <ele>187.9</ele>
       <time>2014-11-03T21:37:17Z</time>
      </trkpt>
      <trkpt lat="43.642210" lon="7.031850">
       <ele>188.13</ele>
       <time>2014-11-03T21:37:25Z</time>
      </trkpt>
      <trkpt lat="43.642310" lon="7.032340">
       <ele>189.33</ele>
       <time>2014-11-03T21:37:33Z</time>
      </trkpt>
      <trkpt lat="43.642290" lon="7.033080">
       <ele>189.23</ele>
       <time>2014-11-03T21:37:44Z</time>
      </trkpt>
      <trkpt lat="43.642260" lon="7.033460">
       <ele>189.07</ele>
       <time>2014-11-03T21:37:49Z</time>
      </trkpt>
      <trkpt lat="43.642340" lon="7.034500">
       <ele>190.29</ele>
       <time>2014-11-03T21:38:05Z</time>
      </trkpt>
      <trkpt lat="43.642380" lon="7.034580">
       <ele>190.7</ele>
       <time>2014-11-03T21:38:07Z</time>
      </trkpt>
      <trkpt lat="43.642500" lon="7.035050">
       <ele>193.02</ele>
       <time>2014-11-03T21:38:14Z</time>
      </trkpt>
      <trkpt lat="43.642570" lon="7.035070">
       <ele>193.94</ele>
       <time>2014-11-03T21:38:16Z</time>
      </trkpt>
      <trkpt lat="43.642630" lon="7.035170">
       <ele>194.77</ele>
       <time>2014-11-03T21:38:18Z</time>
      </trkpt>
      <trkpt lat="43.642620" lon="7.035290">
       <ele>194.64</ele>
       <time>2014-11-03T21:38:19Z</time>
      </trkpt>
      <trkpt lat="43.642570" lon="7.035370">
       <ele>193.97</ele>
       <time>2014-11-03T21:38:21Z</time>
      </trkpt>
      <trkpt lat="43.642530" lon="7.035400">
       <ele>193.39</ele>
       <time>2014-11-03T21:38:22Z</time>
      </trkpt>
      <trkpt lat="43.642470" lon="7.035830">
       <ele>192.62</ele>
       <time>2014-11-03T21:38:28Z</time>
      </trkpt>
      <trkpt lat="43.642460" lon="7.036070">
       <ele>192.47</ele>
       <time>2014-11-03T21:38:32Z</time>
      </trkpt>
      <trkpt lat="43.642520" lon="7.036600">
       <ele>193.25</ele>
       <time>2014-11-03T21:38:40Z</time>
      </trkpt>
      <trkpt lat="43.642710" lon="7.037310">
       <ele>196.69</ele>
       <time>2014-11-03T21:38:51Z</time>
      </trkpt>
      <trkpt lat="43.642830" lon="7.037690">
       <ele>199.45</ele>
       <time>2014-11-03T21:38:58Z</time>
      </trkpt>
      <trkpt lat="43.643040" lon="7.038180">
       <ele>203.54</ele>
       <time>2014-11-03T21:39:06Z</time>
      </trkpt>
      <trkpt lat="43.643510" lon="7.039000">
       <ele>203.95</ele>
       <time>2014-11-03T21:39:22Z</time>
      </trkpt>
      <trkpt lat="43.643570" lon="7.039130">
       <ele>203.36</ele>
       <time>2014-11-03T21:39:24Z</time>
      </trkpt>
      <trkpt lat="43.643660" lon="7.039430">
       <ele>201.57</ele>
       <time>2014-11-03T21:39:29Z</time>
      </trkpt>
      <trkpt lat="43.643720" lon="7.039740">
       <ele>199.63</ele>
       <time>2014-11-03T21:39:34Z</time>
      </trkpt>
      <trkpt lat="43.643720" lon="7.040370">
       <ele>195.14</ele>
       <time>2014-11-03T21:39:43Z</time>
      </trkpt>
      <trkpt lat="43.643670" lon="7.041180">
       <ele>190.35</ele>
       <time>2014-11-03T21:39:56Z</time>
      </trkpt>
      <trkpt lat="43.643570" lon="7.042030">
       <ele>187.35</ele>
       <time>2014-11-03T21:40:09Z</time>
      </trkpt>
      <trkpt lat="43.643600" lon="7.043040">
       <ele>181.71</ele>
       <time>2014-11-03T21:40:24Z</time>
      </trkpt>
      <trkpt lat="43.643630" lon="7.043280">
       <ele>180.66</ele>
       <time>2014-11-03T21:40:27Z</time>
      </trkpt>
      <trkpt lat="43.643690" lon="7.043460">
       <ele>179.21</ele>
       <time>2014-11-03T21:40:30Z</time>
      </trkpt>
      <trkpt lat="43.643800" lon="7.043660">
       <ele>177.22</ele>
       <time>2014-11-03T21:40:34Z</time>
      </trkpt>
      <trkpt lat="43.644130" lon="7.044080">
       <ele>173.46</ele>
       <time>2014-11-03T21:40:43Z</time>
      </trkpt>
      <trkpt lat="43.644220" lon="7.044280">
       <ele>173.16</ele>
       <time>2014-11-03T21:40:47Z</time>
      </trkpt>
      <trkpt lat="43.644260" lon="7.044480">
       <ele>172.93</ele>
       <time>2014-11-03T21:40:50Z</time>
      </trkpt>
      <trkpt lat="43.644270" lon="7.044570">
       <ele>172.75</ele>
       <time>2014-11-03T21:40:51Z</time>
      </trkpt>
      <trkpt lat="43.644240" lon="7.044850">
       <ele>171.42</ele>
       <time>2014-11-03T21:40:56Z</time>
      </trkpt>
      <trkpt lat="43.644100" lon="7.045280">
       <ele>169.06</ele>
       <time>2014-11-03T21:41:03Z</time>
      </trkpt>
      <trkpt lat="43.644070" lon="7.045480">
       <ele>168.35</ele>
       <time>2014-11-03T21:41:06Z</time>
      </trkpt>
      <trkpt lat="43.644040" lon="7.045530">
       <ele>168.03</ele>
       <time>2014-11-03T21:41:07Z</time>
      </trkpt>
      <trkpt lat="43.644000" lon="7.045560">
       <ele>167.72</ele>
       <time>2014-11-03T21:41:08Z</time>
      </trkpt>
      <trkpt lat="43.644030" lon="7.045860">
       <ele>167.03</ele>
       <time>2014-11-03T21:41:12Z</time>
      </trkpt>
      <trkpt lat="43.644180" lon="7.046420">
       <ele>168.06</ele>
       <time>2014-11-03T21:41:21Z</time>
      </trkpt>
      <trkpt lat="43.644290" lon="7.046940">
       <ele>167.84</ele>
       <time>2014-11-03T21:41:29Z</time>
      </trkpt>
      <trkpt lat="43.644320" lon="7.047300">
       <ele>167.42</ele>
       <time>2014-11-03T21:41:35Z</time>
      </trkpt>
      <trkpt lat="43.644290" lon="7.048490">
       <ele>168.08</ele>
       <time>2014-11-03T21:41:53Z</time>
      </trkpt>
      <trkpt lat="43.644300" lon="7.048780">
       <ele>169.22</ele>
       <time>2014-11-03T21:41:57Z</time>
      </trkpt>
      <trkpt lat="43.644350" lon="7.049130">
       <ele>170.75</ele>
       <time>2014-11-03T21:42:02Z</time>
      </trkpt>
      <trkpt lat="43.644440" lon="7.049220">
       <ele>171.42</ele>
       <time>2014-11-03T21:42:05Z</time>
      </trkpt>
      <trkpt lat="43.644480" lon="7.049370">
       <ele>171.87</ele>
       <time>2014-11-03T21:42:07Z</time>
      </trkpt>
      <trkpt lat="43.644460" lon="7.049530">
       <ele>172.1</ele>
       <time>2014-11-03T21:42:09Z</time>
      </trkpt>
      <trkpt lat="43.644370" lon="7.049650">
       <ele>172.15</ele>
       <time>2014-11-03T21:42:12Z</time>
      </trkpt>
      <trkpt lat="43.644290" lon="7.049670">
       <ele>172.05</ele>
       <time>2014-11-03T21:42:14Z</time>
      </trkpt>
      <trkpt lat="43.644210" lon="7.049660">
       <ele>171.86</ele>
       <time>2014-11-03T21:42:15Z</time>
      </trkpt>
      <trkpt lat="43.644140" lon="7.049600">
       <ele>171.44</ele>
       <time>2014-11-03T21:42:17Z</time>
      </trkpt>
      <trkpt lat="43.644010" lon="7.049590">
       <ele>170.87</ele>
       <time>2014-11-03T21:42:20Z</time>
      </trkpt>
      <trkpt lat="43.643980" lon="7.049600">
       <ele>170.78</ele>
       <time>2014-11-03T21:42:20Z</time>
      </trkpt>
      <trkpt lat="43.643100" lon="7.050180">
       <ele>173.07</ele>
       <time>2014-11-03T21:42:41Z</time>
      </trkpt>
      <trkpt lat="43.642710" lon="7.050340">
       <ele>175.35</ele>
       <time>2014-11-03T21:42:49Z</time>
      </trkpt>
      <trkpt lat="43.642520" lon="7.050370">
       <ele>176.06</ele>
       <time>2014-11-03T21:42:53Z</time>
      </trkpt>
      <trkpt lat="43.641770" lon="7.050180">
       <ele>177.52</ele>
       <time>2014-11-03T21:43:09Z</time>
      </trkpt>
      <trkpt lat="43.641610" lon="7.050170">
       <ele>177.88</ele>
       <time>2014-11-03T21:43:12Z</time>
      </trkpt>
      <trkpt lat="43.641480" lon="7.050180">
       <ele>178.07</ele>
       <time>2014-11-03T21:43:15Z</time>
      </trkpt>
      <trkpt lat="43.641150" lon="7.050290">
       <ele>179.32</ele>
       <time>2014-11-03T21:43:22Z</time>
      </trkpt>
      <trkpt lat="43.640880" lon="7.050450">
       <ele>180.78</ele>
       <time>2014-11-03T21:43:28Z</time>
      </trkpt>
      <trkpt lat="43.640690" lon="7.050630">
       <ele>181.04</ele>
       <time>2014-11-03T21:43:33Z</time>
      </trkpt>
      <trkpt lat="43.640510" lon="7.050850">
       <ele>181.05</ele>
       <time>2014-11-03T21:43:38Z</time>
      </trkpt>
      <trkpt lat="43.640460" lon="7.050890">
       <ele>180.92</ele>
       <time>2014-11-03T21:43:39Z</time>
      </trkpt>
      <trkpt lat="43.640330" lon="7.051100">
       <ele>181.22</ele>
       <time>2014-11-03T21:43:43Z</time>
      </trkpt>
      <trkpt lat="43.640230" lon="7.051370">
       <ele>181.83</ele>
       <time>2014-11-03T21:43:48Z</time>
      </trkpt>
      <trkpt lat="43.640130" lon="7.051960">
       <ele>183.58</ele>
       <time>2014-11-03T21:43:57Z</time>
      </trkpt>
      <trkpt lat="43.640040" lon="7.052320">
       <ele>183.83</ele>
       <time>2014-11-03T21:44:03Z</time>
      </trkpt>
      <trkpt lat="43.639670" lon="7.053400">
       <ele>184.16</ele>
       <time>2014-11-03T21:44:20Z</time>
      </trkpt>
      <trkpt lat="43.639590" lon="7.053750">
       <ele>183.37</ele>
       <time>2014-11-03T21:44:26Z</time>
      </trkpt>
      <trkpt lat="43.639530" lon="7.054340">
       <ele>183.9</ele>
       <time>2014-11-03T21:44:35Z</time>
      </trkpt>
      <trkpt lat="43.639530" lon="7.054490">
       <ele>184.36</ele>
       <time>2014-11-03T21:44:37Z</time>
      </trkpt>
      <trkpt lat="43.639440" lon="7.055130">
       <ele>184.84</ele>
       <time>2014-11-03T21:44:47Z</time>
      </trkpt>
      <trkpt lat="43.639420" lon="7.055460">
       <ele>184.4</ele>
       <time>2014-11-03T21:44:52Z</time>
      </trkpt>
      <trkpt lat="43.639410" lon="7.055720">
       <ele>184.11</ele>
       <time>2014-11-03T21:44:56Z</time>
      </trkpt>
      <trkpt lat="43.639450" lon="7.056720">
       <ele>180.04</ele>
       <time>2014-11-03T21:45:11Z</time>
      </trkpt>
      <trkpt lat="43.639460" lon="7.057470">
       <ele>175.38</ele>
       <time>2014-11-03T21:45:22Z</time>
      </trkpt>
      <trkpt lat="43.639380" lon="7.057910">
       <ele>174.57</ele>
       <time>2014-11-03T21:45:29Z</time>
      </trkpt>
      <trkpt lat="43.639300" lon="7.058090">
       <ele>173.68</ele>
       <time>2014-11-03T21:45:32Z</time>
      </trkpt>
      <trkpt lat="43.639060" lon="7.058420">
       <ele>171.56</ele>
       <time>2014-11-03T21:45:39Z</time>
      </trkpt>
      <trkpt lat="43.638110" lon="7.059330">
       <ele>166.5</ele>
       <time>2014-11-03T21:46:03Z</time>
      </trkpt>
      <trkpt lat="43.637760" lon="7.059730">
       <ele>162.17</ele>
       <time>2014-11-03T21:46:12Z</time>
      </trkpt>
      <trkpt lat="43.637420" lon="7.060150">
       <ele>156.62</ele>
       <time>2014-11-03T21:46:22Z</time>
      </trkpt>
      <trkpt lat="43.637290" lon="7.060370">
       <ele>155.27</ele>
       <time>2014-11-03T21:46:26Z</time>
      </trkpt>
      <trkpt lat="43.637220" lon="7.060560">
       <ele>154.05</ele>
       <time>2014-11-03T21:46:29Z</time>
      </trkpt>
      <trkpt lat="43.637180" lon="7.060800">
       <ele>152.94</ele>
       <time>2014-11-03T21:46:33Z</time>
      </trkpt>
      <trkpt lat="43.637160" lon="7.061420">
       <ele>149.68</ele>
       <time>2014-11-03T21:46:42Z</time>
      </trkpt>
      <trkpt lat="43.637020" lon="7.062220">
       <ele>143.79</ele>
       <time>2014-11-03T21:46:55Z</time>
      </trkpt>
      <trkpt lat="43.636970" lon="7.063150">
       <ele>139.71</ele>
       <time>2014-11-03T21:47:09Z</time>
      </trkpt>
      <trkpt lat="43.636940" lon="7.063380">
       <ele>138.57</ele>
       <time>2014-11-03T21:47:12Z</time>
      </trkpt>
      <trkpt lat="43.636860" lon="7.063580">
       <ele>137.27</ele>
       <time>2014-11-03T21:47:16Z</time>
      </trkpt>
      <trkpt lat="43.636500" lon="7.064200">
       <ele>132.32</ele>
       <time>2014-11-03T21:47:28Z</time>
      </trkpt>
      <trkpt lat="43.636410" lon="7.064530">
       <ele>129.95</ele>
       <time>2014-11-03T21:47:33Z</time>
      </trkpt>
      <trkpt lat="43.636400" lon="7.064680">
       <ele>129.36</ele>
       <time>2014-11-03T21:47:35Z</time>
      </trkpt>
      <trkpt lat="43.636410" lon="7.064810">
       <ele>129.15</ele>
       <time>2014-11-03T21:47:37Z</time>
      </trkpt>
      <trkpt lat="43.636450" lon="7.064930">
       <ele>129.37</ele>
       <time>2014-11-03T21:47:39Z</time>
      </trkpt>
      <trkpt lat="43.636470" lon="7.064970">
       <ele>129.51</ele>
       <time>2014-11-03T21:47:40Z</time>
      </trkpt>
      <trkpt lat="43.636650" lon="7.065170">
       <ele>130.19</ele>
       <time>2014-11-03T21:47:45Z</time>
      </trkpt>
      <trkpt lat="43.636750" lon="7.065230">
       <ele>130.07</ele>
       <time>2014-11-03T21:47:47Z</time>
      </trkpt>
      <trkpt lat="43.636890" lon="7.065270">
       <ele>130.21</ele>
       <time>2014-11-03T21:47:50Z</time>
      </trkpt>
      <trkpt lat="43.637700" lon="7.065410">
       <ele>132.73</ele>
       <time>2014-11-03T21:48:07Z</time>
      </trkpt>
      <trkpt lat="43.637800" lon="7.065450">
       <ele>133.12</ele>
       <time>2014-11-03T21:48:09Z</time>
      </trkpt>
      <trkpt lat="43.637850" lon="7.065510">
       <ele>133.15</ele>
       <time>2014-11-03T21:48:10Z</time>
      </trkpt>
      <trkpt lat="43.637870" lon="7.065590">
       <ele>132.87</ele>
       <time>2014-11-03T21:48:12Z</time>
      </trkpt>
      <trkpt lat="43.637850" lon="7.065730">
       <ele>132.05</ele>
       <time>2014-11-03T21:48:14Z</time>
      </trkpt>
      <trkpt lat="43.637800" lon="7.065800">
       <ele>131.32</ele>
       <time>2014-11-03T21:48:15Z</time>
      </trkpt>
      <trkpt lat="43.637670" lon="7.065870">
       <ele>130.96</ele>
       <time>2014-11-03T21:48:18Z</time>
      </trkpt>
      <trkpt lat="43.637170" lon="7.066000">
       <ele>129.9</ele>
       <time>2014-11-03T21:48:29Z</time>
      </trkpt>
      <trkpt lat="43.636550" lon="7.066190">
       <ele>128.85</ele>
       <time>2014-11-03T21:48:42Z</time>
      </trkpt>
      <trkpt lat="43.636260" lon="7.066240">
       <ele>128.88</ele>
       <time>2014-11-03T21:48:48Z</time>
      </trkpt>
      <trkpt lat="43.635980" lon="7.066210">
       <ele>127.77</ele>
       <time>2014-11-03T21:48:54Z</time>
      </trkpt>
      <trkpt lat="43.635510" lon="7.065980">
       <ele>123.47</ele>
       <time>2014-11-03T21:49:04Z</time>
      </trkpt>
      <trkpt lat="43.635330" lon="7.065930">
       <ele>122.32</ele>
       <time>2014-11-03T21:49:08Z</time>
      </trkpt>
      <trkpt lat="43.634830" lon="7.065940">
       <ele>120.52</ele>
       <time>2014-11-03T21:49:18Z</time>
      </trkpt>
      <trkpt lat="43.634500" lon="7.066040">
       <ele>119.56</ele>
       <time>2014-11-03T21:49:25Z</time>
      </trkpt>
      <trkpt lat="43.634170" lon="7.066230">
       <ele>119.74</ele>
       <time>2014-11-03T21:49:33Z</time>
      </trkpt>
      <trkpt lat="43.633390" lon="7.066700">
       <ele>120.44</ele>
       <time>2014-11-03T21:49:50Z</time>
      </trkpt>
      <trkpt lat="43.633310" lon="7.066770">
       <ele>119.76</ele>
       <time>2014-11-03T21:49:52Z</time>
      </trkpt>
      <trkpt lat="43.633240" lon="7.066870">
       <ele>118.98</ele>
       <time>2014-11-03T21:49:54Z</time>
      </trkpt>
      <trkpt lat="43.633160" lon="7.067120">
       <ele>118.63</ele>
       <time>2014-11-03T21:49:58Z</time>
      </trkpt>
      <trkpt lat="43.633070" lon="7.068560">
       <ele>120.06</ele>
       <time>2014-11-03T21:50:20Z</time>
      </trkpt>
      <trkpt lat="43.633060" lon="7.069180">
       <ele>119.93</ele>
       <time>2014-11-03T21:50:29Z</time>
      </trkpt>
      <trkpt lat="43.633080" lon="7.069390">
       <ele>118.64</ele>
       <time>2014-11-03T21:50:33Z</time>
      </trkpt>
      <trkpt lat="43.633130" lon="7.069550">
       <ele>117.73</ele>
       <time>2014-11-03T21:50:35Z</time>
      </trkpt>
      <trkpt lat="43.633290" lon="7.069880">
       <ele>115.8</ele>
       <time>2014-11-03T21:50:41Z</time>
      </trkpt>
      <trkpt lat="43.633430" lon="7.070080">
       <ele>115.31</ele>
       <time>2014-11-03T21:50:45Z</time>
      </trkpt>
      <trkpt lat="43.633660" lon="7.070300">
       <ele>115.66</ele>
       <time>2014-11-03T21:50:51Z</time>
      </trkpt>
      <trkpt lat="43.633850" lon="7.070450">
       <ele>115.97</ele>
       <time>2014-11-03T21:50:56Z</time>
      </trkpt>
      <trkpt lat="43.634710" lon="7.071070">
       <ele>118.11</ele>
       <time>2014-11-03T21:51:16Z</time>
      </trkpt>
      <trkpt lat="43.634820" lon="7.071210">
       <ele>118</ele>
       <time>2014-11-03T21:51:19Z</time>
      </trkpt>
      <trkpt lat="43.634860" lon="7.071350">
       <ele>117.22</ele>
       <time>2014-11-03T21:51:21Z</time>
      </trkpt>
      <trkpt lat="43.634860" lon="7.071490">
       <ele>116.02</ele>
       <time>2014-11-03T21:51:23Z</time>
      </trkpt>
      <trkpt lat="43.634840" lon="7.071570">
       <ele>115.09</ele>
       <time>2014-11-03T21:51:25Z</time>
      </trkpt>
      <trkpt lat="43.634670" lon="7.072040">
       <ele>113.16</ele>
       <time>2014-11-03T21:51:32Z</time>
      </trkpt>
      <trkpt lat="43.634640" lon="7.072180">
       <ele>113.07</ele>
       <time>2014-11-03T21:51:35Z</time>
      </trkpt>
      <trkpt lat="43.634620" lon="7.072340">
       <ele>113.15</ele>
       <time>2014-11-03T21:51:37Z</time>
      </trkpt>
      <trkpt lat="43.634610" lon="7.072840">
       <ele>114.05</ele>
       <time>2014-11-03T21:51:45Z</time>
      </trkpt>
      <trkpt lat="43.634400" lon="7.073730">
       <ele>114.25</ele>
       <time>2014-11-03T21:51:59Z</time>
      </trkpt>
      <trkpt lat="43.634270" lon="7.075000">
       <ele>114.49</ele>
       <time>2014-11-03T21:52:18Z</time>
      </trkpt>
      <trkpt lat="43.634190" lon="7.075410">
       <ele>113.54</ele>
       <time>2014-11-03T21:52:24Z</time>
      </trkpt>
      <trkpt lat="43.634110" lon="7.075600">
       <ele>112.56</ele>
       <time>2014-11-03T21:52:27Z</time>
      </trkpt>
      <trkpt lat="43.634020" lon="7.075720">
       <ele>111.35</ele>
       <time>2014-11-03T21:52:30Z</time>
      </trkpt>
      <trkpt lat="43.633810" lon="7.075910">
       <ele>108.98</ele>
       <time>2014-11-03T21:52:35Z</time>
      </trkpt>
      <trkpt lat="43.633650" lon="7.076110">
       <ele>108.26</ele>
       <time>2014-11-03T21:52:40Z</time>
      </trkpt>
      <trkpt lat="43.633490" lon="7.076360">
       <ele>108.48</ele>
       <time>2014-11-03T21:52:45Z</time>
      </trkpt>
      <trkpt lat="43.633420" lon="7.076420">
       <ele>108.45</ele>
       <time>2014-11-03T21:52:46Z</time>
      </trkpt>
      <trkpt lat="43.633330" lon="7.076480">
       <ele>108.41</ele>
       <time>2014-11-03T21:52:49Z</time>
      </trkpt>
      <trkpt lat="43.632760" lon="7.076630">
       <ele>103.49</ele>
       <time>2014-11-03T21:53:01Z</time>
      </trkpt>
      <trkpt lat="43.632620" lon="7.076680">
       <ele>102.49</ele>
       <time>2014-11-03T21:53:04Z</time>
      </trkpt>
      <trkpt lat="43.632440" lon="7.076770">
       <ele>101.07</ele>
       <time>2014-11-03T21:53:08Z</time>
      </trkpt>
      <trkpt lat="43.632310" lon="7.076860">
       <ele>99.64</ele>
       <time>2014-11-03T21:53:11Z</time>
      </trkpt>
      <trkpt lat="43.631980" lon="7.077210">
       <ele>98.58</ele>
       <time>2014-11-03T21:53:19Z</time>
      </trkpt>
      <trkpt lat="43.631860" lon="7.077290">
       <ele>97.68</ele>
       <time>2014-11-03T21:53:22Z</time>
      </trkpt>
      <trkpt lat="43.631450" lon="7.077410">
       <ele>91.11</ele>
       <time>2014-11-03T21:53:31Z</time>
      </trkpt>
      <trkpt lat="43.631220" lon="7.077610">
       <ele>88.13</ele>
       <time>2014-11-03T21:53:36Z</time>
      </trkpt>
      <trkpt lat="43.630990" lon="7.078080">
       <ele>88.76</ele>
       <time>2014-11-03T21:53:45Z</time>
      </trkpt>
      <trkpt lat="43.630850" lon="7.078290">
       <ele>88.76</ele>
       <time>2014-11-03T21:53:49Z</time>
      </trkpt>
      <trkpt lat="43.630780" lon="7.078350">
       <ele>87.77</ele>
       <time>2014-11-03T21:53:51Z</time>
      </trkpt>
      <trkpt lat="43.630640" lon="7.078410">
       <ele>84.75</ele>
       <time>2014-11-03T21:53:54Z</time>
      </trkpt>
      <trkpt lat="43.630520" lon="7.078490">
       <ele>82.53</ele>
       <time>2014-11-03T21:53:57Z</time>
      </trkpt>
      <trkpt lat="43.630340" lon="7.078660">
       <ele>79.68</ele>
       <time>2014-11-03T21:54:01Z</time>
      </trkpt>
      <trkpt lat="43.630180" lon="7.078920">
       <ele>78.25</ele>
       <time>2014-11-03T21:54:06Z</time>
      </trkpt>
      <trkpt lat="43.630040" lon="7.079250">
       <ele>77.21</ele>
       <time>2014-11-03T21:54:12Z</time>
      </trkpt>
      <trkpt lat="43.629970" lon="7.079510">
       <ele>75.5</ele>
       <time>2014-11-03T21:54:16Z</time>
      </trkpt>
      <trkpt lat="43.629930" lon="7.079890">
       <ele>74.38</ele>
       <time>2014-11-03T21:54:22Z</time>
      </trkpt>
      <trkpt lat="43.629960" lon="7.080540">
       <ele>72.51</ele>
       <time>2014-11-03T21:54:32Z</time>
      </trkpt>
      <trkpt lat="43.629900" lon="7.081030">
       <ele>66.63</ele>
       <time>2014-11-03T21:54:39Z</time>
      </trkpt>
      <trkpt lat="43.629910" lon="7.081150">
       <ele>65.19</ele>
       <time>2014-11-03T21:54:41Z</time>
      </trkpt>
      <trkpt lat="43.629960" lon="7.081350">
       <ele>63.62</ele>
       <time>2014-11-03T21:54:44Z</time>
      </trkpt>
      <trkpt lat="43.630000" lon="7.081430">
       <ele>63.42</ele>
       <time>2014-11-03T21:54:46Z</time>
      </trkpt>
      <trkpt lat="43.630090" lon="7.081550">
       <ele>62.57</ele>
       <time>2014-11-03T21:54:48Z</time>
      </trkpt>
      <trkpt lat="43.630180" lon="7.081610">
       <ele>62.36</ele>
       <time>2014-11-03T21:54:50Z</time>
      </trkpt>
      <trkpt lat="43.630510" lon="7.081690">
       <ele>63.46</ele>
       <time>2014-11-03T21:54:57Z</time>
      </trkpt>
      <trkpt lat="43.630680" lon="7.081670">
       <ele>64.87</ele>
       <time>2014-11-03T21:55:01Z</time>
      </trkpt>
      <trkpt lat="43.630750" lon="7.081640">
       <ele>66.27</ele>
       <time>2014-11-03T21:55:02Z</time>
      </trkpt>
      <trkpt lat="43.631040" lon="7.081570">
       <ele>67.85</ele>
       <time>2014-11-03T21:55:08Z</time>
      </trkpt>
      <trkpt lat="43.631450" lon="7.081530">
       <ele>66.19</ele>
       <time>2014-11-03T21:55:17Z</time>
      </trkpt>
      <trkpt lat="43.631620" lon="7.081470">
       <ele>66.97</ele>
       <time>2014-11-03T21:55:21Z</time>
      </trkpt>
      <trkpt lat="43.632150" lon="7.081130">
       <ele>71.16</ele>
       <time>2014-11-03T21:55:33Z</time>
      </trkpt>
      <trkpt lat="43.632250" lon="7.081090">
       <ele>70.36</ele>
       <time>2014-11-03T21:55:35Z</time>
      </trkpt>
      <trkpt lat="43.632840" lon="7.081000">
       <ele>65.37</ele>
       <time>2014-11-03T21:55:47Z</time>
      </trkpt>
      <trkpt lat="43.633050" lon="7.080950">
       <ele>63.99</ele>
       <time>2014-11-03T21:55:52Z</time>
      </trkpt>
      <trkpt lat="43.633340" lon="7.080930">
       <ele>61.79</ele>
       <time>2014-11-03T21:55:58Z</time>
      </trkpt>
      <trkpt lat="43.633480" lon="7.080990">
       <ele>61.52</ele>
       <time>2014-11-03T21:56:01Z</time>
      </trkpt>
      <trkpt lat="43.633640" lon="7.081130">
       <ele>61.34</ele>
       <time>2014-11-03T21:56:05Z</time>
      </trkpt>
      <trkpt lat="43.633720" lon="7.081290">
       <ele>61.41</ele>
       <time>2014-11-03T21:56:07Z</time>
      </trkpt>
      <trkpt lat="43.633930" lon="7.082140">
       <ele>64</ele>
       <time>2014-11-03T21:56:21Z</time>
      </trkpt>
      <trkpt lat="43.633960" lon="7.082310">
       <ele>64.72</ele>
       <time>2014-11-03T21:56:24Z</time>
      </trkpt>
      <trkpt lat="43.634040" lon="7.083110">
       <ele>66.15</ele>
       <time>2014-11-03T21:56:36Z</time>
      </trkpt>
      <trkpt lat="43.634100" lon="7.083470">
       <ele>65.81</ele>
       <time>2014-11-03T21:56:41Z</time>
      </trkpt>
      <trkpt lat="43.634100" lon="7.083700">
       <ele>66.36</ele>
       <time>2014-11-03T21:56:45Z</time>
      </trkpt>
      <trkpt lat="43.633950" lon="7.084360">
       <ele>71.99</ele>
       <time>2014-11-03T21:56:55Z</time>
      </trkpt>
      <trkpt lat="43.633850" lon="7.085070">
       <ele>77.12</ele>
       <time>2014-11-03T21:57:06Z</time>
      </trkpt>
      <trkpt lat="43.633810" lon="7.085260">
       <ele>78.12</ele>
       <time>2014-11-03T21:57:09Z</time>
      </trkpt>
      <trkpt lat="43.633710" lon="7.085440">
       <ele>79.41</ele>
       <time>2014-11-03T21:57:12Z</time>
      </trkpt>
      <trkpt lat="43.633500" lon="7.085700">
       <ele>80.72</ele>
       <time>2014-11-03T21:57:18Z</time>
      </trkpt>
      <trkpt lat="43.633140" lon="7.085990">
       <ele>83.49</ele>
       <time>2014-11-03T21:57:27Z</time>
      </trkpt>
      <trkpt lat="43.632940" lon="7.086110">
       <ele>85.35</ele>
       <time>2014-11-03T21:57:31Z</time>
      </trkpt>
      <trkpt lat="43.632680" lon="7.086300">
       <ele>87</ele>
       <time>2014-11-03T21:57:37Z</time>
      </trkpt>
      <trkpt lat="43.632540" lon="7.086430">
       <ele>87.42</ele>
       <time>2014-11-03T21:57:41Z</time>
      </trkpt>
      <trkpt lat="43.632430" lon="7.086580">
       <ele>86.76</ele>
       <time>2014-11-03T21:57:44Z</time>
      </trkpt>
      <trkpt lat="43.632300" lon="7.086790">
       <ele>86.66</ele>
       <time>2014-11-03T21:57:48Z</time>
      </trkpt>
      <trkpt lat="43.631820" lon="7.087990">
       <ele>89.83</ele>
       <time>2014-11-03T21:58:09Z</time>
      </trkpt>
      <trkpt lat="43.631790" lon="7.088200">
       <ele>90.19</ele>
       <time>2014-11-03T21:58:12Z</time>
      </trkpt>
      <trkpt lat="43.631790" lon="7.088510">
       <ele>90.33</ele>
       <time>2014-11-03T21:58:17Z</time>
      </trkpt>
      <trkpt lat="43.631820" lon="7.088810">
       <ele>90.31</ele>
       <time>2014-11-03T21:58:21Z</time>
      </trkpt>
      <trkpt lat="43.631940" lon="7.089620">
       <ele>90.63</ele>
       <time>2014-11-03T21:58:34Z</time>
      </trkpt>
      <trkpt lat="43.631970" lon="7.090040">
       <ele>90.28</ele>
       <time>2014-11-03T21:58:40Z</time>
      </trkpt>
      <trkpt lat="43.631960" lon="7.090250">
       <ele>91.21</ele>
       <time>2014-11-03T21:58:43Z</time>
      </trkpt>
      <trkpt lat="43.631860" lon="7.090680">
       <ele>92.44</ele>
       <time>2014-11-03T21:58:50Z</time>
      </trkpt>
      <trkpt lat="43.631760" lon="7.090980">
       <ele>94.64</ele>
       <time>2014-11-03T21:58:55Z</time>
      </trkpt>
      <trkpt lat="43.631700" lon="7.091080">
       <ele>95.71</ele>
       <time>2014-11-03T21:58:57Z</time>
      </trkpt>
      <trkpt lat="43.631620" lon="7.091170">
       <ele>96.48</ele>
       <time>2014-11-03T21:58:59Z</time>
      </trkpt>
      <trkpt lat="43.631430" lon="7.091320">
       <ele>97.41</ele>
       <time>2014-11-03T21:59:03Z</time>
      </trkpt>
      <trkpt lat="43.631160" lon="7.091470">
       <ele>98.16</ele>
       <time>2014-11-03T21:59:09Z</time>
      </trkpt>
      <trkpt lat="43.631010" lon="7.091580">
       <ele>99.26</ele>
       <time>2014-11-03T21:59:13Z</time>
      </trkpt>
      <trkpt lat="43.630590" lon="7.092000">
       <ele>103.53</ele>
       <time>2014-11-03T21:59:24Z</time>
      </trkpt>
      <trkpt lat="43.630530" lon="7.092090">
       <ele>104.15</ele>
       <time>2014-11-03T21:59:26Z</time>
      </trkpt>
      <trkpt lat="43.630500" lon="7.092160">
       <ele>104.5</ele>
       <time>2014-11-03T21:59:27Z</time>
      </trkpt>
      <trkpt lat="43.630340" lon="7.092810">
       <ele>101.58</ele>
       <time>2014-11-03T21:59:37Z</time>
      </trkpt>
      <trkpt lat="43.630270" lon="7.093030">
       <ele>98.66</ele>
       <time>2014-11-03T21:59:41Z</time>
      </trkpt>
      <trkpt lat="43.630160" lon="7.093290">
       <ele>94.98</ele>
       <time>2014-11-03T21:59:45Z</time>
      </trkpt>
      <trkpt lat="43.630090" lon="7.093390">
       <ele>93.27</ele>
       <time>2014-11-03T21:59:47Z</time>
      </trkpt>
      <trkpt lat="43.629950" lon="7.093490">
       <ele>91.27</ele>
       <time>2014-11-03T21:59:51Z</time>
      </trkpt>
      <trkpt lat="43.629700" lon="7.093850">
       <ele>85.8</ele>
       <time>2014-11-03T21:59:58Z</time>
      </trkpt>
      <trkpt lat="43.629420" lon="7.094090">
       <ele>83.62</ele>
       <time>2014-11-03T22:00:05Z</time>
      </trkpt>
      <trkpt lat="43.629240" lon="7.094320">
       <ele>82.19</ele>
       <time>2014-11-03T22:00:10Z</time>
      </trkpt>
      <trkpt lat="43.628340" lon="7.095890">
       <ele>70.52</ele>
       <time>2014-11-03T22:00:40Z</time>
      </trkpt>
      <trkpt lat="43.628100" lon="7.096500">
       <ele>65.53</ele>
       <time>2014-11-03T22:00:50Z</time>
      </trkpt>
      <trkpt lat="43.628030" lon="7.096640">
       <ele>65.05</ele>
       <time>2014-11-03T22:00:53Z</time>
      </trkpt>
      <trkpt lat="43.627900" lon="7.096550">
       <ele>64.96</ele>
       <time>2014-11-03T22:00:56Z</time>
      </trkpt>
      <trkpt lat="43.627860" lon="7.096500">
       <ele>64.84</ele>
       <time>2014-11-03T22:00:57Z</time>
      </trkpt>
      <trkpt lat="43.627750" lon="7.094780">
       <ele>59.62</ele>
       <time>2014-11-03T22:01:23Z</time>
      </trkpt>
      <trkpt lat="43.627740" lon="7.094430">
       <ele>57.46</ele>
       <time>2014-11-03T22:01:28Z</time>
      </trkpt>
      <trkpt lat="43.627810" lon="7.094120">
       <ele>57.76</ele>
       <time>2014-11-03T22:01:33Z</time>
      </trkpt>
      <trkpt lat="43.627910" lon="7.093780">
       <ele>59.65</ele>
       <time>2014-11-03T22:01:39Z</time>
      </trkpt>
      <trkpt lat="43.628120" lon="7.093230">
       <ele>64.94</ele>
       <time>2014-11-03T22:01:48Z</time>
      </trkpt>
      <trkpt lat="43.628140" lon="7.093140">
       <ele>65.92</ele>
       <time>2014-11-03T22:01:49Z</time>
      </trkpt>
      <trkpt lat="43.628140" lon="7.093040">
       <ele>66.45</ele>
       <time>2014-11-03T22:01:51Z</time>
      </trkpt>
      <trkpt lat="43.628120" lon="7.092930">
       <ele>66.56</ele>
       <time>2014-11-03T22:01:53Z</time>
      </trkpt>
      <trkpt lat="43.628090" lon="7.092870">
       <ele>66.12</ele>
       <time>2014-11-03T22:01:54Z</time>
      </trkpt>
      <trkpt lat="43.628030" lon="7.092810">
       <ele>64.93</ele>
       <time>2014-11-03T22:01:55Z</time>
      </trkpt>
      <trkpt lat="43.627930" lon="7.092800">
       <ele>62.52</ele>
       <time>2014-11-03T22:01:57Z</time>
      </trkpt>
      <trkpt lat="43.627870" lon="7.092850">
       <ele>60.7</ele>
       <time>2014-11-03T22:01:59Z</time>
      </trkpt>
      <trkpt lat="43.627850" lon="7.092900">
       <ele>59.91</ele>
       <time>2014-11-03T22:02:00Z</time>
      </trkpt>
      <trkpt lat="43.627830" lon="7.093220">
       <ele>57.43</ele>
       <time>2014-11-03T22:02:05Z</time>
      </trkpt>
      <trkpt lat="43.627780" lon="7.093410">
       <ele>55.57</ele>
       <time>2014-11-03T22:02:08Z</time>
      </trkpt>
      <trkpt lat="43.627660" lon="7.093680">
       <ele>52.95</ele>
       <time>2014-11-03T22:02:12Z</time>
      </trkpt>
      <trkpt lat="43.627340" lon="7.094250">
       <ele>46.76</ele>
       <time>2014-11-03T22:02:23Z</time>
      </trkpt>
      <trkpt lat="43.627260" lon="7.094430">
       <ele>46.28</ele>
       <time>2014-11-03T22:02:26Z</time>
      </trkpt>
      <trkpt lat="43.627190" lon="7.094610">
       <ele>46.14</ele>
       <time>2014-11-03T22:02:29Z</time>
      </trkpt>
      <trkpt lat="43.627000" lon="7.095270">
       <ele>46.54</ele>
       <time>2014-11-03T22:02:40Z</time>
      </trkpt>
      <trkpt lat="43.626920" lon="7.095390">
       <ele>45.5</ele>
       <time>2014-11-03T22:02:42Z</time>
      </trkpt>
      <trkpt lat="43.626850" lon="7.095440">
       <ele>44.37</ele>
       <time>2014-11-03T22:02:44Z</time>
      </trkpt>
      <trkpt lat="43.626630" lon="7.095510">
       <ele>40.56</ele>
       <time>2014-11-03T22:02:49Z</time>
      </trkpt>
      <trkpt lat="43.626530" lon="7.095560">
       <ele>39.55</ele>
       <time>2014-11-03T22:02:51Z</time>
      </trkpt>
      <trkpt lat="43.626410" lon="7.095650">
       <ele>38.53</ele>
       <time>2014-11-03T22:02:54Z</time>
      </trkpt>
      <trkpt lat="43.626250" lon="7.095850">
       <ele>37.51</ele>
       <time>2014-11-03T22:02:58Z</time>
      </trkpt>
      <trkpt lat="43.626220" lon="7.095930">
       <ele>37.03</ele>
       <time>2014-11-03T22:03:00Z</time>
      </trkpt>
      <trkpt lat="43.626190" lon="7.096040">
       <ele>36.5</ele>
       <time>2014-11-03T22:03:01Z</time>
      </trkpt>
      <trkpt lat="43.626170" lon="7.096710">
       <ele>35.53</ele>
       <time>2014-11-03T22:03:11Z</time>
      </trkpt>
      <trkpt lat="43.626190" lon="7.097380">
       <ele>36.71</ele>
       <time>2014-11-03T22:03:22Z</time>
      </trkpt>
      <trkpt lat="43.626130" lon="7.097810">
       <ele>37.18</ele>
       <time>2014-11-03T22:03:28Z</time>
      </trkpt>
      <trkpt lat="43.626020" lon="7.098200">
       <ele>36.22</ele>
       <time>2014-11-03T22:03:34Z</time>
      </trkpt>
      <trkpt lat="43.625430" lon="7.099700">
       <ele>35.13</ele>
       <time>2014-11-03T22:04:00Z</time>
      </trkpt>
      <trkpt lat="43.625190" lon="7.100300">
       <ele>28.55</ele>
       <time>2014-11-03T22:04:10Z</time>
      </trkpt>
      <trkpt lat="43.625130" lon="7.100520">
       <ele>26.66</ele>
       <time>2014-11-03T22:04:14Z</time>
      </trkpt>
      <trkpt lat="43.625040" lon="7.101110">
       <ele>22.53</ele>
       <time>2014-11-03T22:04:23Z</time>
      </trkpt>
      <trkpt lat="43.624750" lon="7.102730">
       <ele>16.95</ele>
       <time>2014-11-03T22:04:48Z</time>
      </trkpt>
      <trkpt lat="43.624540" lon="7.103440">
       <ele>18.73</ele>
       <time>2014-11-03T22:04:59Z</time>
      </trkpt>
      <trkpt lat="43.624460" lon="7.103650">
       <ele>19.9</ele>
       <time>2014-11-03T22:05:03Z</time>
      </trkpt>
      <trkpt lat="43.624210" lon="7.103910">
       <ele>19.47</ele>
       <time>2014-11-03T22:05:09Z</time>
      </trkpt>
      <trkpt lat="43.623650" lon="7.104330">
       <ele>18.75</ele>
       <time>2014-11-03T22:05:23Z</time>
      </trkpt>
      <trkpt lat="43.623350" lon="7.104600">
       <ele>18.21</ele>
       <time>2014-11-03T22:05:30Z</time>
      </trkpt>
      <trkpt lat="43.623130" lon="7.104890">
       <ele>18.38</ele>
       <time>2014-11-03T22:05:36Z</time>
      </trkpt>
      <trkpt lat="43.622840" lon="7.105540">
       <ele>18.75</ele>
       <time>2014-11-03T22:05:48Z</time>
      </trkpt>
      <trkpt lat="43.622540" lon="7.106340">
       <ele>20.1</ele>
       <time>2014-11-03T22:06:01Z</time>
      </trkpt>
      <trkpt lat="43.622000" lon="7.107300">
       <ele>23.13</ele>
       <time>2014-11-03T22:06:20Z</time>
      </trkpt>
      <trkpt lat="43.621830" lon="7.107510">
       <ele>23.34</ele>
       <time>2014-11-03T22:06:24Z</time>
      </trkpt>
      <trkpt lat="43.621700" lon="7.107630">
       <ele>21.96</ele>
       <time>2014-11-03T22:06:28Z</time>
      </trkpt>
      <trkpt lat="43.621530" lon="7.107750">
       <ele>20.77</ele>
       <time>2014-11-03T22:06:32Z</time>
      </trkpt>
      <trkpt lat="43.621020" lon="7.108040">
       <ele>18.84</ele>
       <time>2014-11-03T22:06:43Z</time>
      </trkpt>
      <trkpt lat="43.620640" lon="7.108220">
       <ele>17.77</ele>
       <time>2014-11-03T22:06:51Z</time>
      </trkpt>
      <trkpt lat="43.620180" lon="7.108380">
       <ele>15.66</ele>
       <time>2014-11-03T22:07:01Z</time>
      </trkpt>
      <trkpt lat="43.619970" lon="7.108470">
       <ele>14.48</ele>
       <time>2014-11-03T22:07:06Z</time>
      </trkpt>
      <trkpt lat="43.619870" lon="7.108550">
       <ele>14.14</ele>
       <time>2014-11-03T22:07:08Z</time>
      </trkpt>
      <trkpt lat="43.619790" lon="7.108660">
       <ele>13.77</ele>
       <time>2014-11-03T22:07:10Z</time>
      </trkpt>
      <trkpt lat="43.619730" lon="7.108790">
       <ele>13.39</ele>
       <time>2014-11-03T22:07:13Z</time>
      </trkpt>
      <trkpt lat="43.619510" lon="7.109600">
       <ele>11.24</ele>
       <time>2014-11-03T22:07:26Z</time>
      </trkpt>
      <trkpt lat="43.619310" lon="7.110200">
       <ele>10</ele>
       <time>2014-11-03T22:07:36Z</time>
      </trkpt>
      <trkpt lat="43.618940" lon="7.110460">
       <ele>10.12</ele>
       <time>2014-11-03T22:07:44Z</time>
      </trkpt>
      <trkpt lat="43.618770" lon="7.110640">
       <ele>10.11</ele>
       <time>2014-11-03T22:07:49Z</time>
      </trkpt>
      <trkpt lat="43.618220" lon="7.111630">
       <ele>9.04</ele>
       <time>2014-11-03T22:08:07Z</time>
      </trkpt>
      <trkpt lat="43.618120" lon="7.111780">
       <ele>8.9</ele>
       <time>2014-11-03T22:08:11Z</time>
      </trkpt>
      <trkpt lat="43.617920" lon="7.112020">
       <ele>8.79</ele>
       <time>2014-11-03T22:08:16Z</time>
      </trkpt>
      <trkpt lat="43.617920" lon="7.112090">
       <ele>8.74</ele>
       <time>2014-11-03T22:08:17Z</time>
      </trkpt>
      <trkpt lat="43.617890" lon="7.112170">
       <ele>8.72</ele>
       <time>2014-11-03T22:08:18Z</time>
      </trkpt>
      <trkpt lat="43.617830" lon="7.112230">
       <ele>8.73</ele>
       <time>2014-11-03T22:08:20Z</time>
      </trkpt>
      <trkpt lat="43.617800" lon="7.112240">
       <ele>8.75</ele>
       <time>2014-11-03T22:08:21Z</time>
      </trkpt>
      <trkpt lat="43.617730" lon="7.112450">
       <ele>8.74</ele>
       <time>2014-11-03T22:08:24Z</time>
      </trkpt>
      <trkpt lat="43.617640" lon="7.112970">
       <ele>8.93</ele>
       <time>2014-11-03T22:08:32Z</time>
      </trkpt>
      <trkpt lat="43.617560" lon="7.113310">
       <ele>9</ele>
       <time>2014-11-03T22:08:37Z</time>
      </trkpt>
      <trkpt lat="43.617480" lon="7.113550">
       <ele>8.98</ele>
       <time>2014-11-03T22:08:41Z</time>
      </trkpt>
      <trkpt lat="43.617300" lon="7.113890">
       <ele>8.76</ele>
       <time>2014-11-03T22:08:48Z</time>
      </trkpt>
      <trkpt lat="43.617170" lon="7.114040">
       <ele>8.6</ele>
       <time>2014-11-03T22:08:51Z</time>
      </trkpt>
      <trkpt lat="43.616780" lon="7.114800">
       <ele>8.79</ele>
       <time>2014-11-03T22:09:05Z</time>
      </trkpt>
      <trkpt lat="43.615800" lon="7.116800">
       <ele>8.38</ele>
       <time>2014-11-03T22:09:42Z</time>
      </trkpt>
      <trkpt lat="43.615390" lon="7.117680">
       <ele>9.25</ele>
       <time>2014-11-03T22:09:57Z</time>
      </trkpt>
      <trkpt lat="43.615090" lon="7.118590">
       <ele>7.73</ele>
       <time>2014-11-03T22:10:12Z</time>
      </trkpt>
      <trkpt lat="43.614990" lon="7.119040">
       <ele>7.14</ele>
       <time>2014-11-03T22:10:19Z</time>
      </trkpt>
      <trkpt lat="43.614900" lon="7.119360">
       <ele>6.41</ele>
       <time>2014-11-03T22:10:24Z</time>
      </trkpt>
      <trkpt lat="43.614880" lon="7.119500">
       <ele>6.06</ele>
       <time>2014-11-03T22:10:27Z</time>
      </trkpt>
      <trkpt lat="43.614880" lon="7.119670">
       <ele>5.65</ele>
       <time>2014-11-03T22:10:29Z</time>
      </trkpt>
      <trkpt lat="43.614950" lon="7.119900">
       <ele>5.18</ele>
       <time>2014-11-03T22:10:33Z</time>
      </trkpt>
      <trkpt lat="43.615010" lon="7.119970">
       <ele>5.07</ele>
       <time>2014-11-03T22:10:35Z</time>
      </trkpt>
      <trkpt lat="43.615020" lon="7.120010">
       <ele>5</ele>
       <time>2014-11-03T22:10:35Z</time>
      </trkpt>
      <trkpt lat="43.615030" lon="7.120140">
       <ele>5.01</ele>
       <time>2014-11-03T22:10:37Z</time>
      </trkpt>
      <trkpt lat="43.615010" lon="7.120210">
       <ele>5</ele>
       <time>2014-11-03T22:10:38Z</time>
      </trkpt>
      <trkpt lat="43.614910" lon="7.120300">
       <ele>4.85</ele>
       <time>2014-11-03T22:10:41Z</time>
      </trkpt>
      <trkpt lat="43.614840" lon="7.120310">
       <ele>4.74</ele>
       <time>2014-11-03T22:10:42Z</time>
      </trkpt>
      <trkpt lat="43.614790" lon="7.120290">
       <ele>4.66</ele>
       <time>2014-11-03T22:10:43Z</time>
      </trkpt>
      <trkpt lat="43.614680" lon="7.120400">
       <ele>4.43</ele>
       <time>2014-11-03T22:10:46Z</time>
      </trkpt>
      <trkpt lat="43.614600" lon="7.120490">
       <ele>4.24</ele>
       <time>2014-11-03T22:10:48Z</time>
      </trkpt>
      <trkpt lat="43.614510" lon="7.120630">
       <ele>3.97</ele>
       <time>2014-11-03T22:10:51Z</time>
      </trkpt>
      <trkpt lat="43.614370" lon="7.120920">
       <ele>3.48</ele>
       <time>2014-11-03T22:10:56Z</time>
      </trkpt>
      <trkpt lat="43.613580" lon="7.122940">
       <ele>4</ele>
       <time>2014-11-03T22:11:31Z</time>
      </trkpt>
      <trkpt lat="43.612800" lon="7.124880">
       <ele>3.4</ele>
       <time>2014-11-03T22:12:04Z</time>
      </trkpt>
      <trkpt lat="43.612510" lon="7.125630">
       <ele>3.76</ele>
       <time>2014-11-03T22:12:17Z</time>
      </trkpt>
      <trkpt lat="43.612510" lon="7.125760">
       <ele>3.91</ele>
       <time>2014-11-03T22:12:19Z</time>
      </trkpt>
      <trkpt lat="43.612490" lon="7.125880">
       <ele>4.01</ele>
       <time>2014-11-03T22:12:21Z</time>
      </trkpt>
      <trkpt lat="43.612490" lon="7.126140">
       <ele>4.01</ele>
       <time>2014-11-03T22:12:25Z</time>
      </trkpt>
      <trkpt lat="43.612510" lon="7.126230">
       <ele>4</ele>
       <time>2014-11-03T22:12:26Z</time>
      </trkpt>
      <trkpt lat="43.612570" lon="7.126310">
       <ele>4</ele>
       <time>2014-11-03T22:12:28Z</time>
      </trkpt>
      <trkpt lat="43.612600" lon="7.126410">
       <ele>4</ele>
       <time>2014-11-03T22:12:29Z</time>
      </trkpt>
      <trkpt lat="43.612600" lon="7.126480">
       <ele>4</ele>
       <time>2014-11-03T22:12:30Z</time>
      </trkpt>
      <trkpt lat="43.612560" lon="7.126600">
       <ele>4</ele>
       <time>2014-11-03T22:12:32Z</time>
      </trkpt>
      <trkpt lat="43.612480" lon="7.126670">
       <ele>4</ele>
       <time>2014-11-03T22:12:34Z</time>
      </trkpt>
      <trkpt lat="43.612360" lon="7.126670">
       <ele>4</ele>
       <time>2014-11-03T22:12:37Z</time>
      </trkpt>
      <trkpt lat="43.612310" lon="7.126620">
       <ele>4.01</ele>
       <time>2014-11-03T22:12:38Z</time>
      </trkpt>
      <trkpt lat="43.612260" lon="7.126520">
       <ele>4.05</ele>
       <time>2014-11-03T22:12:40Z</time>
      </trkpt>
      <trkpt lat="43.611960" lon="7.126440">
       <ele>4.18</ele>
       <time>2014-11-03T22:12:46Z</time>
      </trkpt>
      <trkpt lat="43.611330" lon="7.126140">
       <ele>4.38</ele>
       <time>2014-11-03T22:13:00Z</time>
      </trkpt>
      <trkpt lat="43.611260" lon="7.126720">
       <ele>3.9</ele>
       <time>2014-11-03T22:13:09Z</time>
      </trkpt>
      <trkpt lat="43.612350" lon="7.127190">
       <ele>3.37</ele>
       <time>2014-11-03T22:13:33Z</time>
      </trkpt>
      <trkpt lat="43.613020" lon="7.127430">
       <ele>3.08</ele>
       <time>2014-11-03T22:13:47Z</time>
      </trkpt>
      <trkpt lat="43.613170" lon="7.127500">
       <ele>3</ele>
       <time>2014-11-03T22:13:50Z</time>
      </trkpt>
      <trkpt lat="43.613240" lon="7.127550">
       <ele>3</ele>
       <time>2014-11-03T22:13:52Z</time>
      </trkpt>
      <trkpt lat="43.615040" lon="7.128300">
       <ele>3.08</ele>
       <time>2014-11-03T22:14:31Z</time>
      </trkpt>
      <trkpt lat="43.616530" lon="7.128960">
       <ele>3.29</ele>
       <time>2014-11-03T22:15:03Z</time>
      </trkpt>
      <trkpt lat="43.616860" lon="7.129120">
       <ele>3.36</ele>
       <time>2014-11-03T22:15:10Z</time>
      </trkpt>
      <trkpt lat="43.616910" lon="7.129090">
       <ele>3.5</ele>
       <time>2014-11-03T22:15:12Z</time>
      </trkpt>
      <trkpt lat="43.617010" lon="7.129100">
       <ele>3.6</ele>
       <time>2014-11-03T22:15:14Z</time>
      </trkpt>
      <trkpt lat="43.617070" lon="7.129130">
       <ele>3.59</ele>
       <time>2014-11-03T22:15:15Z</time>
      </trkpt>
      <trkpt lat="43.617100" lon="7.129220">
       <ele>3.39</ele>
       <time>2014-11-03T22:15:16Z</time>
      </trkpt>
      <trkpt lat="43.617300" lon="7.129310">
       <ele>3.32</ele>
       <time>2014-11-03T22:15:21Z</time>
      </trkpt>
      <trkpt lat="43.618000" lon="7.129600">
       <ele>3.35</ele>
       <time>2014-11-03T22:15:36Z</time>
      </trkpt>
      <trkpt lat="43.620230" lon="7.130590">
       <ele>5.12</ele>
       <time>2014-11-03T22:16:25Z</time>
      </trkpt>
      <trkpt lat="43.624140" lon="7.132250">
       <ele>5.81</ele>
       <time>2014-11-03T22:17:49Z</time>
      </trkpt>
      <trkpt lat="43.626990" lon="7.133420">
       <ele>4</ele>
       <time>2014-11-03T22:18:51Z</time>
      </trkpt>
      <trkpt lat="43.627240" lon="7.133510">
       <ele>4.78</ele>
       <time>2014-11-03T22:18:56Z</time>
      </trkpt>
      <trkpt lat="43.627880" lon="7.133790">
       <ele>4.75</ele>
       <time>2014-11-03T22:19:10Z</time>
      </trkpt>
      <trkpt lat="43.628580" lon="7.134060">
       <ele>3.77</ele>
       <time>2014-11-03T22:19:25Z</time>
      </trkpt>
      <trkpt lat="43.628770" lon="7.134150">
       <ele>4.06</ele>
       <time>2014-11-03T22:19:30Z</time>
      </trkpt>
      <trkpt lat="43.628950" lon="7.134190">
       <ele>4.41</ele>
       <time>2014-11-03T22:19:33Z</time>
      </trkpt>
      <trkpt lat="43.629960" lon="7.134600">
       <ele>5.9</ele>
       <time>2014-11-03T22:19:55Z</time>
      </trkpt>
      <trkpt lat="43.630750" lon="7.134830">
       <ele>5.82</ele>
       <time>2014-11-03T22:20:12Z</time>
      </trkpt>
      <trkpt lat="43.631040" lon="7.134890">
       <ele>5.9</ele>
       <time>2014-11-03T22:20:18Z</time>
      </trkpt>
      <trkpt lat="43.631740" lon="7.134980">
       <ele>6.09</ele>
       <time>2014-11-03T22:20:33Z</time>
      </trkpt>
      <trkpt lat="43.632210" lon="7.135000">
       <ele>6.65</ele>
       <time>2014-11-03T22:20:42Z</time>
      </trkpt>
      <trkpt lat="43.633190" lon="7.134970">
       <ele>9.43</ele>
       <time>2014-11-03T22:21:03Z</time>
      </trkpt>
      <trkpt lat="43.634440" lon="7.134960">
       <ele>9.55</ele>
       <time>2014-11-03T22:21:29Z</time>
      </trkpt>
      <trkpt lat="43.636060" lon="7.134900">
       <ele>11.6</ele>
       <time>2014-11-03T22:22:02Z</time>
      </trkpt>
      <trkpt lat="43.636850" lon="7.134830">
       <ele>9.43</ele>
       <time>2014-11-03T22:22:19Z</time>
      </trkpt>
      <trkpt lat="43.637630" lon="7.134810">
       <ele>11.89</ele>
       <time>2014-11-03T22:22:35Z</time>
      </trkpt>
      <trkpt lat="43.637930" lon="7.134820">
       <ele>12.35</ele>
       <time>2014-11-03T22:22:41Z</time>
      </trkpt>
      <trkpt lat="43.638040" lon="7.134840">
       <ele>12.5</ele>
       <time>2014-11-03T22:22:43Z</time>
      </trkpt>
      <trkpt lat="43.638260" lon="7.134940">
       <ele>12.84</ele>
       <time>2014-11-03T22:22:48Z</time>
      </trkpt>
      <trkpt lat="43.638440" lon="7.135110">
       <ele>12.38</ele>
       <time>2014-11-03T22:22:53Z</time>
      </trkpt>
      <trkpt lat="43.638490" lon="7.135180">
       <ele>12.06</ele>
       <time>2014-11-03T22:22:54Z</time>
      </trkpt>
      <trkpt lat="43.638610" lon="7.135370">
       <ele>11.3</ele>
       <time>2014-11-03T22:22:58Z</time>
      </trkpt>
      <trkpt lat="43.638680" lon="7.135560">
       <ele>10.71</ele>
       <time>2014-11-03T22:23:01Z</time>
      </trkpt>
      <trkpt lat="43.638740" lon="7.135890">
       <ele>9.86</ele>
       <time>2014-11-03T22:23:06Z</time>
      </trkpt>
      <trkpt lat="43.638760" lon="7.136170">
       <ele>9.2</ele>
       <time>2014-11-03T22:23:10Z</time>
      </trkpt>
      <trkpt lat="43.638830" lon="7.136710">
       <ele>8.06</ele>
       <time>2014-11-03T22:23:19Z</time>
      </trkpt>
      <trkpt lat="43.638920" lon="7.137030">
       <ele>7.41</ele>
       <time>2014-11-03T22:23:24Z</time>
      </trkpt>
      <trkpt lat="43.639060" lon="7.137370">
       <ele>6.95</ele>
       <time>2014-11-03T22:23:30Z</time>
      </trkpt>
      <trkpt lat="43.639060" lon="7.137480">
       <ele>6.67</ele>
       <time>2014-11-03T22:23:31Z</time>
      </trkpt>
      <trkpt lat="43.639380" lon="7.138120">
       <ele>6.58</ele>
       <time>2014-11-03T22:23:43Z</time>
      </trkpt>
      <trkpt lat="43.639490" lon="7.138310">
       <ele>6.42</ele>
       <time>2014-11-03T22:23:47Z</time>
      </trkpt>
      <trkpt lat="43.640700" lon="7.140790">
       <ele>6.99</ele>
       <time>2014-11-03T22:24:31Z</time>
      </trkpt>
      <trkpt lat="43.641100" lon="7.141540">
       <ele>6.03</ele>
       <time>2014-11-03T22:24:45Z</time>
      </trkpt>
      <trkpt lat="43.641310" lon="7.141870">
       <ele>5.07</ele>
       <time>2014-11-03T22:24:52Z</time>
      </trkpt>
      <trkpt lat="43.641570" lon="7.142200">
       <ele>4.2</ele>
       <time>2014-11-03T22:24:59Z</time>
      </trkpt>
      <trkpt lat="43.643570" lon="7.144480">
       <ele>3.75</ele>
       <time>2014-11-03T22:25:53Z</time>
      </trkpt>
      <trkpt lat="43.643680" lon="7.144560">
       <ele>3.87</ele>
       <time>2014-11-03T22:25:56Z</time>
      </trkpt>
      <trkpt lat="43.643770" lon="7.144590">
       <ele>4.04</ele>
       <time>2014-11-03T22:25:58Z</time>
      </trkpt>
      <trkpt lat="43.644190" lon="7.144660">
       <ele>5.03</ele>
       <time>2014-11-03T22:26:06Z</time>
      </trkpt>
      <trkpt lat="43.644310" lon="7.144720">
       <ele>5.17</ele>
       <time>2014-11-03T22:26:09Z</time>
      </trkpt>
      <trkpt lat="43.644380" lon="7.144780">
       <ele>5.25</ele>
       <time>2014-11-03T22:26:11Z</time>
      </trkpt>
      <trkpt lat="43.644530" lon="7.144980">
       <ele>5.44</ele>
       <time>2014-11-03T22:26:15Z</time>
      </trkpt>
      <trkpt lat="43.644920" lon="7.145860">
       <ele>6</ele>
       <time>2014-11-03T22:26:31Z</time>
      </trkpt>
      <trkpt lat="43.645080" lon="7.146080">
       <ele>6.61</ele>
       <time>2014-11-03T22:26:35Z</time>
      </trkpt>
      <trkpt lat="43.646960" lon="7.147840">
       <ele>3.16</ele>
       <time>2014-11-03T22:27:22Z</time>
      </trkpt>
      <trkpt lat="43.648080" lon="7.148940">
       <ele>2.85</ele>
       <time>2014-11-03T22:27:51Z</time>
      </trkpt>
      <trkpt lat="43.649160" lon="7.150130">
       <ele>3.14</ele>
       <time>2014-11-03T22:28:19Z</time>
      </trkpt>
      <trkpt lat="43.649520" lon="7.150580">
       <ele>2.98</ele>
       <time>2014-11-03T22:28:30Z</time>
      </trkpt>
      <trkpt lat="43.649630" lon="7.150690">
       <ele>2.81</ele>
       <time>2014-11-03T22:28:32Z</time>
      </trkpt>
      <trkpt lat="43.650180" lon="7.151030">
       <ele>2.84</ele>
       <time>2014-11-03T22:28:45Z</time>
      </trkpt>
      <trkpt lat="43.650460" lon="7.151310">
       <ele>3.91</ele>
       <time>2014-11-03T22:28:52Z</time>
      </trkpt>
      <trkpt lat="43.650570" lon="7.151480">
       <ele>4.3</ele>
       <time>2014-11-03T22:28:55Z</time>
      </trkpt>
      <trkpt lat="43.650680" lon="7.151700">
       <ele>4.65</ele>
       <time>2014-11-03T22:28:59Z</time>
      </trkpt>
      <trkpt lat="43.650760" lon="7.151890">
       <ele>5.02</ele>
       <time>2014-11-03T22:29:03Z</time>
      </trkpt>
      <trkpt lat="43.650890" lon="7.152310">
       <ele>6</ele>
       <time>2014-11-03T22:29:10Z</time>
      </trkpt>
      <trkpt lat="43.650980" lon="7.152490">
       <ele>6.69</ele>
       <time>2014-11-03T22:29:13Z</time>
      </trkpt>
      <trkpt lat="43.652340" lon="7.154290">
       <ele>11.78</ele>
       <time>2014-11-03T22:29:52Z</time>
      </trkpt>
      <trkpt lat="43.652970" lon="7.155240">
       <ele>4.24</ele>
       <time>2014-11-03T22:30:11Z</time>
      </trkpt>
      <trkpt lat="43.653480" lon="7.156090">
       <ele>4.09</ele>
       <time>2014-11-03T22:30:28Z</time>
      </trkpt>
      <trkpt lat="43.654030" lon="7.157150">
       <ele>7.08</ele>
       <time>2014-11-03T22:30:47Z</time>
      </trkpt>
      <trkpt lat="43.654290" lon="7.156900">
       <ele>7.83</ele>
       <time>2014-11-03T22:30:54Z</time>
      </trkpt>
      <trkpt lat="43.654560" lon="7.157480">
       <ele>8.44</ele>
       <time>2014-11-03T22:31:04Z</time>
      </trkpt>
      <trkpt lat="43.654610" lon="7.157560">
       <ele>8.46</ele>
       <time>2014-11-03T22:31:06Z</time>
      </trkpt>
      <trkpt lat="43.654430" lon="7.157660">
       <ele>8.12</ele>
       <time>2014-11-03T22:31:10Z</time>
      </trkpt>
      <trkpt lat="43.654310" lon="7.157770">
       <ele>7.85</ele>
       <time>2014-11-03T22:31:13Z</time>
      </trkpt>
      <trkpt lat="43.654240" lon="7.157810">
       <ele>7.72</ele>
       <time>2014-11-03T22:31:14Z</time>
      </trkpt>
      <trkpt lat="43.654060" lon="7.157400">
       <ele>7.25</ele>
       <time>2014-11-03T22:31:22Z</time>
      </trkpt>
      <trkpt lat="43.653750" lon="7.156770">
       <ele>5.45</ele>
       <time>2014-11-03T22:31:33Z</time>
      </trkpt>
      <trkpt lat="43.653390" lon="7.156100">
       <ele>3.83</ele>
       <time>2014-11-03T22:31:46Z</time>
      </trkpt>
      <trkpt lat="43.652760" lon="7.155080">
       <ele>5.05</ele>
       <time>2014-11-03T22:32:06Z</time>
      </trkpt>
      <trkpt lat="43.651990" lon="7.153970">
       <ele>10.72</ele>
       <time>2014-11-03T22:32:29Z</time>
      </trkpt>
      <trkpt lat="43.650800" lon="7.152420">
       <ele>5.71</ele>
       <time>2014-11-03T22:33:03Z</time>
      </trkpt>
      <trkpt lat="43.650690" lon="7.152210">
       <ele>4.96</ele>
       <time>2014-11-03T22:33:07Z</time>
      </trkpt>
      <trkpt lat="43.650490" lon="7.151710">
       <ele>4.16</ele>
       <time>2014-11-03T22:33:15Z</time>
      </trkpt>
      <trkpt lat="43.650310" lon="7.151440">
       <ele>3.57</ele>
       <time>2014-11-03T22:33:21Z</time>
      </trkpt>
      <trkpt lat="43.650230" lon="7.151340">
       <ele>3.27</ele>
       <time>2014-11-03T22:33:23Z</time>
      </trkpt>
      <trkpt lat="43.650090" lon="7.151210">
       <ele>2.72</ele>
       <time>2014-11-03T22:33:26Z</time>
      </trkpt>
      <trkpt lat="43.649890" lon="7.151070">
       <ele>2.4</ele>
       <time>2014-11-03T22:33:31Z</time>
      </trkpt>
      <trkpt lat="43.649110" lon="7.150210">
       <ele>3.13</ele>
       <time>2014-11-03T22:33:52Z</time>
      </trkpt>
      <trkpt lat="43.648910" lon="7.149950">
       <ele>2.71</ele>
       <time>2014-11-03T22:33:57Z</time>
      </trkpt>
      <trkpt lat="43.648560" lon="7.149550">
       <ele>2.66</ele>
       <time>2014-11-03T22:34:07Z</time>
      </trkpt>
      <trkpt lat="43.648040" lon="7.149020">
       <ele>2.59</ele>
       <time>2014-11-03T22:34:20Z</time>
      </trkpt>
      <trkpt lat="43.647550" lon="7.148490">
       <ele>1.98</ele>
       <time>2014-11-03T22:34:33Z</time>
      </trkpt>
      <trkpt lat="43.647270" lon="7.148220">
       <ele>2.77</ele>
       <time>2014-11-03T22:34:40Z</time>
      </trkpt>
      <trkpt lat="43.647030" lon="7.148020">
       <ele>3.2</ele>
       <time>2014-11-03T22:34:46Z</time>
      </trkpt>
      <trkpt lat="43.646360" lon="7.147360">
       <ele>2.95</ele>
       <time>2014-11-03T22:35:03Z</time>
      </trkpt>
      <trkpt lat="43.645050" lon="7.146140">
       <ele>6.92</ele>
       <time>2014-11-03T22:35:36Z</time>
      </trkpt>
      <trkpt lat="43.644880" lon="7.145950">
       <ele>6.29</ele>
       <time>2014-11-03T22:35:40Z</time>
      </trkpt>
      <trkpt lat="43.644680" lon="7.145550">
       <ele>5.62</ele>
       <time>2014-11-03T22:35:48Z</time>
      </trkpt>
      <trkpt lat="43.644460" lon="7.145050">
       <ele>5.35</ele>
       <time>2014-11-03T22:35:56Z</time>
      </trkpt>
      <trkpt lat="43.644340" lon="7.144880">
       <ele>5.21</ele>
       <time>2014-11-03T22:36:00Z</time>
      </trkpt>
      <trkpt lat="43.644230" lon="7.144800">
       <ele>5.08</ele>
       <time>2014-11-03T22:36:03Z</time>
      </trkpt>
      <trkpt lat="43.644130" lon="7.144760">
       <ele>4.9</ele>
       <time>2014-11-03T22:36:05Z</time>
      </trkpt>
      <trkpt lat="43.643770" lon="7.144720">
       <ele>3.89</ele>
       <time>2014-11-03T22:36:12Z</time>
      </trkpt>
      <trkpt lat="43.643770" lon="7.144590">
       <ele>4.04</ele>
       <time>2014-11-03T22:36:14Z</time>
      </trkpt>
      <trkpt lat="43.644190" lon="7.144660">
       <ele>5.03</ele>
       <time>2014-11-03T22:36:23Z</time>
      </trkpt>
      <trkpt lat="43.644310" lon="7.144720">
       <ele>5.17</ele>
       <time>2014-11-03T22:36:26Z</time>
      </trkpt>
      <trkpt lat="43.644380" lon="7.144780">
       <ele>5.25</ele>
       <time>2014-11-03T22:36:27Z</time>
      </trkpt>
      <trkpt lat="43.644530" lon="7.144980">
       <ele>5.44</ele>
       <time>2014-11-03T22:36:32Z</time>
      </trkpt>
      <trkpt lat="43.644920" lon="7.145860">
       <ele>6</ele>
       <time>2014-11-03T22:36:47Z</time>
      </trkpt>
      <trkpt lat="43.645080" lon="7.146080">
       <ele>6.61</ele>
       <time>2014-11-03T22:36:52Z</time>
      </trkpt>
      <trkpt lat="43.646960" lon="7.147840">
       <ele>3.16</ele>
       <time>2014-11-03T22:37:39Z</time>
      </trkpt>
      <trkpt lat="43.648080" lon="7.148940">
       <ele>2.85</ele>
       <time>2014-11-03T22:38:07Z</time>
      </trkpt>
      <trkpt lat="43.649160" lon="7.150130">
       <ele>3.14</ele>
       <time>2014-11-03T22:38:36Z</time>
      </trkpt>
      <trkpt lat="43.649520" lon="7.150580">
       <ele>2.98</ele>
       <time>2014-11-03T22:38:46Z</time>
      </trkpt>
      <trkpt lat="43.649630" lon="7.150690">
       <ele>2.81</ele>
       <time>2014-11-03T22:38:49Z</time>
      </trkpt>
      <trkpt lat="43.650180" lon="7.151030">
       <ele>2.84</ele>
       <time>2014-11-03T22:39:01Z</time>
      </trkpt>
      <trkpt lat="43.650460" lon="7.151310">
       <ele>3.91</ele>
       <time>2014-11-03T22:39:09Z</time>
      </trkpt>
      <trkpt lat="43.650570" lon="7.151480">
       <ele>4.3</ele>
       <time>2014-11-03T22:39:12Z</time>
      </trkpt>
      <trkpt lat="43.650680" lon="7.151700">
       <ele>4.65</ele>
       <time>2014-11-03T22:39:16Z</time>
      </trkpt>
      <trkpt lat="43.650760" lon="7.151890">
       <ele>5.02</ele>
       <time>2014-11-03T22:39:19Z</time>
      </trkpt>
      <trkpt lat="43.650890" lon="7.152310">
       <ele>6</ele>
       <time>2014-11-03T22:39:26Z</time>
      </trkpt>
      <trkpt lat="43.650980" lon="7.152490">
       <ele>6.69</ele>
       <time>2014-11-03T22:39:29Z</time>
      </trkpt>
      <trkpt lat="43.652340" lon="7.154290">
       <ele>11.78</ele>
       <time>2014-11-03T22:40:08Z</time>
      </trkpt>
      <trkpt lat="43.652970" lon="7.155240">
       <ele>4.24</ele>
       <time>2014-11-03T22:40:28Z</time>
      </trkpt>
      <trkpt lat="43.653480" lon="7.156090">
       <ele>4.09</ele>
       <time>2014-11-03T22:40:44Z</time>
      </trkpt>
      <trkpt lat="43.654030" lon="7.157150">
       <ele>7.08</ele>
       <time>2014-11-03T22:41:04Z</time>
      </trkpt>
      <trkpt lat="43.654270" lon="7.157670">
       <ele>7.92</ele>
       <time>2014-11-03T22:41:13Z</time>
      </trkpt>
      <trkpt lat="43.654800" lon="7.158970">
       <ele>6.05</ele>
       <time>2014-11-03T22:41:36Z</time>
      </trkpt>
      <trkpt lat="43.655080" lon="7.159710">
       <ele>4.26</ele>
       <time>2014-11-03T22:41:48Z</time>
      </trkpt>
      <trkpt lat="43.655180" lon="7.160050">
       <ele>3.55</ele>
       <time>2014-11-03T22:41:54Z</time>
      </trkpt>
      <trkpt lat="43.655190" lon="7.160140">
       <ele>3.38</ele>
       <time>2014-11-03T22:41:55Z</time>
      </trkpt>
      <trkpt lat="43.655910" lon="7.162030">
       <ele>4.61</ele>
       <time>2014-11-03T22:42:27Z</time>
      </trkpt>
      <trkpt lat="43.656460" lon="7.163530">
       <ele>6.67</ele>
       <time>2014-11-03T22:42:52Z</time>
      </trkpt>
      <trkpt lat="43.656790" lon="7.164540">
       <ele>5.24</ele>
       <time>2014-11-03T22:43:09Z</time>
      </trkpt>
      <trkpt lat="43.657240" lon="7.165830">
       <ele>5.07</ele>
       <time>2014-11-03T22:43:30Z</time>
      </trkpt>
      <trkpt lat="43.657380" lon="7.166300">
       <ele>4.92</ele>
       <time>2014-11-03T22:43:38Z</time>
      </trkpt>
      <trkpt lat="43.657520" lon="7.166870">
       <ele>5.29</ele>
       <time>2014-11-03T22:43:47Z</time>
      </trkpt>
      <trkpt lat="43.657660" lon="7.167670">
       <ele>6.69</ele>
       <time>2014-11-03T22:43:59Z</time>
      </trkpt>
      <trkpt lat="43.657730" lon="7.168140">
       <ele>6.97</ele>
       <time>2014-11-03T22:44:07Z</time>
      </trkpt>
      <trkpt lat="43.657780" lon="7.168750">
       <ele>6.69</ele>
       <time>2014-11-03T22:44:16Z</time>
      </trkpt>
      <trkpt lat="43.657830" lon="7.168880">
       <ele>6.97</ele>
       <time>2014-11-03T22:44:18Z</time>
      </trkpt>
      <trkpt lat="43.657850" lon="7.169040">
       <ele>6.94</ele>
       <time>2014-11-03T22:44:20Z</time>
      </trkpt>
      <trkpt lat="43.657870" lon="7.169630">
       <ele>5.46</ele>
       <time>2014-11-03T22:44:29Z</time>
      </trkpt>
      <trkpt lat="43.657840" lon="7.170360">
       <ele>4.3</ele>
       <time>2014-11-03T22:44:40Z</time>
      </trkpt>
      <trkpt lat="43.657720" lon="7.171250">
       <ele>5.16</ele>
       <time>2014-11-03T22:44:54Z</time>
      </trkpt>
      <trkpt lat="43.657600" lon="7.171720">
       <ele>6.18</ele>
       <time>2014-11-03T22:45:01Z</time>
      </trkpt>
      <trkpt lat="43.657040" lon="7.173310">
       <ele>7.17</ele>
       <time>2014-11-03T22:45:28Z</time>
      </trkpt>
      <trkpt lat="43.656770" lon="7.174160">
       <ele>7.48</ele>
       <time>2014-11-03T22:45:42Z</time>
      </trkpt>
      <trkpt lat="43.656640" lon="7.174770">
       <ele>5.38</ele>
       <time>2014-11-03T22:45:51Z</time>
      </trkpt>
      <trkpt lat="43.656530" lon="7.175620">
       <ele>4.42</ele>
       <time>2014-11-03T22:46:04Z</time>
      </trkpt>
      <trkpt lat="43.656490" lon="7.176310">
       <ele>4.37</ele>
       <time>2014-11-03T22:46:15Z</time>
      </trkpt>
      <trkpt lat="43.656520" lon="7.177120">
       <ele>4.83</ele>
       <time>2014-11-03T22:46:27Z</time>
      </trkpt>
      <trkpt lat="43.656720" lon="7.179210">
       <ele>4.19</ele>
       <time>2014-11-03T22:46:58Z</time>
      </trkpt>
      <trkpt lat="43.656940" lon="7.180630">
       <ele>5.31</ele>
       <time>2014-11-03T22:47:20Z</time>
      </trkpt>
      <trkpt lat="43.657190" lon="7.181670">
       <ele>5.38</ele>
       <time>2014-11-03T22:47:37Z</time>
      </trkpt>
      <trkpt lat="43.657280" lon="7.181980">
       <ele>5.5</ele>
       <time>2014-11-03T22:47:42Z</time>
      </trkpt>
      <trkpt lat="43.657380" lon="7.182450">
       <ele>5.24</ele>
       <time>2014-11-03T22:47:49Z</time>
      </trkpt>
      <trkpt lat="43.657800" lon="7.184120">
       <ele>5.47</ele>
       <time>2014-11-03T22:48:16Z</time>
      </trkpt>
      <trkpt lat="43.658930" lon="7.188790">
       <ele>6.56</ele>
       <time>2014-11-03T22:49:29Z</time>
      </trkpt>
      <trkpt lat="43.659260" lon="7.189970">
       <ele>5.18</ele>
       <time>2014-11-03T22:49:48Z</time>
      </trkpt>
      <trkpt lat="43.659480" lon="7.190540">
       <ele>6.67</ele>
       <time>2014-11-03T22:49:58Z</time>
      </trkpt>
      <trkpt lat="43.659670" lon="7.190970">
       <ele>7.8</ele>
       <time>2014-11-03T22:50:06Z</time>
      </trkpt>
      <trkpt lat="43.659890" lon="7.191420">
       <ele>9.09</ele>
       <time>2014-11-03T22:50:14Z</time>
      </trkpt>
      <trkpt lat="43.660030" lon="7.191670">
       <ele>10.15</ele>
       <time>2014-11-03T22:50:18Z</time>
      </trkpt>
      <trkpt lat="43.660620" lon="7.192620">
       <ele>10.49</ele>
       <time>2014-11-03T22:50:37Z</time>
      </trkpt>
      <trkpt lat="43.661340" lon="7.193730">
       <ele>12.14</ele>
       <time>2014-11-03T22:51:00Z</time>
      </trkpt>
      <trkpt lat="43.661540" lon="7.194060">
       <ele>12.66</ele>
       <time>2014-11-03T22:51:06Z</time>
      </trkpt>
      <trkpt lat="43.661630" lon="7.194240">
       <ele>12.77</ele>
       <time>2014-11-03T22:51:09Z</time>
      </trkpt>
      <trkpt lat="43.662000" lon="7.194800">
       <ele>13.83</ele>
       <time>2014-11-03T22:51:21Z</time>
      </trkpt>
      <trkpt lat="43.662500" lon="7.195620">
       <ele>11.53</ele>
       <time>2014-11-03T22:51:37Z</time>
      </trkpt>
      <trkpt lat="43.662900" lon="7.196400">
       <ele>12.67</ele>
       <time>2014-11-03T22:51:51Z</time>
      </trkpt>
      <trkpt lat="43.663310" lon="7.197390">
       <ele>12.41</ele>
       <time>2014-11-03T22:52:08Z</time>
      </trkpt>
      <trkpt lat="43.664750" lon="7.201200">
       <ele>11.01</ele>
       <time>2014-11-03T22:53:13Z</time>
      </trkpt>
      <trkpt lat="43.665110" lon="7.202220">
       <ele>11.67</ele>
       <time>2014-11-03T22:53:30Z</time>
      </trkpt>
      <trkpt lat="43.665350" lon="7.203130">
       <ele>11.3</ele>
       <time>2014-11-03T22:53:44Z</time>
      </trkpt>
      <trkpt lat="43.665560" lon="7.204280">
       <ele>10.95</ele>
       <time>2014-11-03T22:54:02Z</time>
      </trkpt>
      <trkpt lat="43.666960" lon="7.216200">
       <ele>7.63</ele>
       <time>2014-11-03T22:57:03Z</time>
      </trkpt>
      <trkpt lat="43.667040" lon="7.216720">
       <ele>6.74</ele>
       <time>2014-11-03T22:57:11Z</time>
      </trkpt>
      <trkpt lat="43.667230" lon="7.217570">
       <ele>4.94</ele>
       <time>2014-11-03T22:57:25Z</time>
      </trkpt>
      <trkpt lat="43.667520" lon="7.218480">
       <ele>4.86</ele>
       <time>2014-11-03T22:57:39Z</time>
      </trkpt>
      <trkpt lat="43.667670" lon="7.218880">
       <ele>5.09</ele>
       <time>2014-11-03T22:57:46Z</time>
      </trkpt>
      <trkpt lat="43.668040" lon="7.219670">
       <ele>6.07</ele>
       <time>2014-11-03T22:58:00Z</time>
      </trkpt>
      <trkpt lat="43.668260" lon="7.220060">
       <ele>5.82</ele>
       <time>2014-11-03T22:58:08Z</time>
      </trkpt>
      <trkpt lat="43.668520" lon="7.220470">
       <ele>6.03</ele>
       <time>2014-11-03T22:58:16Z</time>
      </trkpt>
      <trkpt lat="43.670720" lon="7.223520">
       <ele>9.52</ele>
       <time>2014-11-03T22:59:21Z</time>
      </trkpt>
      <trkpt lat="43.671590" lon="7.224700">
       <ele>7.45</ele>
       <time>2014-11-03T22:59:46Z</time>
      </trkpt>
      <trkpt lat="43.672160" lon="7.225390">
       <ele>6.9</ele>
       <time>2014-11-03T23:00:02Z</time>
      </trkpt>
      <trkpt lat="43.672690" lon="7.225930">
       <ele>7.91</ele>
       <time>2014-11-03T23:00:15Z</time>
      </trkpt>
      <trkpt lat="43.673050" lon="7.226230">
       <ele>8.13</ele>
       <time>2014-11-03T23:00:24Z</time>
      </trkpt>
      <trkpt lat="43.673360" lon="7.226460">
       <ele>8.5</ele>
       <time>2014-11-03T23:00:31Z</time>
      </trkpt>
      <trkpt lat="43.673880" lon="7.226800">
       <ele>8.02</ele>
       <time>2014-11-03T23:00:43Z</time>
      </trkpt>
      <trkpt lat="43.674090" lon="7.226900">
       <ele>7.53</ele>
       <time>2014-11-03T23:00:48Z</time>
      </trkpt>
      <trkpt lat="43.674940" lon="7.227370">
       <ele>7.09</ele>
       <time>2014-11-03T23:01:07Z</time>
      </trkpt>
      <trkpt lat="43.676150" lon="7.228080">
       <ele>6.86</ele>
       <time>2014-11-03T23:01:34Z</time>
      </trkpt>
      <trkpt lat="43.677030" lon="7.228560">
       <ele>7.6</ele>
       <time>2014-11-03T23:01:54Z</time>
      </trkpt>
      <trkpt lat="43.677680" lon="7.228960">
       <ele>9.12</ele>
       <time>2014-11-03T23:02:08Z</time>
      </trkpt>
      <trkpt lat="43.677890" lon="7.229120">
       <ele>9.93</ele>
       <time>2014-11-03T23:02:13Z</time>
      </trkpt>
      <trkpt lat="43.678280" lon="7.229370">
       <ele>10.8</ele>
       <time>2014-11-03T23:02:22Z</time>
      </trkpt>
      <trkpt lat="43.679410" lon="7.230200">
       <ele>10.87</ele>
       <time>2014-11-03T23:02:49Z</time>
      </trkpt>
      <trkpt lat="43.680420" lon="7.230980">
       <ele>10.88</ele>
       <time>2014-11-03T23:03:13Z</time>
      </trkpt>
      <trkpt lat="43.680830" lon="7.231330">
       <ele>10.21</ele>
       <time>2014-11-03T23:03:23Z</time>
      </trkpt>
      <trkpt lat="43.681290" lon="7.231760">
       <ele>7.87</ele>
       <time>2014-11-03T23:03:34Z</time>
      </trkpt>
      <trkpt lat="43.682960" lon="7.233630">
       <ele>8.98</ele>
       <time>2014-11-03T23:04:19Z</time>
      </trkpt>
      <trkpt lat="43.682770" lon="7.233680">
       <ele>8.29</ele>
       <time>2014-11-03T23:04:23Z</time>
      </trkpt>
      <trkpt lat="43.682270" lon="7.233160">
       <ele>9.1</ele>
       <time>2014-11-03T23:04:36Z</time>
      </trkpt>
      <trkpt lat="43.681230" lon="7.232030">
       <ele>7.08</ele>
       <time>2014-11-03T23:05:03Z</time>
      </trkpt>
      <trkpt lat="43.680820" lon="7.231620">
       <ele>7.4</ele>
       <time>2014-11-03T23:05:14Z</time>
      </trkpt>
      <trkpt lat="43.680320" lon="7.231170">
       <ele>8.82</ele>
       <time>2014-11-03T23:05:26Z</time>
      </trkpt>
      <trkpt lat="43.679570" lon="7.230580">
       <ele>8.41</ele>
       <time>2014-11-03T23:05:44Z</time>
      </trkpt>
      <trkpt lat="43.677890" lon="7.229370">
       <ele>9.16</ele>
       <time>2014-11-03T23:06:23Z</time>
      </trkpt>
      <trkpt lat="43.677890" lon="7.229120">
       <ele>9.93</ele>
       <time>2014-11-03T23:06:27Z</time>
      </trkpt>
      <trkpt lat="43.678280" lon="7.229370">
       <ele>10.8</ele>
       <time>2014-11-03T23:06:36Z</time>
      </trkpt>
      <trkpt lat="43.678940" lon="7.229850">
       <ele>11.5</ele>
       <time>2014-11-03T23:06:51Z</time>
      </trkpt>
      <trkpt lat="43.680420" lon="7.230980">
       <ele>10.88</ele>
       <time>2014-11-03T23:07:26Z</time>
      </trkpt>
      <trkpt lat="43.680830" lon="7.231330">
       <ele>10.21</ele>
       <time>2014-11-03T23:07:36Z</time>
      </trkpt>
      <trkpt lat="43.681290" lon="7.231760">
       <ele>7.87</ele>
       <time>2014-11-03T23:07:48Z</time>
      </trkpt>
      <trkpt lat="43.682750" lon="7.233400">
       <ele>10.23</ele>
       <time>2014-11-03T23:08:27Z</time>
      </trkpt>
      <trkpt lat="43.685070" lon="7.235910">
       <ele>7.07</ele>
       <time>2014-11-03T23:09:28Z</time>
      </trkpt>
      <trkpt lat="43.685620" lon="7.236540">
       <ele>7.53</ele>
       <time>2014-11-03T23:09:43Z</time>
      </trkpt>
      <trkpt lat="43.686250" lon="7.237280">
       <ele>9.99</ele>
       <time>2014-11-03T23:10:00Z</time>
      </trkpt>
      <trkpt lat="43.687070" lon="7.238390">
       <ele>14.55</ele>
       <time>2014-11-03T23:10:24Z</time>
      </trkpt>
      <trkpt lat="43.687600" lon="7.239230">
       <ele>12.62</ele>
       <time>2014-11-03T23:10:40Z</time>
      </trkpt>
      <trkpt lat="43.688320" lon="7.240480">
       <ele>13.55</ele>
       <time>2014-11-03T23:11:04Z</time>
      </trkpt>
      <trkpt lat="43.689540" lon="7.242720">
       <ele>10.58</ele>
       <time>2014-11-03T23:11:46Z</time>
      </trkpt>
      <trkpt lat="43.689910" lon="7.243460">
       <ele>13.05</ele>
       <time>2014-11-03T23:12:00Z</time>
      </trkpt>
      <trkpt lat="43.690100" lon="7.243910">
       <ele>12.18</ele>
       <time>2014-11-03T23:12:08Z</time>
      </trkpt>
      <trkpt lat="43.690670" lon="7.245450">
       <ele>10.98</ele>
       <time>2014-11-03T23:12:34Z</time>
      </trkpt>
      <trkpt lat="43.691450" lon="7.247670">
       <ele>11.46</ele>
       <time>2014-11-03T23:13:11Z</time>
      </trkpt>
      <trkpt lat="43.692880" lon="7.251860">
       <ele>9.93</ele>
       <time>2014-11-03T23:14:20Z</time>
      </trkpt>
      <trkpt lat="43.694370" lon="7.258540">
       <ele>9.65</ele>
       <time>2014-11-03T23:16:05Z</time>
      </trkpt>
      <trkpt lat="43.694750" lon="7.261130">
       <ele>9.67</ele>
       <time>2014-11-03T23:16:45Z</time>
      </trkpt>
      <trkpt lat="43.694920" lon="7.263560">
       <ele>11.51</ele>
       <time>2014-11-03T23:17:21Z</time>
      </trkpt>
      <trkpt lat="43.695010" lon="7.266170">
       <ele>11.02</ele>
       <time>2014-11-03T23:18:00Z</time>
      </trkpt>
      <trkpt lat="43.695130" lon="7.268370">
       <ele>5.03</ele>
       <time>2014-11-03T23:18:33Z</time>
      </trkpt>
      <trkpt lat="43.695130" lon="7.269090">
       <ele>6.89</ele>
       <time>2014-11-03T23:18:44Z</time>
      </trkpt>
      <trkpt lat="43.695110" lon="7.269700">
       <ele>9.32</ele>
       <time>2014-11-03T23:18:53Z</time>
      </trkpt>
      <trkpt lat="43.695170" lon="7.274010">
       <ele>7.61</ele>
       <time>2014-11-03T23:19:58Z</time>
      </trkpt>
      <trkpt lat="43.695040" lon="7.275890">
       <ele>5.7</ele>
       <time>2014-11-03T23:20:26Z</time>
      </trkpt>
      <trkpt lat="43.694800" lon="7.277890">
       <ele>12.75</ele>
       <time>2014-11-03T23:20:57Z</time>
      </trkpt>
      <trkpt lat="43.694760" lon="7.278090">
       <ele>13.12</ele>
       <time>2014-11-03T23:21:00Z</time>
      </trkpt>
      <trkpt lat="43.694640" lon="7.278420">
       <ele>14.23</ele>
       <time>2014-11-03T23:21:05Z</time>
      </trkpt>
      <trkpt lat="43.694520" lon="7.278630">
       <ele>16.7</ele>
       <time>2014-11-03T23:21:09Z</time>
      </trkpt>
      <trkpt lat="43.694270" lon="7.278980">
       <ele>19.91</ele>
       <time>2014-11-03T23:21:17Z</time>
      </trkpt>
      <trkpt lat="43.694220" lon="7.279030">
       <ele>20.12</ele>
       <time>2014-11-03T23:21:18Z</time>
      </trkpt>
      <trkpt lat="43.694060" lon="7.279100">
       <ele>18.84</ele>
       <time>2014-11-03T23:21:21Z</time>
      </trkpt>
      <trkpt lat="43.693820" lon="7.279120">
       <ele>15.06</ele>
       <time>2014-11-03T23:21:26Z</time>
      </trkpt>
      <trkpt lat="43.693720" lon="7.279150">
       <ele>13.76</ele>
       <time>2014-11-03T23:21:29Z</time>
      </trkpt>
      <trkpt lat="43.693660" lon="7.279200">
       <ele>13.42</ele>
       <time>2014-11-03T23:21:30Z</time>
      </trkpt>
      <trkpt lat="43.693630" lon="7.279250">
       <ele>13.59</ele>
       <time>2014-11-03T23:21:31Z</time>
      </trkpt>
      <trkpt lat="43.693540" lon="7.279630">
       <ele>16.5</ele>
       <time>2014-11-03T23:21:37Z</time>
      </trkpt>
      <trkpt lat="43.693160" lon="7.280710">
       <ele>13.4</ele>
       <time>2014-11-03T23:21:55Z</time>
      </trkpt>
      <trkpt lat="43.693120" lon="7.280970">
       <ele>12.61</ele>
       <time>2014-11-03T23:21:59Z</time>
      </trkpt>
      <trkpt lat="43.693120" lon="7.281060">
       <ele>12.26</ele>
       <time>2014-11-03T23:22:00Z</time>
      </trkpt>
      <trkpt lat="43.693150" lon="7.281260">
       <ele>11.98</ele>
       <time>2014-11-03T23:22:03Z</time>
      </trkpt>
      <trkpt lat="43.693240" lon="7.281520">
       <ele>12.32</ele>
       <time>2014-11-03T23:22:08Z</time>
      </trkpt>
      <trkpt lat="43.693330" lon="7.281690">
       <ele>12.8</ele>
       <time>2014-11-03T23:22:11Z</time>
      </trkpt>
      <trkpt lat="43.693990" lon="7.282660">
       <ele>16.4</ele>
       <time>2014-11-03T23:22:31Z</time>
      </trkpt>
      <trkpt lat="43.694120" lon="7.282800">
       <ele>15.4</ele>
       <time>2014-11-03T23:22:34Z</time>
      </trkpt>
      <trkpt lat="43.694200" lon="7.282860">
       <ele>14.94</ele>
       <time>2014-11-03T23:22:36Z</time>
      </trkpt>
      <trkpt lat="43.695180" lon="7.283230">
       <ele>13.14</ele>
       <time>2014-11-03T23:22:57Z</time>
      </trkpt>
      <trkpt lat="43.695560" lon="7.283340">
       <ele>11.27</ele>
       <time>2014-11-03T23:23:05Z</time>
      </trkpt>
      <trkpt lat="43.696220" lon="7.283460">
       <ele>10.4</ele>
       <time>2014-11-03T23:23:19Z</time>
      </trkpt>
      <trkpt lat="43.696720" lon="7.283510">
       <ele>9.99</ele>
       <time>2014-11-03T23:23:29Z</time>
      </trkpt>
      <trkpt lat="43.698260" lon="7.283750">
       <ele>10.33</ele>
       <time>2014-11-03T23:24:02Z</time>
      </trkpt>
      <trkpt lat="43.698340" lon="7.283750">
       <ele>10.56</ele>
       <time>2014-11-03T23:24:03Z</time>
      </trkpt>
      <trkpt lat="43.698430" lon="7.283780">
       <ele>11.01</ele>
       <time>2014-11-03T23:24:05Z</time>
      </trkpt>
      <trkpt lat="43.698470" lon="7.283810">
       <ele>11.13</ele>
       <time>2014-11-03T23:24:06Z</time>
      </trkpt>
      <trkpt lat="43.698560" lon="7.283910">
       <ele>11.18</ele>
       <time>2014-11-03T23:24:09Z</time>
      </trkpt>
      <trkpt lat="43.698660" lon="7.284060">
       <ele>11.19</ele>
       <time>2014-11-03T23:24:12Z</time>
      </trkpt>
      <trkpt lat="43.698720" lon="7.284320">
       <ele>11.05</ele>
       <time>2014-11-03T23:24:16Z</time>
      </trkpt>
      <trkpt lat="43.698620" lon="7.284910">
       <ele>9.23</ele>
       <time>2014-11-03T23:24:25Z</time>
      </trkpt>
      <trkpt lat="43.698570" lon="7.285890">
       <ele>9.56</ele>
       <time>2014-11-03T23:24:39Z</time>
      </trkpt>
      <trkpt lat="43.698520" lon="7.286100">
       <ele>10.18</ele>
       <time>2014-11-03T23:24:43Z</time>
      </trkpt>
      <trkpt lat="43.698390" lon="7.286370">
       <ele>10.64</ele>
       <time>2014-11-03T23:24:48Z</time>
      </trkpt>
      <trkpt lat="43.698330" lon="7.286390">
       <ele>10.33</ele>
       <time>2014-11-03T23:24:49Z</time>
      </trkpt>
      <trkpt lat="43.698190" lon="7.287830">
       <ele>15.88</ele>
       <time>2014-11-03T23:25:11Z</time>
      </trkpt>
      <trkpt lat="43.698130" lon="7.288300">
       <ele>17.17</ele>
       <time>2014-11-03T23:25:18Z</time>
      </trkpt>
      <trkpt lat="43.698070" lon="7.288580">
       <ele>18.8</ele>
       <time>2014-11-03T23:25:22Z</time>
      </trkpt>
      <trkpt lat="43.697960" lon="7.288760">
       <ele>20.08</ele>
       <time>2014-11-03T23:25:26Z</time>
      </trkpt>
      <trkpt lat="43.697920" lon="7.288800">
       <ele>20.42</ele>
       <time>2014-11-03T23:25:27Z</time>
      </trkpt>
      <trkpt lat="43.697830" lon="7.288850">
       <ele>20.91</ele>
       <time>2014-11-03T23:25:29Z</time>
      </trkpt>
      <trkpt lat="43.697690" lon="7.288900">
       <ele>21.55</ele>
       <time>2014-11-03T23:25:32Z</time>
      </trkpt>
      <trkpt lat="43.697380" lon="7.288900">
       <ele>22.43</ele>
       <time>2014-11-03T23:25:38Z</time>
      </trkpt>
      <trkpt lat="43.697290" lon="7.288880">
       <ele>22.65</ele>
       <time>2014-11-03T23:25:40Z</time>
      </trkpt>
      <trkpt lat="43.697110" lon="7.288920">
       <ele>24.11</ele>
       <time>2014-11-03T23:25:44Z</time>
      </trkpt>
      <trkpt lat="43.696950" lon="7.289010">
       <ele>26.18</ele>
       <time>2014-11-03T23:25:47Z</time>
      </trkpt>
      <trkpt lat="43.696880" lon="7.289080">
       <ele>27.53</ele>
       <time>2014-11-03T23:25:49Z</time>
      </trkpt>
      <trkpt lat="43.696800" lon="7.289200">
       <ele>29.38</ele>
       <time>2014-11-03T23:25:52Z</time>
      </trkpt>
      <trkpt lat="43.696750" lon="7.289330">
       <ele>30.28</ele>
       <time>2014-11-03T23:25:54Z</time>
      </trkpt>
      <trkpt lat="43.696710" lon="7.289490">
       <ele>31.11</ele>
       <time>2014-11-03T23:25:56Z</time>
      </trkpt>
      <trkpt lat="43.696690" lon="7.289690">
       <ele>31.92</ele>
       <time>2014-11-03T23:26:00Z</time>
      </trkpt>
      <trkpt lat="43.696680" lon="7.290690">
       <ele>36.45</ele>
       <time>2014-11-03T23:26:14Z</time>
      </trkpt>
      <trkpt lat="43.696630" lon="7.291450">
       <ele>40.35</ele>
       <time>2014-11-03T23:26:26Z</time>
      </trkpt>
      <trkpt lat="43.696550" lon="7.291800">
       <ele>42.4</ele>
       <time>2014-11-03T23:26:31Z</time>
      </trkpt>
      <trkpt lat="43.696370" lon="7.292150">
       <ele>44.32</ele>
       <time>2014-11-03T23:26:38Z</time>
      </trkpt>
      <trkpt lat="43.695990" lon="7.292590">
       <ele>44.69</ele>
       <time>2014-11-03T23:26:48Z</time>
      </trkpt>
      <trkpt lat="43.695640" lon="7.292960">
       <ele>47.2</ele>
       <time>2014-11-03T23:26:57Z</time>
      </trkpt>
      <trkpt lat="43.695480" lon="7.293090">
       <ele>47.81</ele>
       <time>2014-11-03T23:27:01Z</time>
      </trkpt>
      <trkpt lat="43.695060" lon="7.293340">
       <ele>47.83</ele>
       <time>2014-11-03T23:27:11Z</time>
      </trkpt>
      <trkpt lat="43.694750" lon="7.293470">
       <ele>49.54</ele>
       <time>2014-11-03T23:27:17Z</time>
      </trkpt>
      <trkpt lat="43.694380" lon="7.293580">
       <ele>51.57</ele>
       <time>2014-11-03T23:27:25Z</time>
      </trkpt>
      <trkpt lat="43.694260" lon="7.293580">
       <ele>51.24</ele>
       <time>2014-11-03T23:27:28Z</time>
      </trkpt>
      <trkpt lat="43.694140" lon="7.293550">
       <ele>50.22</ele>
       <time>2014-11-03T23:27:30Z</time>
      </trkpt>
      <trkpt lat="43.693490" lon="7.293190">
       <ele>46.26</ele>
       <time>2014-11-03T23:27:45Z</time>
      </trkpt>
      <trkpt lat="43.693320" lon="7.293110">
       <ele>45.6</ele>
       <time>2014-11-03T23:27:48Z</time>
      </trkpt>
      <trkpt lat="43.693260" lon="7.293100">
       <ele>45.16</ele>
       <time>2014-11-03T23:27:50Z</time>
      </trkpt>
      <trkpt lat="43.693120" lon="7.293090">
       <ele>44.46</ele>
       <time>2014-11-03T23:27:53Z</time>
      </trkpt>
      <trkpt lat="43.692430" lon="7.293280">
       <ele>45.2</ele>
       <time>2014-11-03T23:28:07Z</time>
      </trkpt>
      <trkpt lat="43.692340" lon="7.293330">
       <ele>44.31</ele>
       <time>2014-11-03T23:28:09Z</time>
      </trkpt>
      <trkpt lat="43.692220" lon="7.293440">
       <ele>43.59</ele>
       <time>2014-11-03T23:28:12Z</time>
      </trkpt>
      <trkpt lat="43.692130" lon="7.293590">
       <ele>44.38</ele>
       <time>2014-11-03T23:28:15Z</time>
      </trkpt>
      <trkpt lat="43.691890" lon="7.294370">
       <ele>53.8</ele>
       <time>2014-11-03T23:28:28Z</time>
      </trkpt>
      <trkpt lat="43.691800" lon="7.294560">
       <ele>56.09</ele>
       <time>2014-11-03T23:28:31Z</time>
      </trkpt>
      <trkpt lat="43.691700" lon="7.294740">
       <ele>58.37</ele>
       <time>2014-11-03T23:28:35Z</time>
      </trkpt>
      <trkpt lat="43.691580" lon="7.294890">
       <ele>59.93</ele>
       <time>2014-11-03T23:28:38Z</time>
      </trkpt>
      <trkpt lat="43.691430" lon="7.295020">
       <ele>60.81</ele>
       <time>2014-11-03T23:28:42Z</time>
      </trkpt>
      <trkpt lat="43.691250" lon="7.295130">
       <ele>61.16</ele>
       <time>2014-11-03T23:28:46Z</time>
      </trkpt>
      <trkpt lat="43.691070" lon="7.295200">
       <ele>60.8</ele>
       <time>2014-11-03T23:28:50Z</time>
      </trkpt>
      <trkpt lat="43.690110" lon="7.295490">
       <ele>61.47</ele>
       <time>2014-11-03T23:29:10Z</time>
      </trkpt>
      <trkpt lat="43.689200" lon="7.295610">
       <ele>64.85</ele>
       <time>2014-11-03T23:29:29Z</time>
      </trkpt>
      <trkpt lat="43.688490" lon="7.295660">
       <ele>67.36</ele>
       <time>2014-11-03T23:29:44Z</time>
      </trkpt>
      <trkpt lat="43.688390" lon="7.295680">
       <ele>67.96</ele>
       <time>2014-11-03T23:29:46Z</time>
      </trkpt>
      <trkpt lat="43.688260" lon="7.295760">
       <ele>69.21</ele>
       <time>2014-11-03T23:29:49Z</time>
      </trkpt>
      <trkpt lat="43.688070" lon="7.296030">
       <ele>68.91</ele>
       <time>2014-11-03T23:29:54Z</time>
      </trkpt>
      <trkpt lat="43.687970" lon="7.296330">
       <ele>67.94</ele>
       <time>2014-11-03T23:29:59Z</time>
      </trkpt>
      <trkpt lat="43.687880" lon="7.296770">
       <ele>67.22</ele>
       <time>2014-11-03T23:30:06Z</time>
      </trkpt>
      <trkpt lat="43.687970" lon="7.296690">
       <ele>68.54</ele>
       <time>2014-11-03T23:30:08Z</time>
      </trkpt>
      <trkpt lat="43.688230" lon="7.296540">
       <ele>72.73</ele>
       <time>2014-11-03T23:30:14Z</time>
      </trkpt>
      <trkpt lat="43.688480" lon="7.296370">
       <ele>75.26</ele>
       <time>2014-11-03T23:30:20Z</time>
      </trkpt>
      <trkpt lat="43.688230" lon="7.296540">
       <ele>72.73</ele>
       <time>2014-11-03T23:30:26Z</time>
      </trkpt>
      <trkpt lat="43.687970" lon="7.296690">
       <ele>68.54</ele>
       <time>2014-11-03T23:30:32Z</time>
      </trkpt>
      <trkpt lat="43.687880" lon="7.296770">
       <ele>67.22</ele>
       <time>2014-11-03T23:30:34Z</time>
      </trkpt>
      <trkpt lat="43.687420" lon="7.298850">
       <ele>66.76</ele>
       <time>2014-11-03T23:31:06Z</time>
      </trkpt>
      <trkpt lat="43.686990" lon="7.300880">
       <ele>56.03</ele>
       <time>2014-11-03T23:31:38Z</time>
      </trkpt>
      <trkpt lat="43.686910" lon="7.301340">
       <ele>57.62</ele>
       <time>2014-11-03T23:31:45Z</time>
      </trkpt>
      <trkpt lat="43.686750" lon="7.302100">
       <ele>58.22</ele>
       <time>2014-11-03T23:31:57Z</time>
      </trkpt>
      <trkpt lat="43.686610" lon="7.302570">
       <ele>56.98</ele>
       <time>2014-11-03T23:32:05Z</time>
      </trkpt>
      <trkpt lat="43.686330" lon="7.303160">
       <ele>49.23</ele>
       <time>2014-11-03T23:32:15Z</time>
      </trkpt>
      <trkpt lat="43.686260" lon="7.303450">
       <ele>48.74</ele>
       <time>2014-11-03T23:32:20Z</time>
      </trkpt>
      <trkpt lat="43.686220" lon="7.303710">
       <ele>49.47</ele>
       <time>2014-11-03T23:32:24Z</time>
      </trkpt>
      <trkpt lat="43.686220" lon="7.304020">
       <ele>53.76</ele>
       <time>2014-11-03T23:32:29Z</time>
      </trkpt>
      <trkpt lat="43.686250" lon="7.304410">
       <ele>54.08</ele>
       <time>2014-11-03T23:32:34Z</time>
      </trkpt>
      <trkpt lat="43.686280" lon="7.304640">
       <ele>52.41</ele>
       <time>2014-11-03T23:32:38Z</time>
      </trkpt>
      <trkpt lat="43.686320" lon="7.304790">
       <ele>52.3</ele>
       <time>2014-11-03T23:32:40Z</time>
      </trkpt>
      <trkpt lat="43.686370" lon="7.304900">
       <ele>53.01</ele>
       <time>2014-11-03T23:32:42Z</time>
      </trkpt>
      <trkpt lat="43.686500" lon="7.305110">
       <ele>54.92</ele>
       <time>2014-11-03T23:32:46Z</time>
      </trkpt>
      <trkpt lat="43.686560" lon="7.305180">
       <ele>56.02</ele>
       <time>2014-11-03T23:32:48Z</time>
      </trkpt>
      <trkpt lat="43.687150" lon="7.305750">
       <ele>62.4</ele>
       <time>2014-11-03T23:33:03Z</time>
      </trkpt>
      <trkpt lat="43.688080" lon="7.306610">
       <ele>61.67</ele>
       <time>2014-11-03T23:33:26Z</time>
      </trkpt>
      <trkpt lat="43.688240" lon="7.306700">
       <ele>63.4</ele>
       <time>2014-11-03T23:33:30Z</time>
      </trkpt>
      <trkpt lat="43.688740" lon="7.306930">
       <ele>61.74</ele>
       <time>2014-11-03T23:33:41Z</time>
      </trkpt>
      <trkpt lat="43.689080" lon="7.307050">
       <ele>60.45</ele>
       <time>2014-11-03T23:33:48Z</time>
      </trkpt>
      <trkpt lat="43.689250" lon="7.307060">
       <ele>61.1</ele>
       <time>2014-11-03T23:33:51Z</time>
      </trkpt>
      <trkpt lat="43.689920" lon="7.306990">
       <ele>65.51</ele>
       <time>2014-11-03T23:34:05Z</time>
      </trkpt>
      <trkpt lat="43.690110" lon="7.306990">
       <ele>65.08</ele>
       <time>2014-11-03T23:34:09Z</time>
      </trkpt>
      <trkpt lat="43.691180" lon="7.307040">
       <ele>59.47</ele>
       <time>2014-11-03T23:34:32Z</time>
      </trkpt>
      <trkpt lat="43.691280" lon="7.307060">
       <ele>58.96</ele>
       <time>2014-11-03T23:34:34Z</time>
      </trkpt>
      <trkpt lat="43.691500" lon="7.307070">
       <ele>58.8</ele>
       <time>2014-11-03T23:34:38Z</time>
      </trkpt>
      <trkpt lat="43.692380" lon="7.307090">
       <ele>59.57</ele>
       <time>2014-11-03T23:34:56Z</time>
      </trkpt>
      <trkpt lat="43.693080" lon="7.307010">
       <ele>54.87</ele>
       <time>2014-11-03T23:35:11Z</time>
      </trkpt>
      <trkpt lat="43.693190" lon="7.306980">
       <ele>54.64</ele>
       <time>2014-11-03T23:35:13Z</time>
      </trkpt>
      <trkpt lat="43.693360" lon="7.306900">
       <ele>55.48</ele>
       <time>2014-11-03T23:35:17Z</time>
      </trkpt>
      <trkpt lat="43.693600" lon="7.306740">
       <ele>55.34</ele>
       <time>2014-11-03T23:35:23Z</time>
      </trkpt>
      <trkpt lat="43.693740" lon="7.306610">
       <ele>56.05</ele>
       <time>2014-11-03T23:35:26Z</time>
      </trkpt>
      <trkpt lat="43.693870" lon="7.306450">
       <ele>57.84</ele>
       <time>2014-11-03T23:35:30Z</time>
      </trkpt>
      <trkpt lat="43.694370" lon="7.305740">
       <ele>71.81</ele>
       <time>2014-11-03T23:35:45Z</time>
      </trkpt>
      <trkpt lat="43.694470" lon="7.305630">
       <ele>73.34</ele>
       <time>2014-11-03T23:35:47Z</time>
      </trkpt>
      <trkpt lat="43.694680" lon="7.305500">
       <ele>73.91</ele>
       <time>2014-11-03T23:35:52Z</time>
      </trkpt>
      <trkpt lat="43.695300" lon="7.305220">
       <ele>76</ele>
       <time>2014-11-03T23:36:06Z</time>
      </trkpt>
      <trkpt lat="43.695900" lon="7.304920">
       <ele>80.09</ele>
       <time>2014-11-03T23:36:19Z</time>
      </trkpt>
      <trkpt lat="43.696240" lon="7.304780">
       <ele>80.15</ele>
       <time>2014-11-03T23:36:26Z</time>
      </trkpt>
      <trkpt lat="43.696500" lon="7.304740">
       <ele>77.6</ele>
       <time>2014-11-03T23:36:32Z</time>
      </trkpt>
      <trkpt lat="43.696980" lon="7.304760">
       <ele>69.03</ele>
       <time>2014-11-03T23:36:41Z</time>
      </trkpt>
      <trkpt lat="43.697120" lon="7.304740">
       <ele>68.13</ele>
       <time>2014-11-03T23:36:44Z</time>
      </trkpt>
      <trkpt lat="43.697840" lon="7.304550">
       <ele>72.22</ele>
       <time>2014-11-03T23:37:00Z</time>
      </trkpt>
      <trkpt lat="43.698010" lon="7.304560">
       <ele>71.24</ele>
       <time>2014-11-03T23:37:03Z</time>
      </trkpt>
      <trkpt lat="43.698170" lon="7.304660">
       <ele>67.05</ele>
       <time>2014-11-03T23:37:07Z</time>
      </trkpt>
      <trkpt lat="43.698560" lon="7.305040">
       <ele>56.51</ele>
       <time>2014-11-03T23:37:17Z</time>
      </trkpt>
      <trkpt lat="43.698840" lon="7.305230">
       <ele>53.14</ele>
       <time>2014-11-03T23:37:23Z</time>
      </trkpt>
      <trkpt lat="43.698810" lon="7.305270">
       <ele>51.79</ele>
       <time>2014-11-03T23:37:24Z</time>
      </trkpt>
      <trkpt lat="43.698750" lon="7.305290">
       <ele>50.81</ele>
       <time>2014-11-03T23:37:25Z</time>
      </trkpt>
      <trkpt lat="43.698320" lon="7.305280">
       <ele>48.12</ele>
       <time>2014-11-03T23:37:34Z</time>
      </trkpt>
      <trkpt lat="43.698090" lon="7.305240">
       <ele>47.03</ele>
       <time>2014-11-03T23:37:39Z</time>
      </trkpt>
      <trkpt lat="43.697610" lon="7.305070">
       <ele>47.12</ele>
       <time>2014-11-03T23:37:49Z</time>
      </trkpt>
      <trkpt lat="43.698090" lon="7.305240">
       <ele>47.03</ele>
       <time>2014-11-03T23:38:00Z</time>
      </trkpt>
      <trkpt lat="43.698320" lon="7.305280">
       <ele>48.12</ele>
       <time>2014-11-03T23:38:04Z</time>
      </trkpt>
      <trkpt lat="43.698750" lon="7.305290">
       <ele>50.81</ele>
       <time>2014-11-03T23:38:13Z</time>
      </trkpt>
      <trkpt lat="43.698810" lon="7.305270">
       <ele>51.79</ele>
       <time>2014-11-03T23:38:15Z</time>
      </trkpt>
      <trkpt lat="43.698840" lon="7.305230">
       <ele>53.14</ele>
       <time>2014-11-03T23:38:15Z</time>
      </trkpt>
      <trkpt lat="43.699070" lon="7.305340">
       <ele>51.56</ele>
       <time>2014-11-03T23:38:20Z</time>
      </trkpt>
      <trkpt lat="43.699160" lon="7.305340">
       <ele>52.18</ele>
       <time>2014-11-03T23:38:22Z</time>
      </trkpt>
      <trkpt lat="43.700440" lon="7.305690">
       <ele>54.74</ele>
       <time>2014-11-03T23:38:49Z</time>
      </trkpt>
      <trkpt lat="43.700700" lon="7.305800">
       <ele>53.82</ele>
       <time>2014-11-03T23:38:55Z</time>
      </trkpt>
      <trkpt lat="43.700910" lon="7.305940">
       <ele>53.08</ele>
       <time>2014-11-03T23:39:00Z</time>
      </trkpt>
      <trkpt lat="43.701020" lon="7.306040">
       <ele>52.93</ele>
       <time>2014-11-03T23:39:03Z</time>
      </trkpt>
      <trkpt lat="43.701300" lon="7.306400">
       <ele>51.39</ele>
       <time>2014-11-03T23:39:10Z</time>
      </trkpt>
      <trkpt lat="43.701870" lon="7.307360">
       <ele>50</ele>
       <time>2014-11-03T23:39:29Z</time>
      </trkpt>
      <trkpt lat="43.701960" lon="7.307550">
       <ele>49.57</ele>
       <time>2014-11-03T23:39:33Z</time>
      </trkpt>
      <trkpt lat="43.702000" lon="7.307570">
       <ele>49.83</ele>
       <time>2014-11-03T23:39:33Z</time>
      </trkpt>
      <trkpt lat="43.702340" lon="7.308110">
       <ele>49.94</ele>
       <time>2014-11-03T23:39:44Z</time>
      </trkpt>
      <trkpt lat="43.702340" lon="7.308170">
       <ele>49.59</ele>
       <time>2014-11-03T23:39:45Z</time>
      </trkpt>
      <trkpt lat="43.702600" lon="7.308560">
       <ele>50.21</ele>
       <time>2014-11-03T23:39:53Z</time>
      </trkpt>
      <trkpt lat="43.702850" lon="7.308830">
       <ele>51.16</ele>
       <time>2014-11-03T23:40:00Z</time>
      </trkpt>
      <trkpt lat="43.702890" lon="7.308840">
       <ele>51.42</ele>
       <time>2014-11-03T23:40:00Z</time>
      </trkpt>
      <trkpt lat="43.702960" lon="7.308910">
       <ele>51.54</ele>
       <time>2014-11-03T23:40:02Z</time>
      </trkpt>
      <trkpt lat="43.703050" lon="7.308970">
       <ele>51.78</ele>
       <time>2014-11-03T23:40:04Z</time>
      </trkpt>
      <trkpt lat="43.703290" lon="7.309080">
       <ele>52.54</ele>
       <time>2014-11-03T23:40:10Z</time>
      </trkpt>
      <trkpt lat="43.703520" lon="7.309150">
       <ele>53.32</ele>
       <time>2014-11-03T23:40:14Z</time>
      </trkpt>
      <trkpt lat="43.703600" lon="7.309160">
       <ele>53.69</ele>
       <time>2014-11-03T23:40:16Z</time>
      </trkpt>
      <trkpt lat="43.704050" lon="7.309330">
       <ele>53.26</ele>
       <time>2014-11-03T23:40:26Z</time>
      </trkpt>
      <trkpt lat="43.704590" lon="7.309480">
       <ele>56.06</ele>
       <time>2014-11-03T23:40:37Z</time>
      </trkpt>
      <trkpt lat="43.705110" lon="7.309480">
       <ele>62.37</ele>
       <time>2014-11-03T23:40:48Z</time>
      </trkpt>
      <trkpt lat="43.705260" lon="7.309530">
       <ele>63.34</ele>
       <time>2014-11-03T23:40:51Z</time>
      </trkpt>
      <trkpt lat="43.705320" lon="7.309570">
       <ele>63.28</ele>
       <time>2014-11-03T23:40:53Z</time>
      </trkpt>
      <trkpt lat="43.705770" lon="7.309680">
       <ele>66.72</ele>
       <time>2014-11-03T23:41:02Z</time>
      </trkpt>
      <trkpt lat="43.705810" lon="7.309710">
       <ele>66.63</ele>
       <time>2014-11-03T23:41:03Z</time>
      </trkpt>
      <trkpt lat="43.705880" lon="7.309820">
       <ele>65.19</ele>
       <time>2014-11-03T23:41:05Z</time>
      </trkpt>
      <trkpt lat="43.705900" lon="7.309900">
       <ele>63.84</ele>
       <time>2014-11-03T23:41:06Z</time>
      </trkpt>
      <trkpt lat="43.705860" lon="7.310740">
       <ele>64.25</ele>
       <time>2014-11-03T23:41:19Z</time>
      </trkpt>
      <trkpt lat="43.705900" lon="7.310940">
       <ele>64.98</ele>
       <time>2014-11-03T23:41:22Z</time>
      </trkpt>
      <trkpt lat="43.705990" lon="7.311110">
       <ele>66.3</ele>
       <time>2014-11-03T23:41:25Z</time>
      </trkpt>
      <trkpt lat="43.706450" lon="7.311720">
       <ele>73.54</ele>
       <time>2014-11-03T23:41:38Z</time>
      </trkpt>
      <trkpt lat="43.706590" lon="7.311860">
       <ele>73.32</ele>
       <time>2014-11-03T23:41:42Z</time>
      </trkpt>
      <trkpt lat="43.706890" lon="7.312110">
       <ele>74.41</ele>
       <time>2014-11-03T23:41:49Z</time>
      </trkpt>
      <trkpt lat="43.707040" lon="7.312210">
       <ele>75.28</ele>
       <time>2014-11-03T23:41:53Z</time>
      </trkpt>
      <trkpt lat="43.707430" lon="7.312380">
       <ele>79.35</ele>
       <time>2014-11-03T23:42:01Z</time>
      </trkpt>
      <trkpt lat="43.707640" lon="7.312520">
       <ele>79.83</ele>
       <time>2014-11-03T23:42:06Z</time>
      </trkpt>
      <trkpt lat="43.707950" lon="7.312790">
       <ele>80.81</ele>
       <time>2014-11-03T23:42:14Z</time>
      </trkpt>
      <trkpt lat="43.708040" lon="7.312960">
       <ele>79.33</ele>
       <time>2014-11-03T23:42:17Z</time>
      </trkpt>
      <trkpt lat="43.708080" lon="7.313080">
       <ele>77.89</ele>
       <time>2014-11-03T23:42:19Z</time>
      </trkpt>
      <trkpt lat="43.708280" lon="7.313750">
       <ele>76.8</ele>
       <time>2014-11-03T23:42:30Z</time>
      </trkpt>
      <trkpt lat="43.708300" lon="7.313970">
       <ele>76.58</ele>
       <time>2014-11-03T23:42:33Z</time>
      </trkpt>
      <trkpt lat="43.708140" lon="7.314790">
       <ele>69.51</ele>
       <time>2014-11-03T23:42:46Z</time>
      </trkpt>
      <trkpt lat="43.708080" lon="7.315300">
       <ele>71.78</ele>
       <time>2014-11-03T23:42:53Z</time>
      </trkpt>
      <trkpt lat="43.708040" lon="7.315410">
       <ele>71.15</ele>
       <time>2014-11-03T23:42:55Z</time>
      </trkpt>
      <trkpt lat="43.707980" lon="7.315510">
       <ele>69.3</ele>
       <time>2014-11-03T23:42:57Z</time>
      </trkpt>
      <trkpt lat="43.707630" lon="7.315940">
       <ele>54.82</ele>
       <time>2014-11-03T23:43:07Z</time>
      </trkpt>
      <trkpt lat="43.707210" lon="7.316750">
       <ele>52.26</ele>
       <time>2014-11-03T23:43:22Z</time>
      </trkpt>
      <trkpt lat="43.707170" lon="7.316910">
       <ele>50.87</ele>
       <time>2014-11-03T23:43:24Z</time>
      </trkpt>
      <trkpt lat="43.707160" lon="7.317080">
       <ele>51.62</ele>
       <time>2014-11-03T23:43:27Z</time>
      </trkpt>
      <trkpt lat="43.707240" lon="7.317640">
       <ele>62.23</ele>
       <time>2014-11-03T23:43:36Z</time>
      </trkpt>
      <trkpt lat="43.707240" lon="7.317770">
       <ele>64.39</ele>
       <time>2014-11-03T23:43:38Z</time>
      </trkpt>
      <trkpt lat="43.707210" lon="7.317930">
       <ele>64.9</ele>
       <time>2014-11-03T23:43:40Z</time>
      </trkpt>
      <trkpt lat="43.707180" lon="7.318000">
       <ele>63.87</ele>
       <time>2014-11-03T23:43:41Z</time>
      </trkpt>
      <trkpt lat="43.706750" lon="7.318890">
       <ele>56.77</ele>
       <time>2014-11-03T23:43:57Z</time>
      </trkpt>
      <trkpt lat="43.706650" lon="7.319040">
       <ele>55.55</ele>
       <time>2014-11-03T23:44:00Z</time>
      </trkpt>
      <trkpt lat="43.706480" lon="7.319280">
       <ele>54.09</ele>
       <time>2014-11-03T23:44:05Z</time>
      </trkpt>
      <trkpt lat="43.706230" lon="7.319590">
       <ele>50.41</ele>
       <time>2014-11-03T23:44:12Z</time>
      </trkpt>
      <trkpt lat="43.705680" lon="7.320150">
       <ele>41.62</ele>
       <time>2014-11-03T23:44:26Z</time>
      </trkpt>
      <trkpt lat="43.705260" lon="7.320870">
       <ele>44.72</ele>
       <time>2014-11-03T23:44:40Z</time>
      </trkpt>
      <trkpt lat="43.705100" lon="7.321100">
       <ele>45.27</ele>
       <time>2014-11-03T23:44:45Z</time>
      </trkpt>
      <trkpt lat="43.704810" lon="7.321400">
       <ele>46.84</ele>
       <time>2014-11-03T23:44:53Z</time>
      </trkpt>
      <trkpt lat="43.704640" lon="7.321530">
       <ele>46.08</ele>
       <time>2014-11-03T23:44:57Z</time>
      </trkpt>
      <trkpt lat="43.704300" lon="7.321730">
       <ele>41.08</ele>
       <time>2014-11-03T23:45:04Z</time>
      </trkpt>
      <trkpt lat="43.704160" lon="7.321880">
       <ele>40.72</ele>
       <time>2014-11-03T23:45:08Z</time>
      </trkpt>
      <trkpt lat="43.703800" lon="7.322440">
       <ele>44.88</ele>
       <time>2014-11-03T23:45:19Z</time>
      </trkpt>
      <trkpt lat="43.703700" lon="7.322630">
       <ele>44.28</ele>
       <time>2014-11-03T23:45:23Z</time>
      </trkpt>
      <trkpt lat="43.703530" lon="7.323010">
       <ele>42.21</ele>
       <time>2014-11-03T23:45:29Z</time>
      </trkpt>
      <trkpt lat="43.703340" lon="7.323500">
       <ele>39.4</ele>
       <time>2014-11-03T23:45:38Z</time>
      </trkpt>
      <trkpt lat="43.703160" lon="7.323900">
       <ele>38.38</ele>
       <time>2014-11-03T23:45:45Z</time>
      </trkpt>
      <trkpt lat="43.702990" lon="7.324210">
       <ele>36.95</ele>
       <time>2014-11-03T23:45:51Z</time>
      </trkpt>
      <trkpt lat="43.702940" lon="7.324240">
       <ele>36.32</ele>
       <time>2014-11-03T23:45:52Z</time>
      </trkpt>
      <trkpt lat="43.702690" lon="7.324590">
       <ele>36.17</ele>
       <time>2014-11-03T23:45:59Z</time>
      </trkpt>
      <trkpt lat="43.702220" lon="7.325190">
       <ele>33.58</ele>
       <time>2014-11-03T23:46:12Z</time>
      </trkpt>
      <trkpt lat="43.701960" lon="7.325580">
       <ele>31.38</ele>
       <time>2014-11-03T23:46:20Z</time>
      </trkpt>
      <trkpt lat="43.701880" lon="7.325640">
       <ele>29.89</ele>
       <time>2014-11-03T23:46:22Z</time>
      </trkpt>
      <trkpt lat="43.701810" lon="7.325780">
       <ele>29.38</ele>
       <time>2014-11-03T23:46:25Z</time>
      </trkpt>
      <trkpt lat="43.701790" lon="7.325860">
       <ele>29.41</ele>
       <time>2014-11-03T23:46:26Z</time>
      </trkpt>
      <trkpt lat="43.701730" lon="7.326320">
       <ele>28.4</ele>
       <time>2014-11-03T23:46:33Z</time>
      </trkpt>
      <trkpt lat="43.701670" lon="7.326550">
       <ele>27.8</ele>
       <time>2014-11-03T23:46:37Z</time>
      </trkpt>
      <trkpt lat="43.701570" lon="7.326610">
       <ele>27.67</ele>
       <time>2014-11-03T23:46:39Z</time>
      </trkpt>
      <trkpt lat="43.701480" lon="7.326630">
       <ele>27.6</ele>
       <time>2014-11-03T23:46:41Z</time>
      </trkpt>
      <trkpt lat="43.701550" lon="7.326990">
       <ele>24.92</ele>
       <time>2014-11-03T23:46:47Z</time>
      </trkpt>
      <trkpt lat="43.702300" lon="7.329060">
       <ele>14.4</ele>
       <time>2014-11-03T23:47:21Z</time>
      </trkpt>
      <trkpt lat="43.702380" lon="7.329170">
       <ele>14.12</ele>
       <time>2014-11-03T23:47:24Z</time>
      </trkpt>
      <trkpt lat="43.702890" lon="7.329560">
       <ele>11.83</ele>
       <time>2014-11-03T23:47:36Z</time>
      </trkpt>
      <trkpt lat="43.703070" lon="7.329740">
       <ele>11.29</ele>
       <time>2014-11-03T23:47:40Z</time>
      </trkpt>
      <trkpt lat="43.703350" lon="7.330150">
       <ele>10.56</ele>
       <time>2014-11-03T23:47:49Z</time>
      </trkpt>
      <trkpt lat="43.703910" lon="7.331030">
       <ele>10.6</ele>
       <time>2014-11-03T23:48:06Z</time>
      </trkpt>
      <trkpt lat="43.704010" lon="7.331250">
       <ele>9.68</ele>
       <time>2014-11-03T23:48:10Z</time>
      </trkpt>
      <trkpt lat="43.704130" lon="7.331600">
       <ele>8.12</ele>
       <time>2014-11-03T23:48:16Z</time>
      </trkpt>
      <trkpt lat="43.704200" lon="7.331900">
       <ele>7.81</ele>
       <time>2014-11-03T23:48:21Z</time>
      </trkpt>
      <trkpt lat="43.704240" lon="7.332350">
       <ele>7.46</ele>
       <time>2014-11-03T23:48:28Z</time>
      </trkpt>
      <trkpt lat="43.704320" lon="7.332570">
       <ele>8.75</ele>
       <time>2014-11-03T23:48:31Z</time>
      </trkpt>
      <trkpt lat="43.705300" lon="7.333850">
       <ele>19.08</ele>
       <time>2014-11-03T23:48:59Z</time>
      </trkpt>
      <trkpt lat="43.705320" lon="7.333940">
       <ele>19.14</ele>
       <time>2014-11-03T23:49:01Z</time>
      </trkpt>
      <trkpt lat="43.705400" lon="7.334100">
       <ele>19</ele>
       <time>2014-11-03T23:49:03Z</time>
      </trkpt>
      <trkpt lat="43.705720" lon="7.334460">
       <ele>15.95</ele>
       <time>2014-11-03T23:49:12Z</time>
      </trkpt>
      <trkpt lat="43.706020" lon="7.335050">
       <ele>11.99</ele>
       <time>2014-11-03T23:49:23Z</time>
      </trkpt>
      <trkpt lat="43.706090" lon="7.335150">
       <ele>11.11</ele>
       <time>2014-11-03T23:49:25Z</time>
      </trkpt>
      <trkpt lat="43.706200" lon="7.335220">
       <ele>10.33</ele>
       <time>2014-11-03T23:49:27Z</time>
      </trkpt>
      <trkpt lat="43.706400" lon="7.335200">
       <ele>9.84</ele>
       <time>2014-11-03T23:49:32Z</time>
      </trkpt>
      <trkpt lat="43.706680" lon="7.335100">
       <ele>9.41</ele>
       <time>2014-11-03T23:49:38Z</time>
      </trkpt>
      <trkpt lat="43.707420" lon="7.334520">
       <ele>8.11</ele>
       <time>2014-11-03T23:49:55Z</time>
      </trkpt>
      <trkpt lat="43.707720" lon="7.334390">
       <ele>8.59</ele>
       <time>2014-11-03T23:50:02Z</time>
      </trkpt>
      <trkpt lat="43.707730" lon="7.334420">
       <ele>8.29</ele>
       <time>2014-11-03T23:50:02Z</time>
      </trkpt>
      <trkpt lat="43.707780" lon="7.334430">
       <ele>8.14</ele>
       <time>2014-11-03T23:50:03Z</time>
      </trkpt>
      <trkpt lat="43.707810" lon="7.334390">
       <ele>8.48</ele>
       <time>2014-11-03T23:50:04Z</time>
      </trkpt>
      <trkpt lat="43.707940" lon="7.334420">
       <ele>8.04</ele>
       <time>2014-11-03T23:50:07Z</time>
      </trkpt>
      <trkpt lat="43.708370" lon="7.334620">
       <ele>5.74</ele>
       <time>2014-11-03T23:50:16Z</time>
      </trkpt>
      <trkpt lat="43.708630" lon="7.334670">
       <ele>5.88</ele>
       <time>2014-11-03T23:50:22Z</time>
      </trkpt>
      <trkpt lat="43.708850" lon="7.334680">
       <ele>6.31</ele>
       <time>2014-11-03T23:50:26Z</time>
      </trkpt>
      <trkpt lat="43.708980" lon="7.334710">
       <ele>6.34</ele>
       <time>2014-11-03T23:50:29Z</time>
      </trkpt>
      <trkpt lat="43.709100" lon="7.334760">
       <ele>6.14</ele>
       <time>2014-11-03T23:50:32Z</time>
      </trkpt>
      <trkpt lat="43.709330" lon="7.334890">
       <ele>5.99</ele>
       <time>2014-11-03T23:50:37Z</time>
      </trkpt>
      <trkpt lat="43.709470" lon="7.335010">
       <ele>5.75</ele>
       <time>2014-11-03T23:50:40Z</time>
      </trkpt>
      <trkpt lat="43.709800" lon="7.335250">
       <ele>5.69</ele>
       <time>2014-11-03T23:50:48Z</time>
      </trkpt>
      <trkpt lat="43.709940" lon="7.335310">
       <ele>5.78</ele>
       <time>2014-11-03T23:50:51Z</time>
      </trkpt>
      <trkpt lat="43.710200" lon="7.335390">
       <ele>6.96</ele>
       <time>2014-11-03T23:50:56Z</time>
      </trkpt>
      <trkpt lat="43.710570" lon="7.335440">
       <ele>9.53</ele>
       <time>2014-11-03T23:51:04Z</time>
      </trkpt>
      <trkpt lat="43.710670" lon="7.335430">
       <ele>10.48</ele>
       <time>2014-11-03T23:51:06Z</time>
      </trkpt>
      <trkpt lat="43.710930" lon="7.335530">
       <ele>11.61</ele>
       <time>2014-11-03T23:51:12Z</time>
      </trkpt>
      <trkpt lat="43.711280" lon="7.335760">
       <ele>12.22</ele>
       <time>2014-11-03T23:51:20Z</time>
      </trkpt>
      <trkpt lat="43.711480" lon="7.335900">
       <ele>12.6</ele>
       <time>2014-11-03T23:51:25Z</time>
      </trkpt>
      <trkpt lat="43.711860" lon="7.336210">
       <ele>16.42</ele>
       <time>2014-11-03T23:51:34Z</time>
      </trkpt>
      <trkpt lat="43.712030" lon="7.336400">
       <ele>18.66</ele>
       <time>2014-11-03T23:51:38Z</time>
      </trkpt>
      <trkpt lat="43.712130" lon="7.336550">
       <ele>19.51</ele>
       <time>2014-11-03T23:51:41Z</time>
      </trkpt>
      <trkpt lat="43.712560" lon="7.337310">
       <ele>20.21</ele>
       <time>2014-11-03T23:51:56Z</time>
      </trkpt>
      <trkpt lat="43.712810" lon="7.337790">
       <ele>21.92</ele>
       <time>2014-11-03T23:52:05Z</time>
      </trkpt>
      <trkpt lat="43.713180" lon="7.338670">
       <ele>21.76</ele>
       <time>2014-11-03T23:52:20Z</time>
      </trkpt>
      <trkpt lat="43.713350" lon="7.339130">
       <ele>20.69</ele>
       <time>2014-11-03T23:52:28Z</time>
      </trkpt>
      <trkpt lat="43.713400" lon="7.339320">
       <ele>21.34</ele>
       <time>2014-11-03T23:52:31Z</time>
      </trkpt>
      <trkpt lat="43.713430" lon="7.339740">
       <ele>21.22</ele>
       <time>2014-11-03T23:52:37Z</time>
      </trkpt>
      <trkpt lat="43.713440" lon="7.340230">
       <ele>19.8</ele>
       <time>2014-11-03T23:52:44Z</time>
      </trkpt>
      <trkpt lat="43.713480" lon="7.340520">
       <ele>19.49</ele>
       <time>2014-11-03T23:52:49Z</time>
      </trkpt>
      <trkpt lat="43.713550" lon="7.340700">
       <ele>20.71</ele>
       <time>2014-11-03T23:52:52Z</time>
      </trkpt>
      <trkpt lat="43.713620" lon="7.340830">
       <ele>22.28</ele>
       <time>2014-11-03T23:52:54Z</time>
      </trkpt>
      <trkpt lat="43.713720" lon="7.341130">
       <ele>24.49</ele>
       <time>2014-11-03T23:52:59Z</time>
      </trkpt>
      <trkpt lat="43.713990" lon="7.342110">
       <ele>27.18</ele>
       <time>2014-11-03T23:53:15Z</time>
      </trkpt>
      <trkpt lat="43.714020" lon="7.342290">
       <ele>22.99</ele>
       <time>2014-11-03T23:53:18Z</time>
      </trkpt>
      <trkpt lat="43.714060" lon="7.342700">
       <ele>0</ele>
       <time>2014-11-03T23:53:24Z</time>
      </trkpt>
      <trkpt lat="43.714090" lon="7.343260">
       <ele>0</ele>
       <time>2014-11-03T23:53:32Z</time>
      </trkpt>
      <trkpt lat="43.714120" lon="7.344280">
       <ele>0</ele>
       <time>2014-11-03T23:53:48Z</time>
      </trkpt>
      <trkpt lat="43.714170" lon="7.344800">
       <ele>0</ele>
       <time>2014-11-03T23:53:55Z</time>
      </trkpt>
      <trkpt lat="43.714250" lon="7.345230">
       <ele>0</ele>
       <time>2014-11-03T23:54:02Z</time>
      </trkpt>
      <trkpt lat="43.714300" lon="7.345630">
       <ele>0</ele>
       <time>2014-11-03T23:54:08Z</time>
      </trkpt>
      <trkpt lat="43.714330" lon="7.346420">
       <ele>0</ele>
       <time>2014-11-03T23:54:20Z</time>
      </trkpt>
      <trkpt lat="43.714370" lon="7.346980">
       <ele>0</ele>
       <time>2014-11-03T23:54:28Z</time>
      </trkpt>
      <trkpt lat="43.714490" lon="7.348210">
       <ele>0</ele>
       <time>2014-11-03T23:54:47Z</time>
      </trkpt>
      <trkpt lat="43.714520" lon="7.348350">
       <ele>1</ele>
       <time>2014-11-03T23:54:49Z</time>
      </trkpt>
      <trkpt lat="43.714610" lon="7.348600">
       <ele>18.47</ele>
       <time>2014-11-03T23:54:53Z</time>
      </trkpt>
      <trkpt lat="43.714920" lon="7.349110">
       <ele>61.95</ele>
       <time>2014-11-03T23:55:03Z</time>
      </trkpt>
      <trkpt lat="43.715040" lon="7.349360">
       <ele>58.03</ele>
       <time>2014-11-03T23:55:08Z</time>
      </trkpt>
      <trkpt lat="43.715140" lon="7.349970">
       <ele>23.92</ele>
       <time>2014-11-03T23:55:17Z</time>
      </trkpt>
      <trkpt lat="43.715230" lon="7.350320">
       <ele>19.54</ele>
       <time>2014-11-03T23:55:23Z</time>
      </trkpt>
      <trkpt lat="43.715320" lon="7.350590">
       <ele>16.06</ele>
       <time>2014-11-03T23:55:27Z</time>
      </trkpt>
      <trkpt lat="43.715380" lon="7.350700">
       <ele>14.4</ele>
       <time>2014-11-03T23:55:29Z</time>
      </trkpt>
      <trkpt lat="43.715480" lon="7.350830">
       <ele>11.97</ele>
       <time>2014-11-03T23:55:32Z</time>
      </trkpt>
      <trkpt lat="43.715620" lon="7.350890">
       <ele>12.08</ele>
       <time>2014-11-03T23:55:35Z</time>
      </trkpt>
      <trkpt lat="43.715780" lon="7.350910">
       <ele>12.77</ele>
       <time>2014-11-03T23:55:39Z</time>
      </trkpt>
      <trkpt lat="43.715910" lon="7.350840">
       <ele>13.26</ele>
       <time>2014-11-03T23:55:42Z</time>
      </trkpt>
      <trkpt lat="43.716000" lon="7.350770">
       <ele>14.87</ele>
       <time>2014-11-03T23:55:44Z</time>
      </trkpt>
      <trkpt lat="43.716100" lon="7.350660">
       <ele>17.58</ele>
       <time>2014-11-03T23:55:46Z</time>
      </trkpt>
      <trkpt lat="43.716380" lon="7.350300">
       <ele>23.79</ele>
       <time>2014-11-03T23:55:54Z</time>
      </trkpt>
      <trkpt lat="43.716860" lon="7.349630">
       <ele>34.31</ele>
       <time>2014-11-03T23:56:08Z</time>
      </trkpt>
      <trkpt lat="43.717130" lon="7.349320">
       <ele>37.86</ele>
       <time>2014-11-03T23:56:16Z</time>
      </trkpt>
      <trkpt lat="43.717210" lon="7.349260">
       <ele>37.4</ele>
       <time>2014-11-03T23:56:18Z</time>
      </trkpt>
      <trkpt lat="43.717290" lon="7.349230">
       <ele>36.14</ele>
       <time>2014-11-03T23:56:19Z</time>
      </trkpt>
      <trkpt lat="43.717430" lon="7.349190">
       <ele>33.41</ele>
       <time>2014-11-03T23:56:22Z</time>
      </trkpt>
      <trkpt lat="43.717510" lon="7.349190">
       <ele>31.7</ele>
       <time>2014-11-03T23:56:24Z</time>
      </trkpt>
      <trkpt lat="43.717630" lon="7.349230">
       <ele>31.39</ele>
       <time>2014-11-03T23:56:26Z</time>
      </trkpt>
      <trkpt lat="43.717810" lon="7.349350">
       <ele>30.45</ele>
       <time>2014-11-03T23:56:31Z</time>
      </trkpt>
      <trkpt lat="43.717910" lon="7.349480">
       <ele>29.47</ele>
       <time>2014-11-03T23:56:33Z</time>
      </trkpt>
      <trkpt lat="43.718570" lon="7.350510">
       <ele>25.91</ele>
       <time>2014-11-03T23:56:54Z</time>
      </trkpt>
      <trkpt lat="43.718720" lon="7.350790">
       <ele>25.03</ele>
       <time>2014-11-03T23:56:59Z</time>
      </trkpt>
      <trkpt lat="43.719490" lon="7.352050">
       <ele>19.99</ele>
       <time>2014-11-03T23:57:24Z</time>
      </trkpt>
      <trkpt lat="43.719790" lon="7.352530">
       <ele>19.24</ele>
       <time>2014-11-03T23:57:34Z</time>
      </trkpt>
      <trkpt lat="43.719850" lon="7.352580">
       <ele>19.48</ele>
       <time>2014-11-03T23:57:35Z</time>
      </trkpt>
      <trkpt lat="43.719930" lon="7.352700">
       <ele>19.3</ele>
       <time>2014-11-03T23:57:37Z</time>
      </trkpt>
      <trkpt lat="43.720560" lon="7.353780">
       <ele>21.14</ele>
       <time>2014-11-03T23:57:58Z</time>
      </trkpt>
      <trkpt lat="43.721050" lon="7.354560">
       <ele>22.65</ele>
       <time>2014-11-03T23:58:14Z</time>
      </trkpt>
      <trkpt lat="43.721520" lon="7.355270">
       <ele>24.61</ele>
       <time>2014-11-03T23:58:28Z</time>
      </trkpt>
      <trkpt lat="43.721620" lon="7.355450">
       <ele>24.17</ele>
       <time>2014-11-03T23:58:32Z</time>
      </trkpt>
      <trkpt lat="43.721930" lon="7.355830">
       <ele>24.18</ele>
       <time>2014-11-03T23:58:40Z</time>
      </trkpt>
      <trkpt lat="43.722090" lon="7.355990">
       <ele>24.85</ele>
       <time>2014-11-03T23:58:44Z</time>
      </trkpt>
      <trkpt lat="43.722330" lon="7.356320">
       <ele>24.94</ele>
       <time>2014-11-03T23:58:51Z</time>
      </trkpt>
      <trkpt lat="43.722490" lon="7.356690">
       <ele>23.72</ele>
       <time>2014-11-03T23:58:58Z</time>
      </trkpt>
      <trkpt lat="43.722590" lon="7.356880">
       <ele>26.14</ele>
       <time>2014-11-03T23:59:01Z</time>
      </trkpt>
      <trkpt lat="43.722750" lon="7.357440">
       <ele>28.81</ele>
       <time>2014-11-03T23:59:10Z</time>
      </trkpt>
      <trkpt lat="43.722970" lon="7.359160">
       <ele>24.52</ele>
       <time>2014-11-03T23:59:36Z</time>
      </trkpt>
      <trkpt lat="43.723000" lon="7.359780">
       <ele>28.77</ele>
       <time>2014-11-03T23:59:46Z</time>
      </trkpt>
      <trkpt lat="43.722810" lon="7.363010">
       <ele>30.19</ele>
       <time>2014-11-04T00:00:34Z</time>
      </trkpt>
      <trkpt lat="43.722750" lon="7.363720">
       <ele>31.86</ele>
       <time>2014-11-04T00:00:45Z</time>
      </trkpt>
      <trkpt lat="43.722700" lon="7.363980">
       <ele>30.82</ele>
       <time>2014-11-04T00:00:49Z</time>
      </trkpt>
      <trkpt lat="43.722460" lon="7.364850">
       <ele>24.42</ele>
       <time>2014-11-04T00:01:03Z</time>
      </trkpt>
      <trkpt lat="43.722340" lon="7.365150">
       <ele>26.34</ele>
       <time>2014-11-04T00:01:08Z</time>
      </trkpt>
      <trkpt lat="43.722200" lon="7.365430">
       <ele>28.34</ele>
       <time>2014-11-04T00:01:13Z</time>
      </trkpt>
      <trkpt lat="43.722020" lon="7.365740">
       <ele>28.2</ele>
       <time>2014-11-04T00:01:19Z</time>
      </trkpt>
      <trkpt lat="43.721240" lon="7.366850">
       <ele>25.43</ele>
       <time>2014-11-04T00:01:42Z</time>
      </trkpt>
      <trkpt lat="43.720970" lon="7.367260">
       <ele>27.98</ele>
       <time>2014-11-04T00:01:51Z</time>
      </trkpt>
      <trkpt lat="43.720800" lon="7.367630">
       <ele>28.45</ele>
       <time>2014-11-04T00:01:57Z</time>
      </trkpt>
      <trkpt lat="43.720630" lon="7.368080">
       <ele>35.77</ele>
       <time>2014-11-04T00:02:05Z</time>
      </trkpt>
      <trkpt lat="43.720520" lon="7.368450">
       <ele>40.63</ele>
       <time>2014-11-04T00:02:11Z</time>
      </trkpt>
      <trkpt lat="43.720500" lon="7.368690">
       <ele>47.39</ele>
       <time>2014-11-04T00:02:14Z</time>
      </trkpt>
      <trkpt lat="43.720510" lon="7.368820">
       <ele>52.23</ele>
       <time>2014-11-04T00:02:16Z</time>
      </trkpt>
      <trkpt lat="43.720780" lon="7.370070">
       <ele>113.4</ele>
       <time>2014-11-04T00:02:36Z</time>
      </trkpt>
      <trkpt lat="43.720870" lon="7.370780">
       <ele>149.79</ele>
       <time>2014-11-04T00:02:47Z</time>
      </trkpt>
      <trkpt lat="43.720900" lon="7.371590">
       <ele>173.55</ele>
       <time>2014-11-04T00:02:59Z</time>
      </trkpt>
      <trkpt lat="43.720870" lon="7.372260">
       <ele>194.72</ele>
       <time>2014-11-04T00:03:09Z</time>
      </trkpt>
      <trkpt lat="43.720810" lon="7.372800">
       <ele>207.01</ele>
       <time>2014-11-04T00:03:17Z</time>
      </trkpt>
      <trkpt lat="43.720440" lon="7.375760">
       <ele>96.85</ele>
       <time>2014-11-04T00:04:02Z</time>
      </trkpt>
      <trkpt lat="43.720380" lon="7.376110">
       <ele>78.08</ele>
       <time>2014-11-04T00:04:08Z</time>
      </trkpt>
      <trkpt lat="43.720370" lon="7.376320">
       <ele>69.18</ele>
       <time>2014-11-04T00:04:11Z</time>
      </trkpt>
      <trkpt lat="43.720390" lon="7.376520">
       <ele>62.55</ele>
       <time>2014-11-04T00:04:14Z</time>
      </trkpt>
      <trkpt lat="43.720430" lon="7.376660">
       <ele>59.58</ele>
       <time>2014-11-04T00:04:16Z</time>
      </trkpt>
      <trkpt lat="43.720640" lon="7.377140">
       <ele>51.15</ele>
       <time>2014-11-04T00:04:24Z</time>
      </trkpt>
      <trkpt lat="43.720750" lon="7.377330">
       <ele>47.27</ele>
       <time>2014-11-04T00:04:28Z</time>
      </trkpt>
      <trkpt lat="43.720790" lon="7.377380">
       <ele>46.58</ele>
       <time>2014-11-04T00:04:29Z</time>
      </trkpt>
      <trkpt lat="43.720960" lon="7.377510">
       <ele>49.98</ele>
       <time>2014-11-04T00:04:33Z</time>
      </trkpt>
      <trkpt lat="43.721130" lon="7.377670">
       <ele>55.96</ele>
       <time>2014-11-04T00:04:37Z</time>
      </trkpt>
      <trkpt lat="43.721600" lon="7.378230">
       <ele>60.41</ele>
       <time>2014-11-04T00:04:50Z</time>
      </trkpt>
      <trkpt lat="43.721870" lon="7.378470">
       <ele>62.47</ele>
       <time>2014-11-04T00:04:57Z</time>
      </trkpt>
      <trkpt lat="43.721980" lon="7.378580">
       <ele>63.59</ele>
       <time>2014-11-04T00:05:00Z</time>
      </trkpt>
      <trkpt lat="43.722010" lon="7.378630">
       <ele>63.39</ele>
       <time>2014-11-04T00:05:01Z</time>
      </trkpt>
      <trkpt lat="43.722080" lon="7.378860">
       <ele>59.83</ele>
       <time>2014-11-04T00:05:05Z</time>
      </trkpt>
      <trkpt lat="43.722150" lon="7.379510">
       <ele>48.65</ele>
       <time>2014-11-04T00:05:14Z</time>
      </trkpt>
      <trkpt lat="43.722210" lon="7.379650">
       <ele>48.62</ele>
       <time>2014-11-04T00:05:17Z</time>
      </trkpt>
      <trkpt lat="43.722310" lon="7.379760">
       <ele>50.34</ele>
       <time>2014-11-04T00:05:19Z</time>
      </trkpt>
      <trkpt lat="43.722420" lon="7.379820">
       <ele>53.18</ele>
       <time>2014-11-04T00:05:22Z</time>
      </trkpt>
      <trkpt lat="43.722810" lon="7.379910">
       <ele>57.56</ele>
       <time>2014-11-04T00:05:30Z</time>
      </trkpt>
      <trkpt lat="43.723910" lon="7.380080">
       <ele>61.74</ele>
       <time>2014-11-04T00:05:53Z</time>
      </trkpt>
      <trkpt lat="43.724060" lon="7.380000">
       <ele>63.74</ele>
       <time>2014-11-04T00:05:56Z</time>
      </trkpt>
      <trkpt lat="43.724480" lon="7.379730">
       <ele>77.62</ele>
       <time>2014-11-04T00:06:06Z</time>
      </trkpt>
      <trkpt lat="43.724630" lon="7.379720">
       <ele>80.27</ele>
       <time>2014-11-04T00:06:09Z</time>
      </trkpt>
      <trkpt lat="43.724770" lon="7.379760">
       <ele>81.19</ele>
       <time>2014-11-04T00:06:12Z</time>
      </trkpt>
      <trkpt lat="43.724890" lon="7.379840">
       <ele>80.5</ele>
       <time>2014-11-04T00:06:15Z</time>
      </trkpt>
      <trkpt lat="43.725030" lon="7.380030">
       <ele>77.61</ele>
       <time>2014-11-04T00:06:19Z</time>
      </trkpt>
      <trkpt lat="43.725290" lon="7.380650">
       <ele>78.62</ele>
       <time>2014-11-04T00:06:30Z</time>
      </trkpt>
      <trkpt lat="43.725320" lon="7.380810">
       <ele>77.63</ele>
       <time>2014-11-04T00:06:32Z</time>
      </trkpt>
      <trkpt lat="43.725330" lon="7.380990">
       <ele>78.24</ele>
       <time>2014-11-04T00:06:35Z</time>
      </trkpt>
      <trkpt lat="43.725300" lon="7.381270">
       <ele>78.46</ele>
       <time>2014-11-04T00:06:39Z</time>
      </trkpt>
      <trkpt lat="43.725280" lon="7.381330">
       <ele>78.25</ele>
       <time>2014-11-04T00:06:40Z</time>
      </trkpt>
      <trkpt lat="43.725240" lon="7.381400">
       <ele>77.64</ele>
       <time>2014-11-04T00:06:41Z</time>
      </trkpt>
      <trkpt lat="43.725130" lon="7.381530">
       <ele>76.17</ele>
       <time>2014-11-04T00:06:44Z</time>
      </trkpt>
      <trkpt lat="43.725060" lon="7.381550">
       <ele>75.01</ele>
       <time>2014-11-04T00:06:46Z</time>
      </trkpt>
      <trkpt lat="43.724960" lon="7.381610">
       <ele>73.78</ele>
       <time>2014-11-04T00:06:48Z</time>
      </trkpt>
      <trkpt lat="43.724520" lon="7.381800">
       <ele>71.98</ele>
       <time>2014-11-04T00:06:58Z</time>
      </trkpt>
      <trkpt lat="43.724010" lon="7.382070">
       <ele>71.92</ele>
       <time>2014-11-04T00:07:09Z</time>
      </trkpt>
      <trkpt lat="43.723730" lon="7.382200">
       <ele>64.29</ele>
       <time>2014-11-04T00:07:15Z</time>
      </trkpt>
      <trkpt lat="43.723630" lon="7.382290">
       <ele>62.46</ele>
       <time>2014-11-04T00:07:18Z</time>
      </trkpt>
      <trkpt lat="43.723480" lon="7.382480">
       <ele>60.25</ele>
       <time>2014-11-04T00:07:22Z</time>
      </trkpt>
      <trkpt lat="43.723340" lon="7.382810">
       <ele>61.88</ele>
       <time>2014-11-04T00:07:28Z</time>
      </trkpt>
      <trkpt lat="43.723310" lon="7.383130">
       <ele>68.74</ele>
       <time>2014-11-04T00:07:32Z</time>
      </trkpt>
      <trkpt lat="43.723310" lon="7.383380">
       <ele>75.98</ele>
       <time>2014-11-04T00:07:36Z</time>
      </trkpt>
      <trkpt lat="43.723340" lon="7.383900">
       <ele>99.42</ele>
       <time>2014-11-04T00:07:44Z</time>
      </trkpt>
      <trkpt lat="43.723400" lon="7.384350">
       <ele>113.79</ele>
       <time>2014-11-04T00:07:51Z</time>
      </trkpt>
      <trkpt lat="43.723450" lon="7.384560">
       <ele>118.83</ele>
       <time>2014-11-04T00:07:54Z</time>
      </trkpt>
      <trkpt lat="43.723510" lon="7.384690">
       <ele>125.73</ele>
       <time>2014-11-04T00:07:56Z</time>
      </trkpt>
      <trkpt lat="43.723740" lon="7.385040">
       <ele>140.47</ele>
       <time>2014-11-04T00:08:04Z</time>
      </trkpt>
      <trkpt lat="43.723810" lon="7.385270">
       <ele>118.03</ele>
       <time>2014-11-04T00:08:07Z</time>
      </trkpt>
      <trkpt lat="43.723840" lon="7.385510">
       <ele>103.32</ele>
       <time>2014-11-04T00:08:11Z</time>
      </trkpt>
      <trkpt lat="43.723820" lon="7.385920">
       <ele>84.79</ele>
       <time>2014-11-04T00:08:17Z</time>
      </trkpt>
      <trkpt lat="43.723770" lon="7.386400">
       <ele>81.32</ele>
       <time>2014-11-04T00:08:24Z</time>
      </trkpt>
      <trkpt lat="43.723650" lon="7.386760">
       <ele>74.76</ele>
       <time>2014-11-04T00:08:30Z</time>
      </trkpt>
      <trkpt lat="43.723610" lon="7.387050">
       <ele>76.23</ele>
       <time>2014-11-04T00:08:35Z</time>
      </trkpt>
      <trkpt lat="43.723660" lon="7.387940">
       <ele>84.13</ele>
       <time>2014-11-04T00:08:48Z</time>
      </trkpt>
      <trkpt lat="43.723660" lon="7.388720">
       <ele>71.56</ele>
       <time>2014-11-04T00:09:00Z</time>
      </trkpt>
      <trkpt lat="43.723690" lon="7.388930">
       <ele>68.8</ele>
       <time>2014-11-04T00:09:03Z</time>
      </trkpt>
      <trkpt lat="43.723770" lon="7.389220">
       <ele>71.45</ele>
       <time>2014-11-04T00:09:08Z</time>
      </trkpt>
      <trkpt lat="43.723800" lon="7.389470">
       <ele>79</ele>
       <time>2014-11-04T00:09:11Z</time>
      </trkpt>
      <trkpt lat="43.723820" lon="7.390300">
       <ele>94.51</ele>
       <time>2014-11-04T00:09:24Z</time>
      </trkpt>
      <trkpt lat="43.723740" lon="7.391020">
       <ele>97.63</ele>
       <time>2014-11-04T00:09:35Z</time>
      </trkpt>
      <trkpt lat="43.723660" lon="7.391330">
       <ele>96.07</ele>
       <time>2014-11-04T00:09:40Z</time>
      </trkpt>
      <trkpt lat="43.723070" lon="7.393170">
       <ele>94.06</ele>
       <time>2014-11-04T00:10:10Z</time>
      </trkpt>
      <trkpt lat="43.722960" lon="7.393440">
       <ele>92.57</ele>
       <time>2014-11-04T00:10:15Z</time>
      </trkpt>
      <trkpt lat="43.722850" lon="7.393660">
       <ele>89.59</ele>
       <time>2014-11-04T00:10:19Z</time>
      </trkpt>
      <trkpt lat="43.722770" lon="7.393880">
       <ele>88.34</ele>
       <time>2014-11-04T00:10:22Z</time>
      </trkpt>
      <trkpt lat="43.722740" lon="7.394030">
       <ele>88.57</ele>
       <time>2014-11-04T00:10:25Z</time>
      </trkpt>
      <trkpt lat="43.722740" lon="7.394210">
       <ele>89.63</ele>
       <time>2014-11-04T00:10:27Z</time>
      </trkpt>
      <trkpt lat="43.722790" lon="7.394530">
       <ele>89.89</ele>
       <time>2014-11-04T00:10:32Z</time>
      </trkpt>
      <trkpt lat="43.722940" lon="7.395280">
       <ele>89.62</ele>
       <time>2014-11-04T00:10:44Z</time>
      </trkpt>
      <trkpt lat="43.722910" lon="7.395320">
       <ele>88.79</ele>
       <time>2014-11-04T00:10:45Z</time>
      </trkpt>
      <trkpt lat="43.722910" lon="7.395390">
       <ele>88.33</ele>
       <time>2014-11-04T00:10:46Z</time>
      </trkpt>
      <trkpt lat="43.722930" lon="7.395430">
       <ele>88.44</ele>
       <time>2014-11-04T00:10:46Z</time>
      </trkpt>
      <trkpt lat="43.722970" lon="7.395440">
       <ele>89.12</ele>
       <time>2014-11-04T00:10:47Z</time>
      </trkpt>
      <trkpt lat="43.723140" lon="7.396400">
       <ele>87.64</ele>
       <time>2014-11-04T00:11:02Z</time>
      </trkpt>
      <trkpt lat="43.723150" lon="7.396520">
       <ele>87.47</ele>
       <time>2014-11-04T00:11:04Z</time>
      </trkpt>
      <trkpt lat="43.723140" lon="7.396780">
       <ele>86.95</ele>
       <time>2014-11-04T00:11:08Z</time>
      </trkpt>
      <trkpt lat="43.723060" lon="7.397420">
       <ele>85.73</ele>
       <time>2014-11-04T00:11:18Z</time>
      </trkpt>
      <trkpt lat="43.722980" lon="7.397650">
       <ele>86</ele>
       <time>2014-11-04T00:11:21Z</time>
      </trkpt>
      <trkpt lat="43.722890" lon="7.397760">
       <ele>85.87</ele>
       <time>2014-11-04T00:11:24Z</time>
      </trkpt>
      <trkpt lat="43.722390" lon="7.398040">
       <ele>82.68</ele>
       <time>2014-11-04T00:11:35Z</time>
      </trkpt>
      <trkpt lat="43.722150" lon="7.398270">
       <ele>81.4</ele>
       <time>2014-11-04T00:11:41Z</time>
      </trkpt>
      <trkpt lat="43.722060" lon="7.398330">
       <ele>80.65</ele>
       <time>2014-11-04T00:11:43Z</time>
      </trkpt>
      <trkpt lat="43.721980" lon="7.398410">
       <ele>80</ele>
       <time>2014-11-04T00:11:45Z</time>
      </trkpt>
      <trkpt lat="43.721800" lon="7.398660">
       <ele>78.04</ele>
       <time>2014-11-04T00:11:51Z</time>
      </trkpt>
      <trkpt lat="43.721740" lon="7.398790">
       <ele>77.15</ele>
       <time>2014-11-04T00:11:53Z</time>
      </trkpt>
      <trkpt lat="43.721690" lon="7.399020">
       <ele>76.44</ele>
       <time>2014-11-04T00:11:56Z</time>
      </trkpt>
      <trkpt lat="43.721700" lon="7.399230">
       <ele>75.57</ele>
       <time>2014-11-04T00:12:00Z</time>
      </trkpt>
      <trkpt lat="43.722040" lon="7.399920">
       <ele>76.84</ele>
       <time>2014-11-04T00:12:12Z</time>
      </trkpt>
      <trkpt lat="43.722100" lon="7.400130">
       <ele>77.24</ele>
       <time>2014-11-04T00:12:15Z</time>
      </trkpt>
      <trkpt lat="43.722170" lon="7.401550">
       <ele>70.6</ele>
       <time>2014-11-04T00:12:37Z</time>
      </trkpt>
      <trkpt lat="43.722170" lon="7.401820">
       <ele>70.27</ele>
       <time>2014-11-04T00:12:41Z</time>
      </trkpt>
      <trkpt lat="43.722110" lon="7.402190">
       <ele>66.83</ele>
       <time>2014-11-04T00:12:47Z</time>
      </trkpt>
      <trkpt lat="43.722090" lon="7.402490">
       <ele>66</ele>
       <time>2014-11-04T00:12:51Z</time>
      </trkpt>
      <trkpt lat="43.722010" lon="7.402700">
       <ele>62.32</ele>
       <time>2014-11-04T00:12:55Z</time>
      </trkpt>
      <trkpt lat="43.721910" lon="7.402880">
       <ele>57.78</ele>
       <time>2014-11-04T00:12:58Z</time>
      </trkpt>
      <trkpt lat="43.721860" lon="7.403050">
       <ele>56.54</ele>
       <time>2014-11-04T00:13:01Z</time>
      </trkpt>
      <trkpt lat="43.721760" lon="7.404140">
       <ele>59.19</ele>
       <time>2014-11-04T00:13:17Z</time>
      </trkpt>
      <trkpt lat="43.721760" lon="7.404390">
       <ele>58.88</ele>
       <time>2014-11-04T00:13:21Z</time>
      </trkpt>
      <trkpt lat="43.721780" lon="7.404500">
       <ele>59.26</ele>
       <time>2014-11-04T00:13:23Z</time>
      </trkpt>
      <trkpt lat="43.721850" lon="7.404660">
       <ele>61.14</ele>
       <time>2014-11-04T00:13:25Z</time>
      </trkpt>
      <trkpt lat="43.722090" lon="7.404990">
       <ele>66.78</ele>
       <time>2014-11-04T00:13:32Z</time>
      </trkpt>
      <trkpt lat="43.722160" lon="7.405110">
       <ele>67.49</ele>
       <time>2014-11-04T00:13:35Z</time>
      </trkpt>
      <trkpt lat="43.722250" lon="7.405320">
       <ele>67.81</ele>
       <time>2014-11-04T00:13:38Z</time>
      </trkpt>
      <trkpt lat="43.722400" lon="7.405810">
       <ele>66.63</ele>
       <time>2014-11-04T00:13:46Z</time>
      </trkpt>
      <trkpt lat="43.722510" lon="7.406250">
       <ele>64.97</ele>
       <time>2014-11-04T00:13:53Z</time>
      </trkpt>
      <trkpt lat="43.722560" lon="7.406670">
       <ele>62.48</ele>
       <time>2014-11-04T00:14:00Z</time>
      </trkpt>
      <trkpt lat="43.722560" lon="7.407010">
       <ele>62.18</ele>
       <time>2014-11-04T00:14:05Z</time>
      </trkpt>
      <trkpt lat="43.722480" lon="7.407940">
       <ele>57.22</ele>
       <time>2014-11-04T00:14:19Z</time>
      </trkpt>
      <trkpt lat="43.722480" lon="7.408050">
       <ele>56.69</ele>
       <time>2014-11-04T00:14:21Z</time>
      </trkpt>
      <trkpt lat="43.722520" lon="7.408200">
       <ele>57</ele>
       <time>2014-11-04T00:14:23Z</time>
      </trkpt>
      <trkpt lat="43.722600" lon="7.408340">
       <ele>57.55</ele>
       <time>2014-11-04T00:14:26Z</time>
      </trkpt>
      <trkpt lat="43.722650" lon="7.408390">
       <ele>57.45</ele>
       <time>2014-11-04T00:14:27Z</time>
      </trkpt>
      <trkpt lat="43.723220" lon="7.408800">
       <ele>54.53</ele>
       <time>2014-11-04T00:14:40Z</time>
      </trkpt>
      <trkpt lat="43.723490" lon="7.408970">
       <ele>50.92</ele>
       <time>2014-11-04T00:14:46Z</time>
      </trkpt>
      <trkpt lat="43.723590" lon="7.408980">
       <ele>51.07</ele>
       <time>2014-11-04T00:14:48Z</time>
      </trkpt>
      <trkpt lat="43.723720" lon="7.408940">
       <ele>53.14</ele>
       <time>2014-11-04T00:14:51Z</time>
      </trkpt>
      <trkpt lat="43.724040" lon="7.408760">
       <ele>62.11</ele>
       <time>2014-11-04T00:14:58Z</time>
      </trkpt>
      <trkpt lat="43.724140" lon="7.408730">
       <ele>64.12</ele>
       <time>2014-11-04T00:15:01Z</time>
      </trkpt>
      <trkpt lat="43.724360" lon="7.408740">
       <ele>65.17</ele>
       <time>2014-11-04T00:15:05Z</time>
      </trkpt>
      <trkpt lat="43.724440" lon="7.408760">
       <ele>64.94</ele>
       <time>2014-11-04T00:15:07Z</time>
      </trkpt>
      <trkpt lat="43.724550" lon="7.408820">
       <ele>63.57</ele>
       <time>2014-11-04T00:15:09Z</time>
      </trkpt>
      <trkpt lat="43.724680" lon="7.408950">
       <ele>60.43</ele>
       <time>2014-11-04T00:15:13Z</time>
      </trkpt>
      <trkpt lat="43.725160" lon="7.409570">
       <ele>48.36</ele>
       <time>2014-11-04T00:15:26Z</time>
      </trkpt>
      <trkpt lat="43.725290" lon="7.409640">
       <ele>47.9</ele>
       <time>2014-11-04T00:15:29Z</time>
      </trkpt>
      <trkpt lat="43.725540" lon="7.409710">
       <ele>48.98</ele>
       <time>2014-11-04T00:15:34Z</time>
      </trkpt>
      <trkpt lat="43.725630" lon="7.409780">
       <ele>48.57</ele>
       <time>2014-11-04T00:15:36Z</time>
      </trkpt>
      <trkpt lat="43.725710" lon="7.409890">
       <ele>47.38</ele>
       <time>2014-11-04T00:15:39Z</time>
      </trkpt>
      <trkpt lat="43.725740" lon="7.409970">
       <ele>46.21</ele>
       <time>2014-11-04T00:15:40Z</time>
      </trkpt>
      <trkpt lat="43.725930" lon="7.410600">
       <ele>36.39</ele>
       <time>2014-11-04T00:15:50Z</time>
      </trkpt>
      <trkpt lat="43.726010" lon="7.410740">
       <ele>35.41</ele>
       <time>2014-11-04T00:15:53Z</time>
      </trkpt>
      <trkpt lat="43.726120" lon="7.410860">
       <ele>35.81</ele>
       <time>2014-11-04T00:15:56Z</time>
      </trkpt>
      <trkpt lat="43.726220" lon="7.410940">
       <ele>36.92</ele>
       <time>2014-11-04T00:15:58Z</time>
      </trkpt>
      <trkpt lat="43.726950" lon="7.411350">
       <ele>37.35</ele>
       <time>2014-11-04T00:16:15Z</time>
      </trkpt>
      <trkpt lat="43.727570" lon="7.411720">
       <ele>29.45</ele>
       <time>2014-11-04T00:16:29Z</time>
      </trkpt>
      <trkpt lat="43.728080" lon="7.412000">
       <ele>29.59</ele>
       <time>2014-11-04T00:16:40Z</time>
      </trkpt>
      <trkpt lat="43.728050" lon="7.412010">
       <ele>29.16</ele>
       <time>2014-11-04T00:16:41Z</time>
      </trkpt>
      <trkpt lat="43.728020" lon="7.412060">
       <ele>28.22</ele>
       <time>2014-11-04T00:16:42Z</time>
      </trkpt>
      <trkpt lat="43.728020" lon="7.412140">
       <ele>27.22</ele>
       <time>2014-11-04T00:16:43Z</time>
      </trkpt>
      <trkpt lat="43.728060" lon="7.412200">
       <ele>27.01</ele>
       <time>2014-11-04T00:16:44Z</time>
      </trkpt>
      <trkpt lat="43.728130" lon="7.412200">
       <ele>27.9</ele>
       <time>2014-11-04T00:16:46Z</time>
      </trkpt>
      <trkpt lat="43.728170" lon="7.412140">
       <ele>29.02</ele>
       <time>2014-11-04T00:16:47Z</time>
      </trkpt>
      <trkpt lat="43.728170" lon="7.412070">
       <ele>29.76</ele>
       <time>2014-11-04T00:16:48Z</time>
      </trkpt>
      <trkpt lat="43.728140" lon="7.412020">
       <ele>30</ele>
       <time>2014-11-04T00:16:49Z</time>
      </trkpt>
      <trkpt lat="43.728280" lon="7.412090">
       <ele>30.82</ele>
       <time>2014-11-04T00:16:52Z</time>
      </trkpt>
      <trkpt lat="43.728580" lon="7.412280">
       <ele>31.36</ele>
       <time>2014-11-04T00:16:59Z</time>
      </trkpt>
      <trkpt lat="43.728630" lon="7.412330">
       <ele>31.08</ele>
       <time>2014-11-04T00:17:00Z</time>
      </trkpt>
      <trkpt lat="43.728580" lon="7.412410">
       <ele>29.9</ele>
       <time>2014-11-04T00:17:02Z</time>
      </trkpt>
      <trkpt lat="43.728590" lon="7.412490">
       <ele>29.03</ele>
       <time>2014-11-04T00:17:03Z</time>
      </trkpt>
      <trkpt lat="43.728640" lon="7.412530">
       <ele>29.14</ele>
       <time>2014-11-04T00:17:04Z</time>
      </trkpt>
      <trkpt lat="43.728730" lon="7.412710">
       <ele>29.46</ele>
       <time>2014-11-04T00:17:07Z</time>
      </trkpt>
      <trkpt lat="43.728870" lon="7.412800">
       <ele>29.62</ele>
       <time>2014-11-04T00:17:10Z</time>
      </trkpt>
      <trkpt lat="43.728940" lon="7.412810">
       <ele>29.67</ele>
       <time>2014-11-04T00:17:12Z</time>
      </trkpt>
      <trkpt lat="43.729330" lon="7.413070">
       <ele>31.95</ele>
       <time>2014-11-04T00:17:21Z</time>
      </trkpt>
      <trkpt lat="43.729560" lon="7.413440">
       <ele>32.7</ele>
       <time>2014-11-04T00:17:28Z</time>
      </trkpt>
      <trkpt lat="43.730010" lon="7.414260">
       <ele>24.92</ele>
       <time>2014-11-04T00:17:44Z</time>
      </trkpt>
      <trkpt lat="43.730350" lon="7.414820">
       <ele>35.48</ele>
       <time>2014-11-04T00:17:55Z</time>
      </trkpt>
      <trkpt lat="43.731130" lon="7.416280">
       <ele>26.08</ele>
       <time>2014-11-04T00:18:22Z</time>
      </trkpt>
      <trkpt lat="43.731380" lon="7.416790">
       <ele>24.61</ele>
       <time>2014-11-04T00:18:31Z</time>
      </trkpt>
      <trkpt lat="43.731530" lon="7.417170">
       <ele>23.59</ele>
       <time>2014-11-04T00:18:38Z</time>
      </trkpt>
      <trkpt lat="43.731490" lon="7.417210">
       <ele>22.49</ele>
       <time>2014-11-04T00:18:39Z</time>
      </trkpt>
      <trkpt lat="43.731470" lon="7.417280">
       <ele>21.36</ele>
       <time>2014-11-04T00:18:40Z</time>
      </trkpt>
      <trkpt lat="43.731490" lon="7.417370">
       <ele>20.91</ele>
       <time>2014-11-04T00:18:41Z</time>
      </trkpt>
      <trkpt lat="43.731540" lon="7.417420">
       <ele>21.36</ele>
       <time>2014-11-04T00:18:42Z</time>
      </trkpt>
      <trkpt lat="43.731590" lon="7.417420">
       <ele>22.31</ele>
       <time>2014-11-04T00:18:43Z</time>
      </trkpt>
      <trkpt lat="43.731640" lon="7.417380">
       <ele>23.64</ele>
       <time>2014-11-04T00:18:45Z</time>
      </trkpt>
      <trkpt lat="43.731770" lon="7.417660">
       <ele>24.14</ele>
       <time>2014-11-04T00:18:50Z</time>
      </trkpt>
      <trkpt lat="43.731910" lon="7.418060">
       <ele>25.14</ele>
       <time>2014-11-04T00:18:56Z</time>
      </trkpt>
      <trkpt lat="43.732080" lon="7.418440">
       <ele>27.07</ele>
       <time>2014-11-04T00:19:03Z</time>
      </trkpt>
      <trkpt lat="43.732300" lon="7.418810">
       <ele>29</ele>
       <time>2014-11-04T00:19:10Z</time>
      </trkpt>
      <trkpt lat="43.732410" lon="7.418880">
       <ele>28.01</ele>
       <time>2014-11-04T00:19:13Z</time>
      </trkpt>
      <trkpt lat="43.732410" lon="7.419000">
       <ele>27.93</ele>
       <time>2014-11-04T00:19:14Z</time>
      </trkpt>
      <trkpt lat="43.732440" lon="7.419040">
       <ele>27.41</ele>
       <time>2014-11-04T00:19:15Z</time>
      </trkpt>
      <trkpt lat="43.732490" lon="7.419050">
       <ele>26.58</ele>
       <time>2014-11-04T00:19:16Z</time>
      </trkpt>
      <trkpt lat="43.732480" lon="7.419250">
       <ele>25.88</ele>
       <time>2014-11-04T00:19:19Z</time>
      </trkpt>
      <trkpt lat="43.732410" lon="7.419520">
       <ele>26.24</ele>
       <time>2014-11-04T00:19:24Z</time>
      </trkpt>
      <trkpt lat="43.732420" lon="7.419620">
       <ele>25.4</ele>
       <time>2014-11-04T00:19:25Z</time>
      </trkpt>
      <trkpt lat="43.732410" lon="7.419740">
       <ele>25.25</ele>
       <time>2014-11-04T00:19:27Z</time>
      </trkpt>
      <trkpt lat="43.732390" lon="7.419810">
       <ele>25.7</ele>
       <time>2014-11-04T00:19:28Z</time>
      </trkpt>
      <trkpt lat="43.732310" lon="7.419960">
       <ele>28.67</ele>
       <time>2014-11-04T00:19:31Z</time>
      </trkpt>
      <trkpt lat="43.732050" lon="7.421530">
       <ele>32.83</ele>
       <time>2014-11-04T00:19:55Z</time>
      </trkpt>
      <trkpt lat="43.732050" lon="7.421850">
       <ele>31.9</ele>
       <time>2014-11-04T00:20:00Z</time>
      </trkpt>
      <trkpt lat="43.732120" lon="7.422150">
       <ele>28.96</ele>
       <time>2014-11-04T00:20:05Z</time>
      </trkpt>
      <trkpt lat="43.732160" lon="7.422220">
       <ele>27.32</ele>
       <time>2014-11-04T00:20:06Z</time>
      </trkpt>
      <trkpt lat="43.732290" lon="7.422330">
       <ele>21.75</ele>
       <time>2014-11-04T00:20:09Z</time>
      </trkpt>
      <trkpt lat="43.732440" lon="7.422410">
       <ele>15.03</ele>
       <time>2014-11-04T00:20:12Z</time>
      </trkpt>
      <trkpt lat="43.732580" lon="7.422410">
       <ele>11.8</ele>
       <time>2014-11-04T00:20:15Z</time>
      </trkpt>
      <trkpt lat="43.732650" lon="7.422380">
       <ele>11.3</ele>
       <time>2014-11-04T00:20:17Z</time>
      </trkpt>
      <trkpt lat="43.732730" lon="7.422320">
       <ele>10.92</ele>
       <time>2014-11-04T00:20:19Z</time>
      </trkpt>
      <trkpt lat="43.733090" lon="7.421940">
       <ele>10.18</ele>
       <time>2014-11-04T00:20:28Z</time>
      </trkpt>
      <trkpt lat="43.733370" lon="7.421790">
       <ele>9.01</ele>
       <time>2014-11-04T00:20:34Z</time>
      </trkpt>
      <trkpt lat="43.733980" lon="7.421530">
       <ele>9.82</ele>
       <time>2014-11-04T00:20:48Z</time>
      </trkpt>
      <trkpt lat="43.734450" lon="7.421370">
       <ele>9.96</ele>
       <time>2014-11-04T00:20:58Z</time>
      </trkpt>
      <trkpt lat="43.734640" lon="7.421330">
       <ele>9.6</ele>
       <time>2014-11-04T00:21:02Z</time>
      </trkpt>
      <trkpt lat="43.735220" lon="7.421240">
       <ele>9.64</ele>
       <time>2014-11-04T00:21:14Z</time>
      </trkpt>
      <trkpt lat="43.735840" lon="7.421200">
       <ele>11.47</ele>
       <time>2014-11-04T00:21:27Z</time>
      </trkpt>
      <trkpt lat="43.736040" lon="7.421220">
       <ele>14.41</ele>
       <time>2014-11-04T00:21:31Z</time>
      </trkpt>
      <trkpt lat="43.736280" lon="7.421290">
       <ele>17.06</ele>
       <time>2014-11-04T00:21:36Z</time>
      </trkpt>
      <trkpt lat="43.736490" lon="7.421400">
       <ele>17.9</ele>
       <time>2014-11-04T00:21:40Z</time>
      </trkpt>
      <trkpt lat="43.736720" lon="7.421550">
       <ele>17.74</ele>
       <time>2014-11-04T00:21:46Z</time>
      </trkpt>
      <trkpt lat="43.736800" lon="7.421630">
       <ele>17.55</ele>
       <time>2014-11-04T00:21:48Z</time>
      </trkpt>
      <trkpt lat="43.736940" lon="7.421830">
       <ele>18.16</ele>
       <time>2014-11-04T00:21:52Z</time>
      </trkpt>
      <trkpt lat="43.736970" lon="7.421910">
       <ele>18.2</ele>
       <time>2014-11-04T00:21:53Z</time>
      </trkpt>
      <trkpt lat="43.737030" lon="7.422170">
       <ele>17.74</ele>
       <time>2014-11-04T00:21:57Z</time>
      </trkpt>
      <trkpt lat="43.737080" lon="7.422710">
       <ele>18.26</ele>
       <time>2014-11-04T00:22:06Z</time>
      </trkpt>
      <trkpt lat="43.737180" lon="7.423260">
       <ele>25.52</ele>
       <time>2014-11-04T00:22:14Z</time>
      </trkpt>
      <trkpt lat="43.737200" lon="7.423470">
       <ele>26.94</ele>
       <time>2014-11-04T00:22:17Z</time>
      </trkpt>
      <trkpt lat="43.737350" lon="7.424140">
       <ele>31.1</ele>
       <time>2014-11-04T00:22:28Z</time>
      </trkpt>
      <trkpt lat="43.737420" lon="7.424870">
       <ele>28.73</ele>
       <time>2014-11-04T00:22:39Z</time>
      </trkpt>
      <trkpt lat="43.737670" lon="7.425620">
       <ele>32.33</ele>
       <time>2014-11-04T00:22:51Z</time>
      </trkpt>
      <trkpt lat="43.737700" lon="7.425680">
       <ele>33.08</ele>
       <time>2014-11-04T00:22:52Z</time>
      </trkpt>
      <trkpt lat="43.737800" lon="7.426060">
       <ele>35.7</ele>
       <time>2014-11-04T00:22:58Z</time>
      </trkpt>
      <trkpt lat="43.737860" lon="7.426490">
       <ele>37.44</ele>
       <time>2014-11-04T00:23:05Z</time>
      </trkpt>
      <trkpt lat="43.737920" lon="7.426680">
       <ele>38.96</ele>
       <time>2014-11-04T00:23:08Z</time>
      </trkpt>
      <trkpt lat="43.738060" lon="7.426890">
       <ele>41.87</ele>
       <time>2014-11-04T00:23:12Z</time>
      </trkpt>
      <trkpt lat="43.738110" lon="7.426930">
       <ele>43.19</ele>
       <time>2014-11-04T00:23:13Z</time>
      </trkpt>
      <trkpt lat="43.738190" lon="7.426960">
       <ele>45.58</ele>
       <time>2014-11-04T00:23:15Z</time>
      </trkpt>
      <trkpt lat="43.738250" lon="7.426960">
       <ele>47.56</ele>
       <time>2014-11-04T00:23:16Z</time>
      </trkpt>
      <trkpt lat="43.738340" lon="7.426930">
       <ele>50.46</ele>
       <time>2014-11-04T00:23:18Z</time>
      </trkpt>
      <trkpt lat="43.738450" lon="7.426840">
       <ele>51.82</ele>
       <time>2014-11-04T00:23:21Z</time>
      </trkpt>
      <trkpt lat="43.738900" lon="7.425990">
       <ele>57.96</ele>
       <time>2014-11-04T00:23:37Z</time>
      </trkpt>
      <trkpt lat="43.739030" lon="7.425810">
       <ele>59.28</ele>
       <time>2014-11-04T00:23:41Z</time>
      </trkpt>
      <trkpt lat="43.739100" lon="7.425760">
       <ele>59.95</ele>
       <time>2014-11-04T00:23:42Z</time>
      </trkpt>
      <trkpt lat="43.739180" lon="7.425760">
       <ele>60.29</ele>
       <time>2014-11-04T00:23:44Z</time>
      </trkpt>
      <trkpt lat="43.739300" lon="7.425800">
       <ele>59.55</ele>
       <time>2014-11-04T00:23:46Z</time>
      </trkpt>
      <trkpt lat="43.739400" lon="7.425800">
       <ele>59.1</ele>
       <time>2014-11-04T00:23:48Z</time>
      </trkpt>
      <trkpt lat="43.739490" lon="7.425730">
       <ele>59.18</ele>
       <time>2014-11-04T00:23:51Z</time>
      </trkpt>
      <trkpt lat="43.739640" lon="7.425320">
       <ele>61.94</ele>
       <time>2014-11-04T00:23:57Z</time>
      </trkpt>
      <trkpt lat="43.739700" lon="7.425230">
       <ele>62.65</ele>
       <time>2014-11-04T00:23:59Z</time>
      </trkpt>
      <trkpt lat="43.739770" lon="7.425210">
       <ele>62.8</ele>
       <time>2014-11-04T00:24:01Z</time>
      </trkpt>
      <trkpt lat="43.740270" lon="7.425530">
       <ele>62.32</ele>
       <time>2014-11-04T00:24:12Z</time>
      </trkpt>
      <trkpt lat="43.740610" lon="7.425700">
       <ele>65.38</ele>
       <time>2014-11-04T00:24:20Z</time>
      </trkpt>
      <trkpt lat="43.740690" lon="7.425750">
       <ele>66.23</ele>
       <time>2014-11-04T00:24:22Z</time>
      </trkpt>
      <trkpt lat="43.740990" lon="7.426010">
       <ele>68.28</ele>
       <time>2014-11-04T00:24:29Z</time>
      </trkpt>
      <trkpt lat="43.741160" lon="7.426210">
       <ele>68.73</ele>
       <time>2014-11-04T00:24:34Z</time>
      </trkpt>
      <trkpt lat="43.741610" lon="7.426820">
       <ele>69.25</ele>
       <time>2014-11-04T00:24:47Z</time>
      </trkpt>
      <trkpt lat="43.742220" lon="7.427740">
       <ele>64.3</ele>
       <time>2014-11-04T00:25:05Z</time>
      </trkpt>
      <trkpt lat="43.742350" lon="7.427890">
       <ele>63.69</ele>
       <time>2014-11-04T00:25:09Z</time>
      </trkpt>
      <trkpt lat="43.742470" lon="7.427980">
       <ele>63.75</ele>
       <time>2014-11-04T00:25:12Z</time>
      </trkpt>
      <trkpt lat="43.743220" lon="7.428330">
       <ele>65.97</ele>
       <time>2014-11-04T00:25:28Z</time>
      </trkpt>
      <trkpt lat="43.744060" lon="7.428840">
       <ele>66.68</ele>
       <time>2014-11-04T00:25:47Z</time>
      </trkpt>
      <trkpt lat="43.744910" lon="7.429220">
       <ele>64.87</ele>
       <time>2014-11-04T00:26:06Z</time>
      </trkpt>
      <trkpt lat="43.745520" lon="7.429520">
       <ele>66.06</ele>
       <time>2014-11-04T00:26:19Z</time>
      </trkpt>
      <trkpt lat="43.745620" lon="7.429640">
       <ele>65.72</ele>
       <time>2014-11-04T00:26:22Z</time>
      </trkpt>
      <trkpt lat="43.745910" lon="7.430090">
       <ele>64.68</ele>
       <time>2014-11-04T00:26:31Z</time>
      </trkpt>
      <trkpt lat="43.745960" lon="7.430140">
       <ele>64.67</ele>
       <time>2014-11-04T00:26:32Z</time>
      </trkpt>
      <trkpt lat="43.746160" lon="7.430250">
       <ele>66.89</ele>
       <time>2014-11-04T00:26:36Z</time>
      </trkpt>
      <trkpt lat="43.746240" lon="7.430320">
       <ele>67.16</ele>
       <time>2014-11-04T00:26:38Z</time>
      </trkpt>
      <trkpt lat="43.746470" lon="7.430660">
       <ele>64.45</ele>
       <time>2014-11-04T00:26:45Z</time>
      </trkpt>
      <trkpt lat="43.746740" lon="7.431110">
       <ele>60.91</ele>
       <time>2014-11-04T00:26:54Z</time>
      </trkpt>
      <trkpt lat="43.747080" lon="7.431580">
       <ele>62.1</ele>
       <time>2014-11-04T00:27:04Z</time>
      </trkpt>
      <trkpt lat="43.747200" lon="7.431700">
       <ele>63.62</ele>
       <time>2014-11-04T00:27:07Z</time>
      </trkpt>
      <trkpt lat="43.747270" lon="7.431740">
       <ele>64.55</ele>
       <time>2014-11-04T00:27:09Z</time>
      </trkpt>
      <trkpt lat="43.747370" lon="7.431750">
       <ele>67.43</ele>
       <time>2014-11-04T00:27:11Z</time>
      </trkpt>
      <trkpt lat="43.747570" lon="7.431730">
       <ele>73.38</ele>
       <time>2014-11-04T00:27:15Z</time>
      </trkpt>
      <trkpt lat="43.747660" lon="7.431760">
       <ele>74.2</ele>
       <time>2014-11-04T00:27:17Z</time>
      </trkpt>
      <trkpt lat="43.747720" lon="7.431800">
       <ele>74.05</ele>
       <time>2014-11-04T00:27:18Z</time>
      </trkpt>
      <trkpt lat="43.747780" lon="7.431880">
       <ele>72.72</ele>
       <time>2014-11-04T00:27:20Z</time>
      </trkpt>
      <trkpt lat="43.747810" lon="7.431970">
       <ele>70.49</ele>
       <time>2014-11-04T00:27:22Z</time>
      </trkpt>
      <trkpt lat="43.747840" lon="7.432130">
       <ele>66.09</ele>
       <time>2014-11-04T00:27:24Z</time>
      </trkpt>
      <trkpt lat="43.747820" lon="7.432160">
       <ele>64.79</ele>
       <time>2014-11-04T00:27:25Z</time>
      </trkpt>
      <trkpt lat="43.747820" lon="7.432210">
       <ele>63.23</ele>
       <time>2014-11-04T00:27:25Z</time>
      </trkpt>
      <trkpt lat="43.747840" lon="7.432250">
       <ele>62.34</ele>
       <time>2014-11-04T00:27:26Z</time>
      </trkpt>
      <trkpt lat="43.747870" lon="7.432260">
       <ele>62.62</ele>
       <time>2014-11-04T00:27:27Z</time>
      </trkpt>
      <trkpt lat="43.747880" lon="7.432480">
       <ele>55.91</ele>
       <time>2014-11-04T00:27:30Z</time>
      </trkpt>
      <trkpt lat="43.747910" lon="7.432630">
       <ele>55.24</ele>
       <time>2014-11-04T00:27:32Z</time>
      </trkpt>
      <trkpt lat="43.748000" lon="7.432880">
       <ele>55.89</ele>
       <time>2014-11-04T00:27:37Z</time>
      </trkpt>
      <trkpt lat="43.748110" lon="7.433080">
       <ele>57.29</ele>
       <time>2014-11-04T00:27:40Z</time>
      </trkpt>
      <trkpt lat="43.748520" lon="7.433610">
       <ele>61.4</ele>
       <time>2014-11-04T00:27:52Z</time>
      </trkpt>
      <trkpt lat="43.748890" lon="7.434240">
       <ele>56.53</ele>
       <time>2014-11-04T00:28:04Z</time>
      </trkpt>
      <trkpt lat="43.748990" lon="7.434460">
       <ele>54.2</ele>
       <time>2014-11-04T00:28:08Z</time>
      </trkpt>
      <trkpt lat="43.749040" lon="7.434660">
       <ele>52.29</ele>
       <time>2014-11-04T00:28:11Z</time>
      </trkpt>
      <trkpt lat="43.749060" lon="7.434870">
       <ele>50.15</ele>
       <time>2014-11-04T00:28:14Z</time>
      </trkpt>
      <trkpt lat="43.749070" lon="7.435720">
       <ele>42.69</ele>
       <time>2014-11-04T00:28:27Z</time>
      </trkpt>
      <trkpt lat="43.749090" lon="7.435890">
       <ele>41.78</ele>
       <time>2014-11-04T00:28:30Z</time>
      </trkpt>
      <trkpt lat="43.749150" lon="7.436120">
       <ele>41.08</ele>
       <time>2014-11-04T00:28:33Z</time>
      </trkpt>
      <trkpt lat="43.749260" lon="7.436350">
       <ele>41.6</ele>
       <time>2014-11-04T00:28:37Z</time>
      </trkpt>
      <trkpt lat="43.749330" lon="7.436450">
       <ele>42.46</ele>
       <time>2014-11-04T00:28:40Z</time>
      </trkpt>
      <trkpt lat="43.749670" lon="7.436770">
       <ele>48.48</ele>
       <time>2014-11-04T00:28:48Z</time>
      </trkpt>
      <trkpt lat="43.749760" lon="7.436920">
       <ele>48.92</ele>
       <time>2014-11-04T00:28:51Z</time>
      </trkpt>
      <trkpt lat="43.749960" lon="7.437140">
       <ele>51.5</ele>
       <time>2014-11-04T00:28:56Z</time>
      </trkpt>
      <trkpt lat="43.750720" lon="7.437860">
       <ele>55.52</ele>
       <time>2014-11-04T00:29:15Z</time>
      </trkpt>
      <trkpt lat="43.750950" lon="7.438030">
       <ele>54.4</ele>
       <time>2014-11-04T00:29:21Z</time>
      </trkpt>
      <trkpt lat="43.751270" lon="7.438230">
       <ele>52.67</ele>
       <time>2014-11-04T00:29:28Z</time>
      </trkpt>
      <trkpt lat="43.751370" lon="7.438260">
       <ele>53.07</ele>
       <time>2014-11-04T00:29:30Z</time>
      </trkpt>
      <trkpt lat="43.751640" lon="7.438420">
       <ele>54.58</ele>
       <time>2014-11-04T00:29:36Z</time>
      </trkpt>
      <trkpt lat="43.751850" lon="7.438590">
       <ele>58.1</ele>
       <time>2014-11-04T00:29:41Z</time>
      </trkpt>
      <trkpt lat="43.752060" lon="7.439010">
       <ele>60.29</ele>
       <time>2014-11-04T00:29:49Z</time>
      </trkpt>
      <trkpt lat="43.752120" lon="7.439070">
       <ele>60.97</ele>
       <time>2014-11-04T00:29:51Z</time>
      </trkpt>
      <trkpt lat="43.752750" lon="7.439550">
       <ele>68.29</ele>
       <time>2014-11-04T00:30:05Z</time>
      </trkpt>
      <trkpt lat="43.753120" lon="7.440330">
       <ele>69.15</ele>
       <time>2014-11-04T00:30:19Z</time>
      </trkpt>
      <trkpt lat="43.753220" lon="7.440760">
       <ele>66.84</ele>
       <time>2014-11-04T00:30:26Z</time>
      </trkpt>
      <trkpt lat="43.753400" lon="7.442300">
       <ele>62.66</ele>
       <time>2014-11-04T00:30:50Z</time>
      </trkpt>
      <trkpt lat="43.753400" lon="7.442650">
       <ele>61.27</ele>
       <time>2014-11-04T00:30:55Z</time>
      </trkpt>
      <trkpt lat="43.753250" lon="7.444510">
       <ele>58.94</ele>
       <time>2014-11-04T00:31:23Z</time>
      </trkpt>
      <trkpt lat="43.753180" lon="7.445340">
       <ele>59.07</ele>
       <time>2014-11-04T00:31:35Z</time>
      </trkpt>
      <trkpt lat="43.753200" lon="7.445480">
       <ele>60.11</ele>
       <time>2014-11-04T00:31:37Z</time>
      </trkpt>
      <trkpt lat="43.753280" lon="7.445690">
       <ele>63.71</ele>
       <time>2014-11-04T00:31:41Z</time>
      </trkpt>
      <trkpt lat="43.753620" lon="7.446310">
       <ele>64.8</ele>
       <time>2014-11-04T00:31:53Z</time>
      </trkpt>
      <trkpt lat="43.753680" lon="7.446390">
       <ele>65.12</ele>
       <time>2014-11-04T00:31:54Z</time>
      </trkpt>
      <trkpt lat="43.753790" lon="7.446500">
       <ele>66.9</ele>
       <time>2014-11-04T00:31:57Z</time>
      </trkpt>
      <trkpt lat="43.753890" lon="7.446530">
       <ele>70.98</ele>
       <time>2014-11-04T00:31:59Z</time>
      </trkpt>
      <trkpt lat="43.754060" lon="7.446530">
       <ele>79.77</ele>
       <time>2014-11-04T00:32:03Z</time>
      </trkpt>
      <trkpt lat="43.754150" lon="7.446560">
       <ele>83.38</ele>
       <time>2014-11-04T00:32:05Z</time>
      </trkpt>
      <trkpt lat="43.754290" lon="7.446680">
       <ele>83.13</ele>
       <time>2014-11-04T00:32:08Z</time>
      </trkpt>
      <trkpt lat="43.754340" lon="7.446760">
       <ele>81.02</ele>
       <time>2014-11-04T00:32:10Z</time>
      </trkpt>
      <trkpt lat="43.754520" lon="7.447250">
       <ele>65.4</ele>
       <time>2014-11-04T00:32:18Z</time>
      </trkpt>
      <trkpt lat="43.754620" lon="7.447450">
       <ele>60.5</ele>
       <time>2014-11-04T00:32:22Z</time>
      </trkpt>
      <trkpt lat="43.755460" lon="7.448040">
       <ele>70.44</ele>
       <time>2014-11-04T00:32:41Z</time>
      </trkpt>
      <trkpt lat="43.755640" lon="7.448340">
       <ele>67.05</ele>
       <time>2014-11-04T00:32:47Z</time>
      </trkpt>
      <trkpt lat="43.755830" lon="7.448720">
       <ele>64.11</ele>
       <time>2014-11-04T00:32:54Z</time>
      </trkpt>
      <trkpt lat="43.755900" lon="7.448830">
       <ele>62.89</ele>
       <time>2014-11-04T00:32:56Z</time>
      </trkpt>
      <trkpt lat="43.756080" lon="7.449020">
       <ele>61.27</ele>
       <time>2014-11-04T00:33:01Z</time>
      </trkpt>
      <trkpt lat="43.756200" lon="7.449060">
       <ele>62.28</ele>
       <time>2014-11-04T00:33:03Z</time>
      </trkpt>
      <trkpt lat="43.756280" lon="7.449060">
       <ele>63.72</ele>
       <time>2014-11-04T00:33:05Z</time>
      </trkpt>
      <trkpt lat="43.756420" lon="7.449020">
       <ele>67.55</ele>
       <time>2014-11-04T00:33:08Z</time>
      </trkpt>
      <trkpt lat="43.756570" lon="7.449020">
       <ele>70.3</ele>
       <time>2014-11-04T00:33:11Z</time>
      </trkpt>
      <trkpt lat="43.756700" lon="7.449040">
       <ele>72.3</ele>
       <time>2014-11-04T00:33:14Z</time>
      </trkpt>
      <trkpt lat="43.756860" lon="7.449100">
       <ele>74.66</ele>
       <time>2014-11-04T00:33:17Z</time>
      </trkpt>
      <trkpt lat="43.756970" lon="7.449160">
       <ele>75.59</ele>
       <time>2014-11-04T00:33:20Z</time>
      </trkpt>
      <trkpt lat="43.757110" lon="7.449290">
       <ele>75.6</ele>
       <time>2014-11-04T00:33:23Z</time>
      </trkpt>
      <trkpt lat="43.757420" lon="7.449660">
       <ele>71.61</ele>
       <time>2014-11-04T00:33:32Z</time>
      </trkpt>
      <trkpt lat="43.757640" lon="7.449830">
       <ele>72.68</ele>
       <time>2014-11-04T00:33:37Z</time>
      </trkpt>
      <trkpt lat="43.758010" lon="7.450080">
       <ele>76.92</ele>
       <time>2014-11-04T00:33:45Z</time>
      </trkpt>
      <trkpt lat="43.758180" lon="7.450220">
       <ele>77.58</ele>
       <time>2014-11-04T00:33:50Z</time>
      </trkpt>
      <trkpt lat="43.758970" lon="7.450940">
       <ele>79.3</ele>
       <time>2014-11-04T00:34:09Z</time>
      </trkpt>
      <trkpt lat="43.760270" lon="7.452440">
       <ele>82.35</ele>
       <time>2014-11-04T00:34:44Z</time>
      </trkpt>
      <trkpt lat="43.760280" lon="7.452490">
       <ele>81.43</ele>
       <time>2014-11-04T00:34:45Z</time>
      </trkpt>
      <trkpt lat="43.760310" lon="7.452510">
       <ele>82.28</ele>
       <time>2014-11-04T00:34:46Z</time>
      </trkpt>
      <trkpt lat="43.760350" lon="7.452650">
       <ele>80.07</ele>
       <time>2014-11-04T00:34:48Z</time>
      </trkpt>
      <trkpt lat="43.760590" lon="7.453140">
       <ele>75.35</ele>
       <time>2014-11-04T00:34:57Z</time>
      </trkpt>
      <trkpt lat="43.760760" lon="7.453540">
       <ele>71.24</ele>
       <time>2014-11-04T00:35:04Z</time>
      </trkpt>
      <trkpt lat="43.760800" lon="7.453710">
       <ele>69.13</ele>
       <time>2014-11-04T00:35:06Z</time>
      </trkpt>
      <trkpt lat="43.760880" lon="7.453930">
       <ele>67.02</ele>
       <time>2014-11-04T00:35:10Z</time>
      </trkpt>
      <trkpt lat="43.761010" lon="7.454210">
       <ele>63.42</ele>
       <time>2014-11-04T00:35:15Z</time>
      </trkpt>
      <trkpt lat="43.761080" lon="7.454310">
       <ele>62.6</ele>
       <time>2014-11-04T00:35:17Z</time>
      </trkpt>
      <trkpt lat="43.761340" lon="7.454480">
       <ele>64.06</ele>
       <time>2014-11-04T00:35:23Z</time>
      </trkpt>
      <trkpt lat="43.761420" lon="7.454500">
       <ele>65.25</ele>
       <time>2014-11-04T00:35:25Z</time>
      </trkpt>
      <trkpt lat="43.761740" lon="7.454520">
       <ele>70.91</ele>
       <time>2014-11-04T00:35:32Z</time>
      </trkpt>
      <trkpt lat="43.761930" lon="7.454550">
       <ele>73.26</ele>
       <time>2014-11-04T00:35:36Z</time>
      </trkpt>
      <trkpt lat="43.761970" lon="7.454580">
       <ele>73.47</ele>
       <time>2014-11-04T00:35:36Z</time>
      </trkpt>
      <trkpt lat="43.762000" lon="7.454630">
       <ele>73.26</ele>
       <time>2014-11-04T00:35:37Z</time>
      </trkpt>
      <trkpt lat="43.762020" lon="7.454750">
       <ele>71.93</ele>
       <time>2014-11-04T00:35:39Z</time>
      </trkpt>
      <trkpt lat="43.762010" lon="7.454830">
       <ele>70.59</ele>
       <time>2014-11-04T00:35:40Z</time>
      </trkpt>
      <trkpt lat="43.761940" lon="7.455000">
       <ele>66.56</ele>
       <time>2014-11-04T00:35:43Z</time>
      </trkpt>
      <trkpt lat="43.761840" lon="7.455100">
       <ele>65.81</ele>
       <time>2014-11-04T00:35:46Z</time>
      </trkpt>
      <trkpt lat="43.761510" lon="7.455310">
       <ele>59.31</ele>
       <time>2014-11-04T00:35:53Z</time>
      </trkpt>
      <trkpt lat="43.761350" lon="7.455460">
       <ele>56.21</ele>
       <time>2014-11-04T00:35:58Z</time>
      </trkpt>
      <trkpt lat="43.761290" lon="7.455540">
       <ele>55.1</ele>
       <time>2014-11-04T00:35:59Z</time>
      </trkpt>
      <trkpt lat="43.761160" lon="7.455880">
       <ele>52.91</ele>
       <time>2014-11-04T00:36:05Z</time>
      </trkpt>
      <trkpt lat="43.761130" lon="7.456050">
       <ele>52.77</ele>
       <time>2014-11-04T00:36:08Z</time>
      </trkpt>
      <trkpt lat="43.761130" lon="7.456200">
       <ele>53.54</ele>
       <time>2014-11-04T00:36:10Z</time>
      </trkpt>
      <trkpt lat="43.761250" lon="7.456830">
       <ele>59.91</ele>
       <time>2014-11-04T00:36:20Z</time>
      </trkpt>
      <trkpt lat="43.761410" lon="7.457480">
       <ele>59.67</ele>
       <time>2014-11-04T00:36:30Z</time>
      </trkpt>
      <trkpt lat="43.761470" lon="7.457650">
       <ele>60.94</ele>
       <time>2014-11-04T00:36:33Z</time>
      </trkpt>
      <trkpt lat="43.761540" lon="7.457740">
       <ele>62.96</ele>
       <time>2014-11-04T00:36:35Z</time>
      </trkpt>
      <trkpt lat="43.761640" lon="7.457830">
       <ele>66.02</ele>
       <time>2014-11-04T00:36:37Z</time>
      </trkpt>
      <trkpt lat="43.761710" lon="7.457970">
       <ele>68.02</ele>
       <time>2014-11-04T00:36:40Z</time>
      </trkpt>
      <trkpt lat="43.761840" lon="7.459130">
       <ele>64.54</ele>
       <time>2014-11-04T00:36:57Z</time>
      </trkpt>
      <trkpt lat="43.762120" lon="7.460090">
       <ele>72.17</ele>
       <time>2014-11-04T00:37:13Z</time>
      </trkpt>
      <trkpt lat="43.762180" lon="7.460250">
       <ele>72.97</ele>
       <time>2014-11-04T00:37:16Z</time>
      </trkpt>
      <trkpt lat="43.762230" lon="7.460420">
       <ele>72.79</ele>
       <time>2014-11-04T00:37:18Z</time>
      </trkpt>
      <trkpt lat="43.762330" lon="7.460620">
       <ele>73.96</ele>
       <time>2014-11-04T00:37:22Z</time>
      </trkpt>
      <trkpt lat="43.762540" lon="7.460780">
       <ele>80.85</ele>
       <time>2014-11-04T00:37:27Z</time>
      </trkpt>
      <trkpt lat="43.762620" lon="7.460880">
       <ele>86.03</ele>
       <time>2014-11-04T00:37:29Z</time>
      </trkpt>
      <trkpt lat="43.762620" lon="7.461070">
       <ele>87.34</ele>
       <time>2014-11-04T00:37:32Z</time>
      </trkpt>
      <trkpt lat="43.762500" lon="7.461360">
       <ele>82.1</ele>
       <time>2014-11-04T00:37:37Z</time>
      </trkpt>
      <trkpt lat="43.762500" lon="7.461480">
       <ele>83.25</ele>
       <time>2014-11-04T00:37:39Z</time>
      </trkpt>
      <trkpt lat="43.762550" lon="7.461640">
       <ele>87.49</ele>
       <time>2014-11-04T00:37:41Z</time>
      </trkpt>
      <trkpt lat="43.762560" lon="7.461740">
       <ele>89.52</ele>
       <time>2014-11-04T00:37:43Z</time>
      </trkpt>
      <trkpt lat="43.762550" lon="7.461890">
       <ele>91.34</ele>
       <time>2014-11-04T00:37:45Z</time>
      </trkpt>
      <trkpt lat="43.762490" lon="7.462000">
       <ele>90.12</ele>
       <time>2014-11-04T00:37:47Z</time>
      </trkpt>
      <trkpt lat="43.762080" lon="7.462590">
       <ele>84.78</ele>
       <time>2014-11-04T00:37:59Z</time>
      </trkpt>
      <trkpt lat="43.762100" lon="7.462670">
       <ele>88.09</ele>
       <time>2014-11-04T00:38:01Z</time>
      </trkpt>
      <trkpt lat="43.761470" lon="7.463450">
       <ele>87.48</ele>
       <time>2014-11-04T00:38:18Z</time>
      </trkpt>
      <trkpt lat="43.761080" lon="7.464120">
       <ele>90.68</ele>
       <time>2014-11-04T00:38:31Z</time>
      </trkpt>
      <trkpt lat="43.760820" lon="7.464520">
       <ele>92.68</ele>
       <time>2014-11-04T00:38:39Z</time>
      </trkpt>
      <trkpt lat="43.760750" lon="7.464550">
       <ele>91.3</ele>
       <time>2014-11-04T00:38:41Z</time>
      </trkpt>
      <trkpt lat="43.760500" lon="7.464740">
       <ele>89.36</ele>
       <time>2014-11-04T00:38:47Z</time>
      </trkpt>
      <trkpt lat="43.760380" lon="7.464860">
       <ele>89.72</ele>
       <time>2014-11-04T00:38:50Z</time>
      </trkpt>
      <trkpt lat="43.759900" lon="7.465640">
       <ele>94.1</ele>
       <time>2014-11-04T00:39:05Z</time>
      </trkpt>
      <trkpt lat="43.759780" lon="7.465880">
       <ele>95.6</ele>
       <time>2014-11-04T00:39:09Z</time>
      </trkpt>
      <trkpt lat="43.759470" lon="7.466380">
       <ele>95.83</ele>
       <time>2014-11-04T00:39:19Z</time>
      </trkpt>
      <trkpt lat="43.758960" lon="7.467340">
       <ele>97.65</ele>
       <time>2014-11-04T00:39:37Z</time>
      </trkpt>
      <trkpt lat="43.758620" lon="7.468100">
       <ele>100.14</ele>
       <time>2014-11-04T00:39:51Z</time>
      </trkpt>
      <trkpt lat="43.758520" lon="7.468350">
       <ele>100.84</ele>
       <time>2014-11-04T00:39:55Z</time>
      </trkpt>
      <trkpt lat="43.758350" lon="7.468880">
       <ele>99.91</ele>
       <time>2014-11-04T00:40:03Z</time>
      </trkpt>
      <trkpt lat="43.758310" lon="7.469030">
       <ele>99.9</ele>
       <time>2014-11-04T00:40:06Z</time>
      </trkpt>
      <trkpt lat="43.758310" lon="7.469250">
       <ele>101.29</ele>
       <time>2014-11-04T00:40:09Z</time>
      </trkpt>
      <trkpt lat="43.758330" lon="7.469380">
       <ele>101.63</ele>
       <time>2014-11-04T00:40:11Z</time>
      </trkpt>
      <trkpt lat="43.758370" lon="7.469500">
       <ele>102.07</ele>
       <time>2014-11-04T00:40:13Z</time>
      </trkpt>
      <trkpt lat="43.758520" lon="7.469780">
       <ele>103.59</ele>
       <time>2014-11-04T00:40:18Z</time>
      </trkpt>
      <trkpt lat="43.758640" lon="7.469960">
       <ele>104.05</ele>
       <time>2014-11-04T00:40:22Z</time>
      </trkpt>
      <trkpt lat="43.758790" lon="7.470140">
       <ele>103.82</ele>
       <time>2014-11-04T00:40:26Z</time>
      </trkpt>
      <trkpt lat="43.758830" lon="7.470170">
       <ele>104.02</ele>
       <time>2014-11-04T00:40:27Z</time>
      </trkpt>
      <trkpt lat="43.758920" lon="7.470200">
       <ele>104.98</ele>
       <time>2014-11-04T00:40:29Z</time>
      </trkpt>
      <trkpt lat="43.759460" lon="7.470600">
       <ele>102.83</ele>
       <time>2014-11-04T00:40:42Z</time>
      </trkpt>
      <trkpt lat="43.759730" lon="7.470720">
       <ele>101.49</ele>
       <time>2014-11-04T00:40:48Z</time>
      </trkpt>
      <trkpt lat="43.759850" lon="7.470750">
       <ele>101.31</ele>
       <time>2014-11-04T00:40:50Z</time>
      </trkpt>
      <trkpt lat="43.760010" lon="7.470820">
       <ele>100.29</ele>
       <time>2014-11-04T00:40:54Z</time>
      </trkpt>
      <trkpt lat="43.760590" lon="7.470850">
       <ele>99.04</ele>
       <time>2014-11-04T00:41:06Z</time>
      </trkpt>
      <trkpt lat="43.760800" lon="7.470880">
       <ele>98.32</ele>
       <time>2014-11-04T00:41:10Z</time>
      </trkpt>
      <trkpt lat="43.761200" lon="7.471020">
       <ele>93.1</ele>
       <time>2014-11-04T00:41:19Z</time>
      </trkpt>
      <trkpt lat="43.761380" lon="7.471050">
       <ele>91.21</ele>
       <time>2014-11-04T00:41:22Z</time>
      </trkpt>
      <trkpt lat="43.761540" lon="7.470990">
       <ele>90.78</ele>
       <time>2014-11-04T00:41:26Z</time>
      </trkpt>
      <trkpt lat="43.761980" lon="7.470770">
       <ele>91.78</ele>
       <time>2014-11-04T00:41:35Z</time>
      </trkpt>
      <trkpt lat="43.762150" lon="7.470720">
       <ele>91.79</ele>
       <time>2014-11-04T00:41:39Z</time>
      </trkpt>
      <trkpt lat="43.762200" lon="7.470720">
       <ele>91.59</ele>
       <time>2014-11-04T00:41:40Z</time>
      </trkpt>
      <trkpt lat="43.762300" lon="7.470730">
       <ele>91.06</ele>
       <time>2014-11-04T00:41:42Z</time>
      </trkpt>
      <trkpt lat="43.762350" lon="7.470760">
       <ele>90.48</ele>
       <time>2014-11-04T00:41:43Z</time>
      </trkpt>
      <trkpt lat="43.762440" lon="7.470850">
       <ele>89.11</ele>
       <time>2014-11-04T00:41:46Z</time>
      </trkpt>
      <trkpt lat="43.762510" lon="7.470960">
       <ele>88.43</ele>
       <time>2014-11-04T00:41:48Z</time>
      </trkpt>
      <trkpt lat="43.762560" lon="7.471190">
       <ele>88.21</ele>
       <time>2014-11-04T00:41:51Z</time>
      </trkpt>
      <trkpt lat="43.762570" lon="7.471520">
       <ele>86.33</ele>
       <time>2014-11-04T00:41:56Z</time>
      </trkpt>
      <trkpt lat="43.762390" lon="7.472540">
       <ele>80.43</ele>
       <time>2014-11-04T00:42:12Z</time>
      </trkpt>
      <trkpt lat="43.762260" lon="7.472860">
       <ele>79.12</ele>
       <time>2014-11-04T00:42:18Z</time>
      </trkpt>
      <trkpt lat="43.762190" lon="7.472970">
       <ele>77.99</ele>
       <time>2014-11-04T00:42:20Z</time>
      </trkpt>
      <trkpt lat="43.762030" lon="7.473150">
       <ele>74.74</ele>
       <time>2014-11-04T00:42:24Z</time>
      </trkpt>
      <trkpt lat="43.761810" lon="7.473250">
       <ele>69.63</ele>
       <time>2014-11-04T00:42:29Z</time>
      </trkpt>
      <trkpt lat="43.761660" lon="7.473350">
       <ele>66.1</ele>
       <time>2014-11-04T00:42:32Z</time>
      </trkpt>
      <trkpt lat="43.761560" lon="7.473500">
       <ele>66.93</ele>
       <time>2014-11-04T00:42:35Z</time>
      </trkpt>
      <trkpt lat="43.761480" lon="7.473680">
       <ele>67.16</ele>
       <time>2014-11-04T00:42:39Z</time>
      </trkpt>
      <trkpt lat="43.761410" lon="7.474060">
       <ele>66.69</ele>
       <time>2014-11-04T00:42:44Z</time>
      </trkpt>
      <trkpt lat="43.761340" lon="7.474300">
       <ele>66.63</ele>
       <time>2014-11-04T00:42:48Z</time>
      </trkpt>
      <trkpt lat="43.760910" lon="7.474900">
       <ele>63.77</ele>
       <time>2014-11-04T00:43:01Z</time>
      </trkpt>
      <trkpt lat="43.760330" lon="7.475850">
       <ele>59.44</ele>
       <time>2014-11-04T00:43:20Z</time>
      </trkpt>
      <trkpt lat="43.760240" lon="7.475940">
       <ele>57.87</ele>
       <time>2014-11-04T00:43:22Z</time>
      </trkpt>
      <trkpt lat="43.760010" lon="7.476100">
       <ele>54.1</ele>
       <time>2014-11-04T00:43:27Z</time>
      </trkpt>
      <trkpt lat="43.759900" lon="7.476140">
       <ele>52.34</ele>
       <time>2014-11-04T00:43:30Z</time>
      </trkpt>
      <trkpt lat="43.759780" lon="7.476220">
       <ele>50.47</ele>
       <time>2014-11-04T00:43:32Z</time>
      </trkpt>
      <trkpt lat="43.759630" lon="7.476360">
       <ele>47.44</ele>
       <time>2014-11-04T00:43:36Z</time>
      </trkpt>
      <trkpt lat="43.759480" lon="7.476610">
       <ele>43.25</ele>
       <time>2014-11-04T00:43:41Z</time>
      </trkpt>
      <trkpt lat="43.759440" lon="7.476850">
       <ele>39.7</ele>
       <time>2014-11-04T00:43:45Z</time>
      </trkpt>
      <trkpt lat="43.759460" lon="7.476960">
       <ele>38.98</ele>
       <time>2014-11-04T00:43:46Z</time>
      </trkpt>
      <trkpt lat="43.759510" lon="7.477070">
       <ele>39.17</ele>
       <time>2014-11-04T00:43:48Z</time>
      </trkpt>
      <trkpt lat="43.759570" lon="7.477160">
       <ele>39.91</ele>
       <time>2014-11-04T00:43:50Z</time>
      </trkpt>
      <trkpt lat="43.759660" lon="7.477250">
       <ele>41.4</ele>
       <time>2014-11-04T00:43:52Z</time>
      </trkpt>
      <trkpt lat="43.759730" lon="7.477290">
       <ele>43.04</ele>
       <time>2014-11-04T00:43:54Z</time>
      </trkpt>
      <trkpt lat="43.759910" lon="7.477480">
       <ele>45.71</ele>
       <time>2014-11-04T00:43:59Z</time>
      </trkpt>
      <trkpt lat="43.760870" lon="7.478290">
       <ele>40.19</ele>
       <time>2014-11-04T00:44:22Z</time>
      </trkpt>
      <trkpt lat="43.761150" lon="7.478480">
       <ele>36.17</ele>
       <time>2014-11-04T00:44:28Z</time>
      </trkpt>
      <trkpt lat="43.761400" lon="7.478610">
       <ele>34.15</ele>
       <time>2014-11-04T00:44:34Z</time>
      </trkpt>
      <trkpt lat="43.761510" lon="7.478640">
       <ele>33.87</ele>
       <time>2014-11-04T00:44:36Z</time>
      </trkpt>
      <trkpt lat="43.761700" lon="7.478620">
       <ele>34.63</ele>
       <time>2014-11-04T00:44:40Z</time>
      </trkpt>
      <trkpt lat="43.762150" lon="7.478520">
       <ele>36.62</ele>
       <time>2014-11-04T00:44:50Z</time>
      </trkpt>
      <trkpt lat="43.762310" lon="7.478540">
       <ele>36.72</ele>
       <time>2014-11-04T00:44:53Z</time>
      </trkpt>
      <trkpt lat="43.762360" lon="7.478560">
       <ele>36.74</ele>
       <time>2014-11-04T00:44:54Z</time>
      </trkpt>
      <trkpt lat="43.762570" lon="7.478720">
       <ele>36.51</ele>
       <time>2014-11-04T00:44:59Z</time>
      </trkpt>
      <trkpt lat="43.762880" lon="7.479080">
       <ele>33.56</ele>
       <time>2014-11-04T00:45:07Z</time>
      </trkpt>
      <trkpt lat="43.763320" lon="7.479710">
       <ele>29.67</ele>
       <time>2014-11-04T00:45:21Z</time>
      </trkpt>
      <trkpt lat="43.763560" lon="7.480110">
       <ele>27.4</ele>
       <time>2014-11-04T00:45:28Z</time>
      </trkpt>
      <trkpt lat="43.763640" lon="7.480310">
       <ele>25.59</ele>
       <time>2014-11-04T00:45:32Z</time>
      </trkpt>
      <trkpt lat="43.763660" lon="7.480400">
       <ele>24.94</ele>
       <time>2014-11-04T00:45:33Z</time>
      </trkpt>
      <trkpt lat="43.763740" lon="7.480430">
       <ele>24.24</ele>
       <time>2014-11-04T00:45:35Z</time>
      </trkpt>
      <trkpt lat="43.763870" lon="7.480560">
       <ele>22.76</ele>
       <time>2014-11-04T00:45:38Z</time>
      </trkpt>
      <trkpt lat="43.764150" lon="7.481080">
       <ele>19.76</ele>
       <time>2014-11-04T00:45:48Z</time>
      </trkpt>
      <trkpt lat="43.764370" lon="7.481470">
       <ele>19.78</ele>
       <time>2014-11-04T00:45:55Z</time>
      </trkpt>
      <trkpt lat="43.764530" lon="7.481830">
       <ele>19.06</ele>
       <time>2014-11-04T00:46:02Z</time>
      </trkpt>
      <trkpt lat="43.764580" lon="7.481910">
       <ele>18.82</ele>
       <time>2014-11-04T00:46:03Z</time>
      </trkpt>
      <trkpt lat="43.764680" lon="7.481990">
       <ele>18.77</ele>
       <time>2014-11-04T00:46:06Z</time>
      </trkpt>
      <trkpt lat="43.764840" lon="7.482590">
       <ele>16.88</ele>
       <time>2014-11-04T00:46:15Z</time>
      </trkpt>
      <trkpt lat="43.764910" lon="7.482970">
       <ele>15.82</ele>
       <time>2014-11-04T00:46:21Z</time>
      </trkpt>
      <trkpt lat="43.764960" lon="7.483510">
       <ele>14.15</ele>
       <time>2014-11-04T00:46:29Z</time>
      </trkpt>
      <trkpt lat="43.764980" lon="7.484230">
       <ele>11.85</ele>
       <time>2014-11-04T00:46:40Z</time>
      </trkpt>
      <trkpt lat="43.764970" lon="7.484520">
       <ele>11.46</ele>
       <time>2014-11-04T00:46:44Z</time>
      </trkpt>
      <trkpt lat="43.765000" lon="7.485140">
       <ele>11.33</ele>
       <time>2014-11-04T00:46:54Z</time>
      </trkpt>
      <trkpt lat="43.765080" lon="7.485690">
       <ele>12.51</ele>
       <time>2014-11-04T00:47:02Z</time>
      </trkpt>
      <trkpt lat="43.765280" lon="7.486430">
       <ele>10.65</ele>
       <time>2014-11-04T00:47:14Z</time>
      </trkpt>
      <trkpt lat="43.765420" lon="7.486810">
       <ele>9.49</ele>
       <time>2014-11-04T00:47:20Z</time>
      </trkpt>
      <trkpt lat="43.765770" lon="7.487450">
       <ele>9.03</ele>
       <time>2014-11-04T00:47:32Z</time>
      </trkpt>
      <trkpt lat="43.765780" lon="7.487580">
       <ele>9.3</ele>
       <time>2014-11-04T00:47:34Z</time>
      </trkpt>
      <trkpt lat="43.765840" lon="7.487670">
       <ele>9.59</ele>
       <time>2014-11-04T00:47:36Z</time>
      </trkpt>
      <trkpt lat="43.765890" lon="7.487700">
       <ele>9.52</ele>
       <time>2014-11-04T00:47:37Z</time>
      </trkpt>
      <trkpt lat="43.765930" lon="7.487700">
       <ele>9.37</ele>
       <time>2014-11-04T00:47:38Z</time>
      </trkpt>
      <trkpt lat="43.766160" lon="7.488040">
       <ele>9.77</ele>
       <time>2014-11-04T00:47:45Z</time>
      </trkpt>
      <trkpt lat="43.766360" lon="7.488300">
       <ele>9.98</ele>
       <time>2014-11-04T00:47:51Z</time>
      </trkpt>
      <trkpt lat="43.766620" lon="7.488610">
       <ele>10.99</ele>
       <time>2014-11-04T00:47:58Z</time>
      </trkpt>
      <trkpt lat="43.767500" lon="7.489570">
       <ele>5.46</ele>
       <time>2014-11-04T00:48:21Z</time>
      </trkpt>
      <trkpt lat="43.767900" lon="7.490050">
       <ele>6.67</ele>
       <time>2014-11-04T00:48:32Z</time>
      </trkpt>
      <trkpt lat="43.768360" lon="7.490660">
       <ele>8.54</ele>
       <time>2014-11-04T00:48:45Z</time>
      </trkpt>
      <trkpt lat="43.769700" lon="7.492550">
       <ele>7.51</ele>
       <time>2014-11-04T00:49:25Z</time>
      </trkpt>
      <trkpt lat="43.770320" lon="7.493560">
       <ele>12.38</ele>
       <time>2014-11-04T00:49:45Z</time>
      </trkpt>
      <trkpt lat="43.770900" lon="7.494670">
       <ele>12.78</ele>
       <time>2014-11-04T00:50:05Z</time>
      </trkpt>
      <trkpt lat="43.771020" lon="7.494800">
       <ele>12.54</ele>
       <time>2014-11-04T00:50:08Z</time>
      </trkpt>
      <trkpt lat="43.771480" lon="7.495710">
       <ele>12.68</ele>
       <time>2014-11-04T00:50:25Z</time>
      </trkpt>
      <trkpt lat="43.772010" lon="7.496710">
       <ele>14.62</ele>
       <time>2014-11-04T00:50:44Z</time>
      </trkpt>
      <trkpt lat="43.772520" lon="7.497750">
       <ele>12.29</ele>
       <time>2014-11-04T00:51:03Z</time>
      </trkpt>
      <trkpt lat="43.772890" lon="7.498410">
       <ele>8.41</ele>
       <time>2014-11-04T00:51:15Z</time>
      </trkpt>
      <trkpt lat="43.772880" lon="7.498430">
       <ele>8.38</ele>
       <time>2014-11-04T00:51:15Z</time>
      </trkpt>
      <trkpt lat="43.772890" lon="7.498540">
       <ele>8.54</ele>
       <time>2014-11-04T00:51:17Z</time>
      </trkpt>
      <trkpt lat="43.772930" lon="7.498570">
       <ele>8.88</ele>
       <time>2014-11-04T00:51:18Z</time>
      </trkpt>
      <trkpt lat="43.772960" lon="7.498570">
       <ele>9.11</ele>
       <time>2014-11-04T00:51:19Z</time>
      </trkpt>
      <trkpt lat="43.773370" lon="7.499360">
       <ele>13.5</ele>
       <time>2014-11-04T00:51:33Z</time>
      </trkpt>
      <trkpt lat="43.773880" lon="7.500370">
       <ele>10.94</ele>
       <time>2014-11-04T00:51:52Z</time>
      </trkpt>
      <trkpt lat="43.774150" lon="7.500850">
       <ele>10.96</ele>
       <time>2014-11-04T00:52:01Z</time>
      </trkpt>
      <trkpt lat="43.774330" lon="7.501170">
       <ele>12.24</ele>
       <time>2014-11-04T00:52:07Z</time>
      </trkpt>
      <trkpt lat="43.774320" lon="7.501180">
       <ele>12.23</ele>
       <time>2014-11-04T00:52:07Z</time>
      </trkpt>
      <trkpt lat="43.774330" lon="7.501300">
       <ele>12.49</ele>
       <time>2014-11-04T00:52:09Z</time>
      </trkpt>
      <trkpt lat="43.774370" lon="7.501340">
       <ele>12.65</ele>
       <time>2014-11-04T00:52:10Z</time>
      </trkpt>
      <trkpt lat="43.774420" lon="7.501330">
       <ele>12.75</ele>
       <time>2014-11-04T00:52:11Z</time>
      </trkpt>
      <trkpt lat="43.774520" lon="7.501420">
       <ele>13.08</ele>
       <time>2014-11-04T00:52:13Z</time>
      </trkpt>
      <trkpt lat="43.774580" lon="7.501550">
       <ele>13.35</ele>
       <time>2014-11-04T00:52:16Z</time>
      </trkpt>
      <trkpt lat="43.774640" lon="7.501720">
       <ele>13.41</ele>
       <time>2014-11-04T00:52:19Z</time>
      </trkpt>
      <trkpt lat="43.774810" lon="7.502670">
       <ele>11.88</ele>
       <time>2014-11-04T00:52:33Z</time>
      </trkpt>
      <trkpt lat="43.774890" lon="7.503090">
       <ele>13.31</ele>
       <time>2014-11-04T00:52:40Z</time>
      </trkpt>
      <trkpt lat="43.775250" lon="7.502990">
       <ele>14.98</ele>
       <time>2014-11-04T00:52:47Z</time>
      </trkpt>
      <trkpt lat="43.775270" lon="7.503070">
       <ele>15.21</ele>
       <time>2014-11-04T00:52:49Z</time>
      </trkpt>
      <trkpt lat="43.775320" lon="7.503120">
       <ele>15.48</ele>
       <time>2014-11-04T00:52:50Z</time>
      </trkpt>
      <trkpt lat="43.775420" lon="7.503110">
       <ele>15.88</ele>
       <time>2014-11-04T00:52:52Z</time>
      </trkpt>
      <trkpt lat="43.775540" lon="7.503060">
       <ele>16.37</ele>
       <time>2014-11-04T00:52:55Z</time>
      </trkpt>
      <trkpt lat="43.775610" lon="7.503380">
       <ele>16.33</ele>
       <time>2014-11-04T00:53:00Z</time>
      </trkpt>
      <trkpt lat="43.775870" lon="7.503290">
       <ele>17.11</ele>
       <time>2014-11-04T00:53:05Z</time>
      </trkpt>
      <trkpt lat="43.776330" lon="7.503140">
       <ele>18.02</ele>
       <time>2014-11-04T00:53:15Z</time>
      </trkpt>
      <trkpt lat="43.777080" lon="7.502860">
       <ele>25.29</ele>
       <time>2014-11-04T00:53:31Z</time>
      </trkpt>
      <trkpt lat="43.777130" lon="7.502950">
       <ele>24.93</ele>
       <time>2014-11-04T00:53:33Z</time>
      </trkpt>
      <trkpt lat="43.777180" lon="7.503100">
       <ele>23.85</ele>
       <time>2014-11-04T00:53:35Z</time>
      </trkpt>
      <trkpt lat="43.777220" lon="7.503150">
       <ele>23.72</ele>
       <time>2014-11-04T00:53:36Z</time>
      </trkpt>
      <trkpt lat="43.777240" lon="7.503150">
       <ele>23.9</ele>
       <time>2014-11-04T00:53:37Z</time>
      </trkpt>
      <trkpt lat="43.777260" lon="7.503130">
       <ele>24.32</ele>
       <time>2014-11-04T00:53:37Z</time>
      </trkpt>
      <trkpt lat="43.777260" lon="7.503050">
       <ele>25.23</ele>
       <time>2014-11-04T00:53:38Z</time>
      </trkpt>
      <trkpt lat="43.777200" lon="7.502910">
       <ele>26.14</ele>
       <time>2014-11-04T00:53:41Z</time>
      </trkpt>
      <trkpt lat="43.777180" lon="7.502800">
       <ele>27.12</ele>
       <time>2014-11-04T00:53:43Z</time>
      </trkpt>
      <trkpt lat="43.777180" lon="7.502740">
       <ele>27.77</ele>
       <time>2014-11-04T00:53:43Z</time>
      </trkpt>
      <trkpt lat="43.777200" lon="7.502700">
       <ele>28.46</ele>
       <time>2014-11-04T00:53:44Z</time>
      </trkpt>
      <trkpt lat="43.777330" lon="7.502520">
       <ele>32.29</ele>
       <time>2014-11-04T00:53:48Z</time>
      </trkpt>
      <trkpt lat="43.777400" lon="7.502670">
       <ele>31.45</ele>
       <time>2014-11-04T00:53:51Z</time>
      </trkpt>
      <trkpt lat="43.777540" lon="7.502870">
       <ele>31.25</ele>
       <time>2014-11-04T00:53:55Z</time>
      </trkpt>
      <trkpt lat="43.777580" lon="7.502900">
       <ele>32.06</ele>
       <time>2014-11-04T00:53:56Z</time>
      </trkpt>
      <trkpt lat="43.777620" lon="7.502880">
       <ele>33.48</ele>
       <time>2014-11-04T00:53:57Z</time>
      </trkpt>
      <trkpt lat="43.777640" lon="7.502820">
       <ele>35.12</ele>
       <time>2014-11-04T00:53:58Z</time>
      </trkpt>
      <trkpt lat="43.777620" lon="7.502770">
       <ele>35.2</ele>
       <time>2014-11-04T00:53:59Z</time>
      </trkpt>
      <trkpt lat="43.777440" lon="7.502520">
       <ele>33.87</ele>
       <time>2014-11-04T00:54:04Z</time>
      </trkpt>
      <trkpt lat="43.777420" lon="7.502460">
       <ele>34.2</ele>
       <time>2014-11-04T00:54:05Z</time>
      </trkpt>
      <trkpt lat="43.777420" lon="7.502420">
       <ele>34.56</ele>
       <time>2014-11-04T00:54:05Z</time>
      </trkpt>
      <trkpt lat="43.777520" lon="7.502210">
       <ele>38.46</ele>
       <time>2014-11-04T00:54:09Z</time>
      </trkpt>
      <trkpt lat="43.777530" lon="7.502150">
       <ele>39.42</ele>
       <time>2014-11-04T00:54:10Z</time>
      </trkpt>
      <trkpt lat="43.777520" lon="7.501960">
       <ele>40.83</ele>
       <time>2014-11-04T00:54:13Z</time>
      </trkpt>
      <trkpt lat="43.777540" lon="7.501690">
       <ele>43.98</ele>
       <time>2014-11-04T00:54:17Z</time>
      </trkpt>
      <trkpt lat="43.777590" lon="7.501600">
       <ele>45.63</ele>
       <time>2014-11-04T00:54:19Z</time>
      </trkpt>
      <trkpt lat="43.777720" lon="7.501470">
       <ele>48.93</ele>
       <time>2014-11-04T00:54:22Z</time>
      </trkpt>
      <trkpt lat="43.778040" lon="7.501260">
       <ele>56.39</ele>
       <time>2014-11-04T00:54:29Z</time>
      </trkpt>
      <trkpt lat="43.778220" lon="7.501190">
       <ele>60.4</ele>
       <time>2014-11-04T00:54:33Z</time>
      </trkpt>
      <trkpt lat="43.778640" lon="7.500630">
       <ele>68.39</ele>
       <time>2014-11-04T00:54:45Z</time>
      </trkpt>
      <trkpt lat="43.778690" lon="7.500600">
       <ele>69.61</ele>
       <time>2014-11-04T00:54:46Z</time>
      </trkpt>
      <trkpt lat="43.778720" lon="7.500610">
       <ele>70.26</ele>
       <time>2014-11-04T00:54:47Z</time>
      </trkpt>
      <trkpt lat="43.778740" lon="7.500690">
       <ele>70.52</ele>
       <time>2014-11-04T00:54:48Z</time>
      </trkpt>
      <trkpt lat="43.778220" lon="7.501590">
       <ele>64.68</ele>
       <time>2014-11-04T00:55:06Z</time>
      </trkpt>
      <trkpt lat="43.778210" lon="7.501680">
       <ele>65.08</ele>
       <time>2014-11-04T00:55:07Z</time>
      </trkpt>
      <trkpt lat="43.778230" lon="7.501720">
       <ele>65.51</ele>
       <time>2014-11-04T00:55:08Z</time>
      </trkpt>
      <trkpt lat="43.778260" lon="7.501740">
       <ele>66.39</ele>
       <time>2014-11-04T00:55:08Z</time>
      </trkpt>
      <trkpt lat="43.778320" lon="7.501720">
       <ele>68.4</ele>
       <time>2014-11-04T00:55:10Z</time>
      </trkpt>
      <trkpt lat="43.778440" lon="7.501610">
       <ele>71.1</ele>
       <time>2014-11-04T00:55:13Z</time>
      </trkpt>
      <trkpt lat="43.778790" lon="7.501370">
       <ele>77.68</ele>
       <time>2014-11-04T00:55:21Z</time>
      </trkpt>
      <trkpt lat="43.779110" lon="7.501080">
       <ele>83.12</ele>
       <time>2014-11-04T00:55:29Z</time>
      </trkpt>
      <trkpt lat="43.779270" lon="7.500890">
       <ele>85.54</ele>
       <time>2014-11-04T00:55:33Z</time>
      </trkpt>
      <trkpt lat="43.779530" lon="7.500470">
       <ele>88.07</ele>
       <time>2014-11-04T00:55:41Z</time>
      </trkpt>
      <trkpt lat="43.779590" lon="7.500420">
       <ele>88.97</ele>
       <time>2014-11-04T00:55:43Z</time>
      </trkpt>
      <trkpt lat="43.779840" lon="7.500250">
       <ele>92.5</ele>
       <time>2014-11-04T00:55:49Z</time>
      </trkpt>
      <trkpt lat="43.780350" lon="7.500060">
       <ele>102.54</ele>
       <time>2014-11-04T00:56:00Z</time>
      </trkpt>
      <trkpt lat="43.780700" lon="7.499870">
       <ele>110.21</ele>
       <time>2014-11-04T00:56:07Z</time>
      </trkpt>
      <trkpt lat="43.780830" lon="7.499750">
       <ele>112.23</ele>
       <time>2014-11-04T00:56:11Z</time>
      </trkpt>
      <trkpt lat="43.781060" lon="7.499390">
       <ele>115.59</ele>
       <time>2014-11-04T00:56:18Z</time>
      </trkpt>
      <trkpt lat="43.781110" lon="7.499370">
       <ele>116.96</ele>
       <time>2014-11-04T00:56:19Z</time>
      </trkpt>
      <trkpt lat="43.781120" lon="7.499380">
       <ele>117.43</ele>
       <time>2014-11-04T00:56:19Z</time>
      </trkpt>
      <trkpt lat="43.781340" lon="7.498270">
       <ele>121.99</ele>
       <time>2014-11-04T00:56:36Z</time>
      </trkpt>
      <trkpt lat="43.781290" lon="7.498170">
       <ele>120.85</ele>
       <time>2014-11-04T00:56:38Z</time>
      </trkpt>
      <trkpt lat="43.781260" lon="7.498150">
       <ele>120.47</ele>
       <time>2014-11-04T00:56:39Z</time>
      </trkpt>
      <trkpt lat="43.781140" lon="7.498170">
       <ele>119.13</ele>
       <time>2014-11-04T00:56:41Z</time>
      </trkpt>
      <trkpt lat="43.780770" lon="7.498380">
       <ele>114.22</ele>
       <time>2014-11-04T00:56:50Z</time>
      </trkpt>
      <trkpt lat="43.780500" lon="7.498500">
       <ele>111.27</ele>
       <time>2014-11-04T00:56:56Z</time>
      </trkpt>
      <trkpt lat="43.780390" lon="7.498530">
       <ele>110.16</ele>
       <time>2014-11-04T00:56:58Z</time>
      </trkpt>
      <trkpt lat="43.780350" lon="7.498530">
       <ele>109.9</ele>
       <time>2014-11-04T00:56:59Z</time>
      </trkpt>
      <trkpt lat="43.780250" lon="7.498480">
       <ele>110.21</ele>
       <time>2014-11-04T00:57:01Z</time>
      </trkpt>
      <trkpt lat="43.780060" lon="7.498190">
       <ele>113.85</ele>
       <time>2014-11-04T00:57:07Z</time>
      </trkpt>
    </trkseg>
  </trk>
</gpx>
